<?xml version='1.0' encoding='UTF-8'?><gpx version="1.1" creator="JPX - https://github.com/jenetics/jpx" xmlns="http://www.topografix.com/GPX/1/1"><trk><trkseg><trkpt lat="41.680551649765874" lon="13.373449441108802"><ele>246.00000000000003</ele><time>2026-03-25T11:19:50.98Z</time></trkpt><trkpt lat="41.68058350691638" lon="13.373536623596532"><ele>246.0</ele><time>2026-03-25T11:19:56.98Z</time></trkpt><trkpt lat="41.68056251556419" lon="13.373621863106317"><ele>246.00000000000003</ele><time>2026-03-25T11:20:40.981Z</time></trkpt><trkpt lat="41.68051406595462" lon="13.373688337155953"><ele>246.00000000000003</ele><time>2026-03-25T11:20:48.989Z</time></trkpt><trkpt lat="41.68045264836949" lon="13.373625138795365"><ele>246.0</ele><time>2026-03-25T11:20:53.993Z</time></trkpt><trkpt lat="41.680426417209446" lon="13.373530033598684"><ele>246.00000000000003</ele><time>2026-03-25T11:20:56.994Z</time></trkpt><trkpt lat="41.680414552382274" lon="13.373446421155638"><ele>246.00000000000003</ele><time>2026-03-25T11:20:59.995Z</time></trkpt><trkpt lat="41.68039445012459" lon="13.373355057748062"><ele>246.00000000000003</ele><time>2026-03-25T11:21:02.996Z</time></trkpt><trkpt lat="41.68038364633438" lon="13.373269903070751"><ele>246.0</ele><time>2026-03-25T11:21:06.997Z</time></trkpt><trkpt lat="41.68035899981977" lon="13.373181213544186"><ele>246.00000000000003</ele><time>2026-03-25T11:21:37Z</time></trkpt><trkpt lat="41.680277662592616" lon="13.373180112750244"><ele>246.00000000000003</ele><time>2026-03-25T11:21:41Z</time></trkpt><trkpt lat="41.680204109571264" lon="13.373181841444444"><ele>246.0</ele><time>2026-03-25T11:21:44Z</time></trkpt><trkpt lat="41.680129483117476" lon="13.373192762789769"><ele>246.00000000000003</ele><time>2026-03-25T11:21:47Z</time></trkpt><trkpt lat="41.68005925864468" lon="13.373191519952067"><ele>246.00000000000003</ele><time>2026-03-25T11:21:50Z</time></trkpt><trkpt lat="41.67999143674295" lon="13.373214626820216"><ele>245.71428571428575</ele><time>2026-03-25T11:21:53Z</time></trkpt><trkpt lat="41.67991601650021" lon="13.373230440866541"><ele>245.42857142857144</ele><time>2026-03-25T11:21:56Z</time></trkpt><trkpt lat="41.67983930070401" lon="13.3732588947443"><ele>245.14285714285714</ele><time>2026-03-25T11:21:59Z</time></trkpt><trkpt lat="41.679769239943454" lon="13.373259299911497"><ele>244.85714285714286</ele><time>2026-03-25T11:22:02Z</time></trkpt><trkpt lat="41.679701076095" lon="13.373277267345987"><ele>244.57142857142856</ele><time>2026-03-25T11:22:05Z</time></trkpt><trkpt lat="41.67963396704514" lon="13.373289178263601"><ele>244.28571428571425</ele><time>2026-03-25T11:22:08Z</time></trkpt><trkpt lat="41.67957063429443" lon="13.373297391687839"><ele>243.99999999999997</ele><time>2026-03-25T11:22:11Z</time></trkpt><trkpt lat="41.67950651913083" lon="13.373310988578526"><ele>243.99999999999997</ele><time>2026-03-25T11:22:14Z</time></trkpt><trkpt lat="41.67943426377462" lon="13.37332213843335"><ele>244.0</ele><time>2026-03-25T11:22:18Z</time></trkpt><trkpt lat="41.67935570085032" lon="13.373344179795188"><ele>244.0</ele><time>2026-03-25T11:22:22Z</time></trkpt><trkpt lat="41.67927547899647" lon="13.373363361891908"><ele>244.0</ele><time>2026-03-25T11:22:25Z</time></trkpt><trkpt lat="41.67922327036649" lon="13.37345452091919"><ele>243.99999999999997</ele><time>2026-03-25T11:22:34Z</time></trkpt><trkpt lat="41.679261267025026" lon="13.373604901310395"><ele>244.0</ele><time>2026-03-25T11:22:36.001Z</time></trkpt><trkpt lat="41.67929818053218" lon="13.37374219159145"><ele>243.49999999999997</ele><time>2026-03-25T11:22:38.001Z</time></trkpt><trkpt lat="41.67933811590166" lon="13.373891295808738"><ele>243.0</ele><time>2026-03-25T11:22:40.001Z</time></trkpt><trkpt lat="41.6793590544131" lon="13.373971008573452"><ele>242.5</ele><time>2026-03-25T11:22:41.001Z</time></trkpt><trkpt lat="41.6794021847876" lon="13.374135619703535"><ele>242.0</ele><time>2026-03-25T11:22:43.001Z</time></trkpt><trkpt lat="41.679421984215224" lon="13.374225173816649"><ele>241.49999999999997</ele><time>2026-03-25T11:22:44.001Z</time></trkpt><trkpt lat="41.67944439088933" lon="13.37430827097304"><ele>241.0</ele><time>2026-03-25T11:22:45.001Z</time></trkpt><trkpt lat="41.67946577449779" lon="13.37439390584165"><ele>241.71428571428572</ele><time>2026-03-25T11:22:46.001Z</time></trkpt><trkpt lat="41.67948545740923" lon="13.374478544833806"><ele>242.42857142857144</ele><time>2026-03-25T11:22:47.001Z</time></trkpt><trkpt lat="41.67950592243841" lon="13.374564992911418"><ele>243.14285714285717</ele><time>2026-03-25T11:22:48.001Z</time></trkpt><trkpt lat="41.67952689661322" lon="13.3746492193267"><ele>243.8571428571429</ele><time>2026-03-25T11:22:49.001Z</time></trkpt><trkpt lat="41.67954707385068" lon="13.374732576352244"><ele>244.57142857142858</ele><time>2026-03-25T11:22:50.001Z</time></trkpt><trkpt lat="41.67956570859409" lon="13.374815920731105"><ele>245.28571428571433</ele><time>2026-03-25T11:22:51.001Z</time></trkpt><trkpt lat="41.6795861167335" lon="13.374899844089008"><ele>246.00000000000003</ele><time>2026-03-25T11:22:52.001Z</time></trkpt><trkpt lat="41.67960817677665" lon="13.374989458783869"><ele>246.0</ele><time>2026-03-25T11:22:53.001Z</time></trkpt><trkpt lat="41.67963195066228" lon="13.375076935327533"><ele>246.0</ele><time>2026-03-25T11:22:54.001Z</time></trkpt><trkpt lat="41.67965023762069" lon="13.375170640804347"><ele>246.0</ele><time>2026-03-25T11:22:55.001Z</time></trkpt><trkpt lat="41.679671436676855" lon="13.37526166568378"><ele>246.0</ele><time>2026-03-25T11:22:56.001Z</time></trkpt><trkpt lat="41.67969545333398" lon="13.375364012478151"><ele>246.0</ele><time>2026-03-25T11:22:57.001Z</time></trkpt><trkpt lat="41.67972442112255" lon="13.375472250400414"><ele>246.0</ele><time>2026-03-25T11:22:58.001Z</time></trkpt><trkpt lat="41.6797533495468" lon="13.375584918364238"><ele>245.83333333333334</ele><time>2026-03-25T11:22:59Z</time></trkpt><trkpt lat="41.67978304251115" lon="13.37569975562144"><ele>245.66666666666669</ele><time>2026-03-25T11:23:00Z</time></trkpt><trkpt lat="41.67980804193242" lon="13.375800352933505"><ele>245.5</ele><time>2026-03-25T11:23:01Z</time></trkpt><trkpt lat="41.679836984254585" lon="13.375908812921683"><ele>245.33333333333334</ele><time>2026-03-25T11:23:02Z</time></trkpt><trkpt lat="41.67986872962603" lon="13.376027751141974"><ele>245.16666666666669</ele><time>2026-03-25T11:23:03Z</time></trkpt><trkpt lat="41.67990086978195" lon="13.376150602383447"><ele>245.0</ele><time>2026-03-25T11:23:04Z</time></trkpt><trkpt lat="41.67993438061346" lon="13.376273454925254"><ele>245.16666666666669</ele><time>2026-03-25T11:23:05Z</time></trkpt><trkpt lat="41.67996355935405" lon="13.376389912715203"><ele>245.33333333333334</ele><time>2026-03-25T11:23:06Z</time></trkpt><trkpt lat="41.67999001368658" lon="13.376485621863946"><ele>245.5</ele><time>2026-03-25T11:23:07Z</time></trkpt><trkpt lat="41.680014035254196" lon="13.376568394637982"><ele>245.66666666666669</ele><time>2026-03-25T11:23:08Z</time></trkpt><trkpt lat="41.68004578153869" lon="13.376693215457346"><ele>245.83333333333334</ele><time>2026-03-25T11:23:10Z</time></trkpt><trkpt lat="41.680059004400206" lon="13.376811887440223"><ele>246.0</ele><time>2026-03-25T11:23:16Z</time></trkpt><trkpt lat="41.68022466810515" lon="13.376832925050287"><ele>246.4</ele><time>2026-03-25T11:23:18Z</time></trkpt><trkpt lat="41.680305525521746" lon="13.376834739039733"><ele>246.8</ele><time>2026-03-25T11:23:19Z</time></trkpt><trkpt lat="41.68038929640904" lon="13.376836165807026"><ele>247.20000000000002</ele><time>2026-03-25T11:23:20Z</time></trkpt><trkpt lat="41.680481322915384" lon="13.376835642453445"><ele>247.60000000000002</ele><time>2026-03-25T11:23:21Z</time></trkpt><trkpt lat="41.680580794941505" lon="13.376836912940632"><ele>248.0</ele><time>2026-03-25T11:23:22Z</time></trkpt><trkpt lat="41.68068681432889" lon="13.376835891709954"><ele>248.0</ele><time>2026-03-25T11:23:23Z</time></trkpt><trkpt lat="41.680793027640945" lon="13.376836136919005"><ele>248.0</ele><time>2026-03-25T11:23:24Z</time></trkpt><trkpt lat="41.680899545072265" lon="13.37684621249359"><ele>248.0</ele><time>2026-03-25T11:23:25Z</time></trkpt><trkpt lat="41.68103037725698" lon="13.376838161099442"><ele>248.0</ele><time>2026-03-25T11:23:26Z</time></trkpt><trkpt lat="41.681152267487924" lon="13.376836426216318"><ele>248.0</ele><time>2026-03-25T11:23:27Z</time></trkpt><trkpt lat="41.68127960523137" lon="13.376837525452936"><ele>248.0</ele><time>2026-03-25T11:23:28Z</time></trkpt><trkpt lat="41.681409947405136" lon="13.376835424740756"><ele>248.0</ele><time>2026-03-25T11:23:29Z</time></trkpt><trkpt lat="41.68154174792408" lon="13.37682904773384"><ele>248.0</ele><time>2026-03-25T11:23:30Z</time></trkpt><trkpt lat="41.68167178303781" lon="13.376823974526925"><ele>248.0</ele><time>2026-03-25T11:23:31Z</time></trkpt><trkpt lat="41.681802905460096" lon="13.376821463502607"><ele>248.0</ele><time>2026-03-25T11:23:32Z</time></trkpt><trkpt lat="41.68193987073826" lon="13.376818346205805"><ele>248.0</ele><time>2026-03-25T11:23:33Z</time></trkpt><trkpt lat="41.682081141015765" lon="13.376813969535222"><ele>248.0</ele><time>2026-03-25T11:23:34Z</time></trkpt><trkpt lat="41.68222711392742" lon="13.376808005671288"><ele>249.0</ele><time>2026-03-25T11:23:35Z</time></trkpt><trkpt lat="41.68236995111581" lon="13.376801857746802"><ele>250.0</ele><time>2026-03-25T11:23:36Z</time></trkpt><trkpt lat="41.682507391134365" lon="13.37679758955169"><ele>251.0</ele><time>2026-03-25T11:23:37Z</time></trkpt><trkpt lat="41.682626923191584" lon="13.376787424608112"><ele>252.0</ele><time>2026-03-25T11:23:38Z</time></trkpt><trkpt lat="41.682730587374095" lon="13.376781396441423"><ele>252.5</ele><time>2026-03-25T11:23:39Z</time></trkpt><trkpt lat="41.682840804252" lon="13.376769690127063"><ele>253.0</ele><time>2026-03-25T11:23:40Z</time></trkpt><trkpt lat="41.682955897705476" lon="13.37675683000767"><ele>253.5</ele><time>2026-03-25T11:23:41Z</time></trkpt><trkpt lat="41.68307315072912" lon="13.376746660205248"><ele>254.0</ele><time>2026-03-25T11:23:42Z</time></trkpt><trkpt lat="41.6831851525451" lon="13.376736887325626"><ele>254.00000000000003</ele><time>2026-03-25T11:23:43Z</time></trkpt><trkpt lat="41.68329228911153" lon="13.376726389488246"><ele>254.0</ele><time>2026-03-25T11:23:44Z</time></trkpt><trkpt lat="41.683383287669194" lon="13.376713552613309"><ele>254.0</ele><time>2026-03-25T11:23:45Z</time></trkpt><trkpt lat="41.68346141538296" lon="13.376702040673567"><ele>254.0</ele><time>2026-03-25T11:23:46Z</time></trkpt><trkpt lat="41.6835277830687" lon="13.376693326356744"><ele>254.00000000000003</ele><time>2026-03-25T11:23:47Z</time></trkpt><trkpt lat="41.683620849088896" lon="13.376681455063443"><ele>254.0</ele><time>2026-03-25T11:23:49Z</time></trkpt><trkpt lat="41.68368367464694" lon="13.376671105772315"><ele>254.39999999999998</ele><time>2026-03-25T11:23:51Z</time></trkpt><trkpt lat="41.68375985366591" lon="13.376657246093142"><ele>254.79999999999998</ele><time>2026-03-25T11:23:54Z</time></trkpt><trkpt lat="41.68384195030365" lon="13.376622808651478"><ele>255.20000000000002</ele><time>2026-03-25T11:23:58Z</time></trkpt><trkpt lat="41.68390825986854" lon="13.376594743334325"><ele>255.60000000000002</ele><time>2026-03-25T11:24:01Z</time></trkpt><trkpt lat="41.68393414275329" lon="13.376857146141438"><ele>256.0</ele><time>2026-03-25T11:24:02Z</time></trkpt><trkpt lat="41.68396127430765" lon="13.376987425285362"><ele>256.0</ele><time>2026-03-25T11:24:03Z</time></trkpt><trkpt lat="41.683980311843506" lon="13.377138194308152"><ele>256.0</ele><time>2026-03-25T11:24:04Z</time></trkpt><trkpt lat="41.68399578433033" lon="13.377315575603342"><ele>256.0</ele><time>2026-03-25T11:24:05Z</time></trkpt><trkpt lat="41.68401079212948" lon="13.37749175943134"><ele>256.0</ele><time>2026-03-25T11:24:06Z</time></trkpt><trkpt lat="41.684026858654626" lon="13.377690797879266"><ele>255.33333333333331</ele><time>2026-03-25T11:24:07Z</time></trkpt><trkpt lat="41.68404171807369" lon="13.377898851491393"><ele>254.66666666666669</ele><time>2026-03-25T11:24:08Z</time></trkpt><trkpt lat="41.68405766418117" lon="13.378101426178665"><ele>254.0</ele><time>2026-03-25T11:24:09Z</time></trkpt><trkpt lat="41.6840780831697" lon="13.37830302615754"><ele>253.75</ele><time>2026-03-25T11:24:10Z</time></trkpt><trkpt lat="41.68409157579011" lon="13.378504428485671"><ele>253.5</ele><time>2026-03-25T11:24:11Z</time></trkpt><trkpt lat="41.68411193373575" lon="13.378701345039252"><ele>253.25</ele><time>2026-03-25T11:24:12Z</time></trkpt><trkpt lat="41.684135648050336" lon="13.378894222713361"><ele>253.0</ele><time>2026-03-25T11:24:13Z</time></trkpt><trkpt lat="41.68417199371473" lon="13.379082721990066"><ele>252.0</ele><time>2026-03-25T11:24:14Z</time></trkpt><trkpt lat="41.68421688301601" lon="13.379262283354464"><ele>251.0</ele><time>2026-03-25T11:24:15Z</time></trkpt><trkpt lat="41.684264007035516" lon="13.379428466808188"><ele>250.0</ele><time>2026-03-25T11:24:16Z</time></trkpt><trkpt lat="41.68431652618763" lon="13.379560185209709"><ele>249.0</ele><time>2026-03-25T11:24:17Z</time></trkpt><trkpt lat="41.684389007748486" lon="13.379678859151717"><ele>247.25</ele><time>2026-03-25T11:24:18Z</time></trkpt><trkpt lat="41.68448546940597" lon="13.379792282847756"><ele>245.5</ele><time>2026-03-25T11:24:19Z</time></trkpt><trkpt lat="41.684583253729485" lon="13.37990024152438"><ele>243.75</ele><time>2026-03-25T11:24:20Z</time></trkpt><trkpt lat="41.68467011396753" lon="13.380015406612271"><ele>242.0</ele><time>2026-03-25T11:24:21Z</time></trkpt><trkpt lat="41.684731545970145" lon="13.380149868030452"><ele>242.0</ele><time>2026-03-25T11:24:22Z</time></trkpt><trkpt lat="41.68477228670146" lon="13.380290759362587"><ele>242.0</ele><time>2026-03-25T11:24:23Z</time></trkpt><trkpt lat="41.684796330528876" lon="13.380436515239442"><ele>242.0</ele><time>2026-03-25T11:24:24Z</time></trkpt><trkpt lat="41.68481551636416" lon="13.380589607816336"><ele>242.0</ele><time>2026-03-25T11:24:25Z</time></trkpt><trkpt lat="41.68483558168376" lon="13.380745777816063"><ele>241.5</ele><time>2026-03-25T11:24:26Z</time></trkpt><trkpt lat="41.684856146488315" lon="13.380904592823565"><ele>241.0</ele><time>2026-03-25T11:24:27Z</time></trkpt><trkpt lat="41.684875688373374" lon="13.381057512042931"><ele>240.5</ele><time>2026-03-25T11:24:28Z</time></trkpt><trkpt lat="41.684899905206485" lon="13.381205599555996"><ele>240.0</ele><time>2026-03-25T11:24:29Z</time></trkpt><trkpt lat="41.68492314965444" lon="13.381352451824672"><ele>241.0</ele><time>2026-03-25T11:24:30Z</time></trkpt><trkpt lat="41.684948494317084" lon="13.38150270788572"><ele>242.0</ele><time>2026-03-25T11:24:31Z</time></trkpt><trkpt lat="41.68498655914266" lon="13.38165683838584"><ele>243.0</ele><time>2026-03-25T11:24:32Z</time></trkpt><trkpt lat="41.6850370314523" lon="13.381813515117841"><ele>244.0</ele><time>2026-03-25T11:24:33Z</time></trkpt><trkpt lat="41.68509150501802" lon="13.381974997179382"><ele>244.0</ele><time>2026-03-25T11:24:34Z</time></trkpt><trkpt lat="41.68514551765857" lon="13.382132687789746"><ele>244.0</ele><time>2026-03-25T11:24:35Z</time></trkpt><trkpt lat="41.6852006082072" lon="13.382287384096303"><ele>244.0</ele><time>2026-03-25T11:24:36Z</time></trkpt><trkpt lat="41.68525520910915" lon="13.38243946726267"><ele>244.0</ele><time>2026-03-25T11:24:37Z</time></trkpt><trkpt lat="41.68530057186536" lon="13.382579578894186"><ele>245.2</ele><time>2026-03-25T11:24:38Z</time></trkpt><trkpt lat="41.68533613263073" lon="13.382677003160016"><ele>246.39999999999998</ele><time>2026-03-25T11:24:39Z</time></trkpt><trkpt lat="41.685371038675974" lon="13.382777017869762"><ele>247.6</ele><time>2026-03-25T11:24:40Z</time></trkpt><trkpt lat="41.68541134385624" lon="13.382893932469893"><ele>248.8</ele><time>2026-03-25T11:24:41Z</time></trkpt><trkpt lat="41.68545013915003" lon="13.383033205521476"><ele>250.0</ele><time>2026-03-25T11:24:42Z</time></trkpt><trkpt lat="41.68551407256351" lon="13.383174033248043"><ele>250.0</ele><time>2026-03-25T11:24:43Z</time></trkpt><trkpt lat="41.6855701834277" lon="13.383323772392986"><ele>250.0</ele><time>2026-03-25T11:24:44Z</time></trkpt><trkpt lat="41.68561512806797" lon="13.38348851688035"><ele>250.0</ele><time>2026-03-25T11:24:45Z</time></trkpt><trkpt lat="41.685641908946415" lon="13.383667905406103"><ele>250.0</ele><time>2026-03-25T11:24:46Z</time></trkpt><trkpt lat="41.685652853068326" lon="13.3838623654583"><ele>248.33333333333331</ele><time>2026-03-25T11:24:47Z</time></trkpt><trkpt lat="41.6856441276773" lon="13.384068420935169"><ele>246.66666666666669</ele><time>2026-03-25T11:24:48Z</time></trkpt><trkpt lat="41.68562028225236" lon="13.384287948170728"><ele>245.0</ele><time>2026-03-25T11:24:49Z</time></trkpt><trkpt lat="41.68560704752117" lon="13.384514777393061"><ele>244.5</ele><time>2026-03-25T11:24:50Z</time></trkpt><trkpt lat="41.685611284376705" lon="13.384743285744392"><ele>244.0</ele><time>2026-03-25T11:24:51Z</time></trkpt><trkpt lat="41.685620962946004" lon="13.384941610209276"><ele>243.5</ele><time>2026-03-25T11:24:52Z</time></trkpt><trkpt lat="41.685639028590366" lon="13.38509476810071"><ele>243.0</ele><time>2026-03-25T11:24:53Z</time></trkpt><trkpt lat="41.685649163328755" lon="13.38523049798954"><ele>243.0</ele><time>2026-03-25T11:24:54Z</time></trkpt><trkpt lat="41.68566037812883" lon="13.385360982707223"><ele>243.0</ele><time>2026-03-25T11:24:55Z</time></trkpt><trkpt lat="41.685669763614165" lon="13.385464178006702"><ele>243.0</ele><time>2026-03-25T11:24:56Z</time></trkpt><trkpt lat="41.68567759201553" lon="13.38554885197567"><ele>243.0</ele><time>2026-03-25T11:24:57Z</time></trkpt><trkpt lat="41.68569887962849" lon="13.385714049356347"><ele>243.0</ele><time>2026-03-25T11:24:59Z</time></trkpt><trkpt lat="41.68570345123486" lon="13.385821832527528"><ele>243.0</ele><time>2026-03-25T11:25:00Z</time></trkpt><trkpt lat="41.685684744523144" lon="13.385946607148622"><ele>243.25</ele><time>2026-03-25T11:25:01Z</time></trkpt><trkpt lat="41.685635646831884" lon="13.386078829266888"><ele>243.5</ele><time>2026-03-25T11:25:02Z</time></trkpt><trkpt lat="41.68554739681242" lon="13.386199108755157"><ele>243.75</ele><time>2026-03-25T11:25:03Z</time></trkpt><trkpt lat="41.68542134647679" lon="13.386290449121258"><ele>244.0</ele><time>2026-03-25T11:25:04Z</time></trkpt><trkpt lat="41.68529544621465" lon="13.38636808194435"><ele>245.0</ele><time>2026-03-25T11:25:05Z</time></trkpt><trkpt lat="41.68515675818163" lon="13.386445151074927"><ele>246.0</ele><time>2026-03-25T11:25:06Z</time></trkpt><trkpt lat="41.68500045756493" lon="13.386519154988797"><ele>247.0</ele><time>2026-03-25T11:25:07Z</time></trkpt><trkpt lat="41.68483211950629" lon="13.386587305259305"><ele>247.0</ele><time>2026-03-25T11:25:08Z</time></trkpt><trkpt lat="41.68465837304127" lon="13.386643503793463"><ele>247.0</ele><time>2026-03-25T11:25:09Z</time></trkpt><trkpt lat="41.684489522650686" lon="13.386688832152048"><ele>247.0</ele><time>2026-03-25T11:25:10Z</time></trkpt><trkpt lat="41.6843460524087" lon="13.386733629533541"><ele>246.0</ele><time>2026-03-25T11:25:11Z</time></trkpt><trkpt lat="41.684225042276175" lon="13.386780737642885"><ele>245.0</ele><time>2026-03-25T11:25:12Z</time></trkpt><trkpt lat="41.68411208301726" lon="13.386871630720686"><ele>244.0</ele><time>2026-03-25T11:25:13Z</time></trkpt><trkpt lat="41.68400450704638" lon="13.387004492481275"><ele>243.0</ele><time>2026-03-25T11:25:14Z</time></trkpt><trkpt lat="41.68391473452666" lon="13.387165810214597"><ele>245.0</ele><time>2026-03-25T11:25:15Z</time></trkpt><trkpt lat="41.6838562883424" lon="13.38735329115174"><ele>247.0</ele><time>2026-03-25T11:25:16Z</time></trkpt><trkpt lat="41.683830873276236" lon="13.387553800222104"><ele>249.0</ele><time>2026-03-25T11:25:17Z</time></trkpt><trkpt lat="41.683815491919184" lon="13.387758343384151"><ele>249.0</ele><time>2026-03-25T11:25:18Z</time></trkpt><trkpt lat="41.68381192903314" lon="13.387972684016743"><ele>249.0</ele><time>2026-03-25T11:25:19Z</time></trkpt><trkpt lat="41.683795775429516" lon="13.388181390407722"><ele>249.0</ele><time>2026-03-25T11:25:20Z</time></trkpt><trkpt lat="41.683812603419405" lon="13.388391019966326"><ele>249.33333333333331</ele><time>2026-03-25T11:25:21Z</time></trkpt><trkpt lat="41.68386401841112" lon="13.38860491541333"><ele>249.66666666666666</ele><time>2026-03-25T11:25:22Z</time></trkpt><trkpt lat="41.683925255397604" lon="13.38880560295605"><ele>250.0</ele><time>2026-03-25T11:25:23Z</time></trkpt><trkpt lat="41.68398368844534" lon="13.388996789350852"><ele>250.0</ele><time>2026-03-25T11:25:24Z</time></trkpt><trkpt lat="41.68404055078439" lon="13.389177827138802"><ele>250.0</ele><time>2026-03-25T11:25:25Z</time></trkpt><trkpt lat="41.68408878473087" lon="13.389366714451143"><ele>250.0</ele><time>2026-03-25T11:25:26Z</time></trkpt><trkpt lat="41.684169061707095" lon="13.389540401261446"><ele>250.0</ele><time>2026-03-25T11:25:27Z</time></trkpt><trkpt lat="41.684220591860125" lon="13.38973249466559"><ele>248.75</ele><time>2026-03-25T11:25:28Z</time></trkpt><trkpt lat="41.684250211923136" lon="13.389914678934202"><ele>247.5</ele><time>2026-03-25T11:25:29Z</time></trkpt><trkpt lat="41.68423943412605" lon="13.39009783763706"><ele>246.25</ele><time>2026-03-25T11:25:30Z</time></trkpt><trkpt lat="41.68418888472077" lon="13.390275624492629"><ele>245.0</ele><time>2026-03-25T11:25:31Z</time></trkpt><trkpt lat="41.68417229346313" lon="13.390454331250039"><ele>244.75</ele><time>2026-03-25T11:25:32Z</time></trkpt><trkpt lat="41.6841403840744" lon="13.390631715525277"><ele>244.5</ele><time>2026-03-25T11:25:33Z</time></trkpt><trkpt lat="41.684129761225996" lon="13.39080924706401"><ele>244.25</ele><time>2026-03-25T11:25:34Z</time></trkpt><trkpt lat="41.68412803129463" lon="13.390974886877682"><ele>244.0</ele><time>2026-03-25T11:25:35Z</time></trkpt><trkpt lat="41.68412887196605" lon="13.391141668124003"><ele>244.0</ele><time>2026-03-25T11:25:36Z</time></trkpt><trkpt lat="41.68412556495036" lon="13.391314468535507"><ele>244.0</ele><time>2026-03-25T11:25:37Z</time></trkpt><trkpt lat="41.68414600068979" lon="13.39149102401971"><ele>244.0</ele><time>2026-03-25T11:25:38Z</time></trkpt><trkpt lat="41.684170833453464" lon="13.391670514624096"><ele>244.0</ele><time>2026-03-25T11:25:39Z</time></trkpt><trkpt lat="41.68417726142571" lon="13.391843320924352"><ele>244.5</ele><time>2026-03-25T11:25:40Z</time></trkpt><trkpt lat="41.68420782588869" lon="13.392012106389016"><ele>245.0</ele><time>2026-03-25T11:25:41Z</time></trkpt><trkpt lat="41.684227876448944" lon="13.392189969889728"><ele>245.5</ele><time>2026-03-25T11:25:42Z</time></trkpt><trkpt lat="41.68424105875482" lon="13.392370141145086"><ele>246.0</ele><time>2026-03-25T11:25:43Z</time></trkpt><trkpt lat="41.68425405290689" lon="13.392550644800075"><ele>246.75</ele><time>2026-03-25T11:25:44Z</time></trkpt><trkpt lat="41.684249324004796" lon="13.392716485588284"><ele>247.5</ele><time>2026-03-25T11:25:45Z</time></trkpt><trkpt lat="41.68424005895378" lon="13.392883561116868"><ele>248.25</ele><time>2026-03-25T11:25:46Z</time></trkpt><trkpt lat="41.68422764665856" lon="13.393050062063578"><ele>249.0</ele><time>2026-03-25T11:25:47Z</time></trkpt><trkpt lat="41.684226022090904" lon="13.393210353450652"><ele>249.6</ele><time>2026-03-25T11:25:48Z</time></trkpt><trkpt lat="41.68423221814189" lon="13.39335763751062"><ele>250.2</ele><time>2026-03-25T11:25:49Z</time></trkpt><trkpt lat="41.68424450687935" lon="13.393505242777202"><ele>250.79999999999998</ele><time>2026-03-25T11:25:50Z</time></trkpt><trkpt lat="41.684266112814505" lon="13.39365353088123"><ele>251.39999999999998</ele><time>2026-03-25T11:25:51Z</time></trkpt><trkpt lat="41.68430252029389" lon="13.393795277175116"><ele>252.0</ele><time>2026-03-25T11:25:52Z</time></trkpt><trkpt lat="41.684344730494416" lon="13.393932386399623"><ele>252.0</ele><time>2026-03-25T11:25:53Z</time></trkpt><trkpt lat="41.68438665483525" lon="13.394076300352053"><ele>252.0</ele><time>2026-03-25T11:25:54Z</time></trkpt><trkpt lat="41.684431322857755" lon="13.394234307064117"><ele>252.0</ele><time>2026-03-25T11:25:55Z</time></trkpt><trkpt lat="41.68448940618353" lon="13.394412524235621"><ele>252.0</ele><time>2026-03-25T11:25:56Z</time></trkpt><trkpt lat="41.68454979350279" lon="13.39460259176748"><ele>254.33333333333331</ele><time>2026-03-25T11:25:57Z</time></trkpt><trkpt lat="41.68465516370526" lon="13.394779299821675"><ele>256.66666666666663</ele><time>2026-03-25T11:25:58Z</time></trkpt><trkpt lat="41.68475869955631" lon="13.395003434475598"><ele>259.0</ele><time>2026-03-25T11:25:59Z</time></trkpt><trkpt lat="41.68489334902842" lon="13.395210494964358"><ele>259.0</ele><time>2026-03-25T11:26:00Z</time></trkpt><trkpt lat="41.68501482661675" lon="13.395470117375478"><ele>259.0</ele><time>2026-03-25T11:26:01Z</time></trkpt><trkpt lat="41.68515152061822" lon="13.395735939502904"><ele>258.5</ele><time>2026-03-25T11:26:02Z</time></trkpt><trkpt lat="41.685317785517675" lon="13.395969601213888"><ele>258.0</ele><time>2026-03-25T11:26:03Z</time></trkpt><trkpt lat="41.685471230121784" lon="13.396162264369998"><ele>258.0</ele><time>2026-03-25T11:26:04Z</time></trkpt><trkpt lat="41.685595895409435" lon="13.396333702763418"><ele>258.0</ele><time>2026-03-25T11:26:05Z</time></trkpt><trkpt lat="41.685702712540696" lon="13.396489621207907"><ele>258.0</ele><time>2026-03-25T11:26:06Z</time></trkpt><trkpt lat="41.68581053990382" lon="13.39666016196926"><ele>257.6666666666667</ele><time>2026-03-25T11:26:07Z</time></trkpt><trkpt lat="41.685919415515585" lon="13.396840796926364"><ele>257.33333333333337</ele><time>2026-03-25T11:26:08Z</time></trkpt><trkpt lat="41.686013352483855" lon="13.397008499092177"><ele>257.0</ele><time>2026-03-25T11:26:09Z</time></trkpt><trkpt lat="41.686119775486134" lon="13.397140800180855"><ele>257.5</ele><time>2026-03-25T11:26:10Z</time></trkpt><trkpt lat="41.68624849679047" lon="13.39723464405282"><ele>258.0</ele><time>2026-03-25T11:26:11Z</time></trkpt><trkpt lat="41.686374845806206" lon="13.397294763212049"><ele>258.5</ele><time>2026-03-25T11:26:12Z</time></trkpt><trkpt lat="41.68648310456232" lon="13.397389854048695"><ele>259.0</ele><time>2026-03-25T11:26:13Z</time></trkpt><trkpt lat="41.68656071720534" lon="13.397536599485449"><ele>259.0</ele><time>2026-03-25T11:26:14Z</time></trkpt><trkpt lat="41.686621792894606" lon="13.39770398263463"><ele>259.0</ele><time>2026-03-25T11:26:15Z</time></trkpt><trkpt lat="41.68663611871033" lon="13.397873795932234"><ele>259.0</ele><time>2026-03-25T11:26:16Z</time></trkpt><trkpt lat="41.686608626631035" lon="13.398054978374187"><ele>259.0</ele><time>2026-03-25T11:26:17Z</time></trkpt><trkpt lat="41.68658692570996" lon="13.398242230650457"><ele>259.0</ele><time>2026-03-25T11:26:18Z</time></trkpt><trkpt lat="41.68661881385682" lon="13.398433164790488"><ele>259.0</ele><time>2026-03-25T11:26:19Z</time></trkpt><trkpt lat="41.686682377765194" lon="13.398579378748442"><ele>259.0</ele><time>2026-03-25T11:26:20Z</time></trkpt><trkpt lat="41.68673544585446" lon="13.398694609372846"><ele>259.0</ele><time>2026-03-25T11:26:21Z</time></trkpt><trkpt lat="41.68676289434121" lon="13.398776251561065"><ele>259.0</ele><time>2026-03-25T11:26:22Z</time></trkpt><trkpt lat="41.68677909671342" lon="13.398875472050285"><ele>259.3333333333333</ele><time>2026-03-25T11:26:24Z</time></trkpt><trkpt lat="41.68676385102879" lon="13.398964472079285"><ele>259.66666666666663</ele><time>2026-03-25T11:26:26Z</time></trkpt><trkpt lat="41.686735527458325" lon="13.399053199445168"><ele>260.0</ele><time>2026-03-25T11:26:27Z</time></trkpt><trkpt lat="41.686674885754414" lon="13.399151123536353"><ele>260.3333333333333</ele><time>2026-03-25T11:26:29Z</time></trkpt><trkpt lat="41.68660319974732" lon="13.39921383590576"><ele>260.6666666666667</ele><time>2026-03-25T11:26:31Z</time></trkpt><trkpt lat="41.68653967720226" lon="13.399220720353286"><ele>261.0</ele><time>2026-03-25T11:26:32Z</time></trkpt><trkpt lat="41.686463648739206" lon="13.399178212435894"><ele>261.0</ele><time>2026-03-25T11:26:33Z</time></trkpt><trkpt lat="41.68637411579661" lon="13.399077387902393"><ele>261.0</ele><time>2026-03-25T11:26:34Z</time></trkpt><trkpt lat="41.686236643301555" lon="13.399014978830337"><ele>261.0</ele><time>2026-03-25T11:26:35Z</time></trkpt><trkpt lat="41.686065256466335" lon="13.39901778389375"><ele>261.0</ele><time>2026-03-25T11:26:36Z</time></trkpt><trkpt lat="41.68586163991479" lon="13.399068394202882"><ele>260.0</ele><time>2026-03-25T11:26:37Z</time></trkpt><trkpt lat="41.68563049546108" lon="13.399133973745274"><ele>259.0</ele><time>2026-03-25T11:26:38Z</time></trkpt><trkpt lat="41.68539340011562" lon="13.399130795410992"><ele>258.0</ele><time>2026-03-25T11:26:39Z</time></trkpt><trkpt lat="41.6851851549005" lon="13.399102721274083"><ele>257.0</ele><time>2026-03-25T11:26:39.999Z</time></trkpt><trkpt lat="41.68499740736758" lon="13.399113761184829"><ele>256.0</ele><time>2026-03-25T11:26:40.999Z</time></trkpt><trkpt lat="41.68480373257259" lon="13.399103161959456"><ele>256.0</ele><time>2026-03-25T11:26:41.999Z</time></trkpt><trkpt lat="41.68459830157021" lon="13.399102500784064"><ele>256.0</ele><time>2026-03-25T11:26:42.999Z</time></trkpt><trkpt lat="41.68441605447864" lon="13.399092200956565"><ele>256.0</ele><time>2026-03-25T11:26:43.999Z</time></trkpt><trkpt lat="41.684239559329036" lon="13.399084239240421"><ele>255.33333333333331</ele><time>2026-03-25T11:26:44.999Z</time></trkpt><trkpt lat="41.684064816900666" lon="13.399085777057001"><ele>254.66666666666669</ele><time>2026-03-25T11:26:45.999Z</time></trkpt><trkpt lat="41.68390049834295" lon="13.399112712541413"><ele>254.0</ele><time>2026-03-25T11:26:46.999Z</time></trkpt><trkpt lat="41.68375611662248" lon="13.399154293725163"><ele>254.0</ele><time>2026-03-25T11:26:47.999Z</time></trkpt><trkpt lat="41.68362065648643" lon="13.399207834548653"><ele>254.0</ele><time>2026-03-25T11:26:48.999Z</time></trkpt><trkpt lat="41.68347248311592" lon="13.39923883907643"><ele>254.0</ele><time>2026-03-25T11:26:49.999Z</time></trkpt><trkpt lat="41.683319272733094" lon="13.399266305147743"><ele>254.0</ele><time>2026-03-25T11:26:50.999Z</time></trkpt><trkpt lat="41.68318207773122" lon="13.399282050378861"><ele>253.5</ele><time>2026-03-25T11:26:51.999Z</time></trkpt><trkpt lat="41.683044011587015" lon="13.399276301732396"><ele>253.0</ele><time>2026-03-25T11:26:52.999Z</time></trkpt><trkpt lat="41.682901874141926" lon="13.39925774450899"><ele>252.5</ele><time>2026-03-25T11:26:53.999Z</time></trkpt><trkpt lat="41.68277153987028" lon="13.399219104621288"><ele>252.0</ele><time>2026-03-25T11:26:54.999Z</time></trkpt><trkpt lat="41.682648979718834" lon="13.399174421683442"><ele>251.8</ele><time>2026-03-25T11:26:55.999Z</time></trkpt><trkpt lat="41.68253677795755" lon="13.39912931715396"><ele>251.6</ele><time>2026-03-25T11:26:57Z</time></trkpt><trkpt lat="41.68243201666588" lon="13.399106368179332"><ele>251.40000000000003</ele><time>2026-03-25T11:26:58Z</time></trkpt><trkpt lat="41.68234318441204" lon="13.399106341858374"><ele>251.20000000000002</ele><time>2026-03-25T11:26:59Z</time></trkpt><trkpt lat="41.68225506020338" lon="13.399105056700717"><ele>251.0</ele><time>2026-03-25T11:27:00Z</time></trkpt><trkpt lat="41.68217642770448" lon="13.399108299588276"><ele>251.0</ele><time>2026-03-25T11:27:01Z</time></trkpt><trkpt lat="41.68210601034773" lon="13.399113645602396"><ele>251.00000000000003</ele><time>2026-03-25T11:27:02Z</time></trkpt><trkpt lat="41.682005751230875" lon="13.399119896810001"><ele>251.00000000000003</ele><time>2026-03-25T11:27:04Z</time></trkpt><trkpt lat="41.681935187876505" lon="13.399127895117518"><ele>251.0</ele><time>2026-03-25T11:27:06Z</time></trkpt><trkpt lat="41.6818687243591" lon="13.399134907549875"><ele>251.0</ele><time>2026-03-25T11:27:11Z</time></trkpt><trkpt lat="41.68191019504973" lon="13.399328819411098"><ele>251.0</ele><time>2026-03-25T11:27:12Z</time></trkpt><trkpt lat="41.68200787518305" lon="13.399477073933804"><ele>251.0</ele><time>2026-03-25T11:27:13Z</time></trkpt><trkpt lat="41.68209897824636" lon="13.399643644755729"><ele>251.0</ele><time>2026-03-25T11:27:14Z</time></trkpt><trkpt lat="41.682203469785414" lon="13.399845866276317"><ele>251.66666666666669</ele><time>2026-03-25T11:27:15Z</time></trkpt><trkpt lat="41.682324014979024" lon="13.400083762115305"><ele>252.33333333333331</ele><time>2026-03-25T11:27:16Z</time></trkpt><trkpt lat="41.68245239949383" lon="13.400337553981432"><ele>253.0</ele><time>2026-03-25T11:27:17Z</time></trkpt><trkpt lat="41.68256903304551" lon="13.400586901041867"><ele>254.0</ele><time>2026-03-25T11:27:18Z</time></trkpt><trkpt lat="41.68265093432817" lon="13.4008432570029"><ele>255.0</ele><time>2026-03-25T11:27:19Z</time></trkpt><trkpt lat="41.68269885549422" lon="13.401145688099673"><ele>256.0</ele><time>2026-03-25T11:27:20Z</time></trkpt><trkpt lat="41.68274560806856" lon="13.40147468856522"><ele>257.0</ele><time>2026-03-25T11:27:21Z</time></trkpt><trkpt lat="41.68280174942213" lon="13.40182103913222"><ele>258.0</ele><time>2026-03-25T11:27:22Z</time></trkpt><trkpt lat="41.68286246319283" lon="13.402179513655303"><ele>259.0</ele><time>2026-03-25T11:27:23Z</time></trkpt><trkpt lat="41.68292354381565" lon="13.4025449492359"><ele>260.0</ele><time>2026-03-25T11:27:24Z</time></trkpt><trkpt lat="41.68297512833478" lon="13.40288479997717"><ele>262.0</ele><time>2026-03-25T11:27:25Z</time></trkpt><trkpt lat="41.68303196462478" lon="13.403190351167021"><ele>264.0</ele><time>2026-03-25T11:27:26Z</time></trkpt><trkpt lat="41.68309180897698" lon="13.403471099968353"><ele>264.0</ele><time>2026-03-25T11:27:27Z</time></trkpt><trkpt lat="41.68312363297812" lon="13.40376965672739"><ele>264.0</ele><time>2026-03-25T11:27:28Z</time></trkpt><trkpt lat="41.68310859193571" lon="13.404092630573812"><ele>266.0</ele><time>2026-03-25T11:27:29Z</time></trkpt><trkpt lat="41.68309005249154" lon="13.404437203878022"><ele>268.0</ele><time>2026-03-25T11:27:30Z</time></trkpt><trkpt lat="41.683103734100655" lon="13.404798269535254"><ele>268.5</ele><time>2026-03-25T11:27:31Z</time></trkpt><trkpt lat="41.683134758064895" lon="13.405158987755875"><ele>269.0</ele><time>2026-03-25T11:27:32Z</time></trkpt><trkpt lat="41.68316573892942" lon="13.40550837212695"><ele>270.6666666666667</ele><time>2026-03-25T11:27:33Z</time></trkpt><trkpt lat="41.68319242771443" lon="13.40582137282122"><ele>272.3333333333333</ele><time>2026-03-25T11:27:34Z</time></trkpt><trkpt lat="41.68321672606304" lon="13.406105559498522"><ele>274.0</ele><time>2026-03-25T11:27:35Z</time></trkpt><trkpt lat="41.68323843119053" lon="13.406362191031242"><ele>277.0</ele><time>2026-03-25T11:27:36Z</time></trkpt><trkpt lat="41.68325287338542" lon="13.4065845502931"><ele>280.0</ele><time>2026-03-25T11:27:37Z</time></trkpt><trkpt lat="41.68328072659261" lon="13.40677596288242"><ele>283.0</ele><time>2026-03-25T11:27:38Z</time></trkpt><trkpt lat="41.68335479820866" lon="13.40693704944695"><ele>283.0</ele><time>2026-03-25T11:27:39Z</time></trkpt><trkpt lat="41.68347311488272" lon="13.407087183054804"><ele>283.0</ele><time>2026-03-25T11:27:40Z</time></trkpt><trkpt lat="41.68362274009597" lon="13.407220332278442"><ele>283.0</ele><time>2026-03-25T11:27:41Z</time></trkpt><trkpt lat="41.68377782811609" lon="13.407324102159727"><ele>287.66666666666663</ele><time>2026-03-25T11:27:42Z</time></trkpt><trkpt lat="41.68395825473813" lon="13.407365443650214"><ele>292.3333333333333</ele><time>2026-03-25T11:27:43Z</time></trkpt><trkpt lat="41.68415298539357" lon="13.407375840476199"><ele>297.0</ele><time>2026-03-25T11:27:44Z</time></trkpt><trkpt lat="41.684358972403935" lon="13.407377181414336"><ele>298.0</ele><time>2026-03-25T11:27:45Z</time></trkpt><trkpt lat="41.6845611473986" lon="13.40738592582113"><ele>299.0</ele><time>2026-03-25T11:27:46Z</time></trkpt><trkpt lat="41.684740228866204" lon="13.407391011265064"><ele>300.0</ele><time>2026-03-25T11:27:47Z</time></trkpt><trkpt lat="41.684885782736224" lon="13.407396290895264"><ele>300.0</ele><time>2026-03-25T11:27:48Z</time></trkpt><trkpt lat="41.68500509788879" lon="13.407404815848848"><ele>300.0</ele><time>2026-03-25T11:27:49Z</time></trkpt><trkpt lat="41.68509846694383" lon="13.407419788776005"><ele>300.0</ele><time>2026-03-25T11:27:50Z</time></trkpt><trkpt lat="41.68516076947849" lon="13.407465229410539"><ele>300.0</ele><time>2026-03-25T11:27:51Z</time></trkpt><trkpt lat="41.68518698506359" lon="13.407549961798699"><ele>300.0</ele><time>2026-03-25T11:27:52Z</time></trkpt><trkpt lat="41.6851690742757" lon="13.407652292777504"><ele>300.0</ele><time>2026-03-25T11:27:53Z</time></trkpt><trkpt lat="41.68510661026013" lon="13.407732258269514"><ele>300.0</ele><time>2026-03-25T11:27:54Z</time></trkpt><trkpt lat="41.68498856480861" lon="13.4077380665569"><ele>300.0</ele><time>2026-03-25T11:27:55Z</time></trkpt><trkpt lat="41.68482696647046" lon="13.407780913571452"><ele>300.0</ele><time>2026-03-25T11:27:56Z</time></trkpt><trkpt lat="41.684655490022045" lon="13.40781905832038"><ele>300.0</ele><time>2026-03-25T11:27:57Z</time></trkpt><trkpt lat="41.684472832219306" lon="13.407892191293017"><ele>300.0</ele><time>2026-03-25T11:27:58Z</time></trkpt><trkpt lat="41.68432029904707" lon="13.407951811012936"><ele>300.0</ele><time>2026-03-25T11:27:59Z</time></trkpt><trkpt lat="41.68419016919185" lon="13.407999751842036"><ele>302.0</ele><time>2026-03-25T11:28:00Z</time></trkpt><trkpt lat="41.68409654195309" lon="13.408043331652365"><ele>304.0</ele><time>2026-03-25T11:28:01Z</time></trkpt><trkpt lat="41.684037342978094" lon="13.408104162802042"><ele>306.0</ele><time>2026-03-25T11:28:02Z</time></trkpt><trkpt lat="41.68401227053909" lon="13.408194148530734"><ele>308.0</ele><time>2026-03-25T11:28:03Z</time></trkpt><trkpt lat="41.68403281074182" lon="13.408295986825326"><ele>310.0</ele><time>2026-03-25T11:28:04Z</time></trkpt><trkpt lat="41.68409516358511" lon="13.408364731789698"><ele>312.0</ele><time>2026-03-25T11:28:05Z</time></trkpt><trkpt lat="41.684176563528474" lon="13.408412488153006"><ele>312.0</ele><time>2026-03-25T11:28:06Z</time></trkpt><trkpt lat="41.684305596503755" lon="13.408310104518106"><ele>312.0</ele><time>2026-03-25T11:28:07Z</time></trkpt><trkpt lat="41.68443195034637" lon="13.408216334134888"><ele>312.0</ele><time>2026-03-25T11:28:08Z</time></trkpt><trkpt lat="41.684516325110664" lon="13.4081698989421"><ele>312.0</ele><time>2026-03-25T11:28:09Z</time></trkpt><trkpt lat="41.68460677854771" lon="13.408285511974482"><ele>312.0</ele><time>2026-03-25T11:28:11Z</time></trkpt><trkpt lat="41.684597979487755" lon="13.408389462927822"><ele>312.0</ele><time>2026-03-25T11:28:11.999Z</time></trkpt><trkpt lat="41.68451439820728" lon="13.40846902748225"><ele>312.0</ele><time>2026-03-25T11:28:12.999Z</time></trkpt><trkpt lat="41.684369861248726" lon="13.408491163129632"><ele>312.0</ele><time>2026-03-25T11:28:13.999Z</time></trkpt><trkpt lat="41.68420104193736" lon="13.408583758543527"><ele>312.0</ele><time>2026-03-25T11:28:14.999Z</time></trkpt><trkpt lat="41.684043892604585" lon="13.408692324471705"><ele>312.0</ele><time>2026-03-25T11:28:15.999Z</time></trkpt><trkpt lat="41.6839055244678" lon="13.408893721740203"><ele>312.0</ele><time>2026-03-25T11:28:16.999Z</time></trkpt><trkpt lat="41.68374507039384" lon="13.409119677475699"><ele>321.5</ele><time>2026-03-25T11:28:17.999Z</time></trkpt><trkpt lat="41.68358763239102" lon="13.409334069352637"><ele>331.0</ele><time>2026-03-25T11:28:18.999Z</time></trkpt><trkpt lat="41.68342020228393" lon="13.409537685985368"><ele>334.66666666666663</ele><time>2026-03-25T11:28:19.999Z</time></trkpt><trkpt lat="41.68327533410978" lon="13.409719988975239"><ele>338.3333333333333</ele><time>2026-03-25T11:28:20.999Z</time></trkpt><trkpt lat="41.68316298289571" lon="13.409892965610544"><ele>342.0</ele><time>2026-03-25T11:28:21.999Z</time></trkpt><trkpt lat="41.683102572582634" lon="13.410069022727928"><ele>342.0</ele><time>2026-03-25T11:28:22.999Z</time></trkpt><trkpt lat="41.68308198860031" lon="13.410283433058751"><ele>342.0</ele><time>2026-03-25T11:28:23.999Z</time></trkpt><trkpt lat="41.68311590326124" lon="13.410526222604535"><ele>342.0</ele><time>2026-03-25T11:28:24.999Z</time></trkpt><trkpt lat="41.68320603516326" lon="13.410762719172194"><ele>343.0</ele><time>2026-03-25T11:28:25.999Z</time></trkpt><trkpt lat="41.6833162100891" lon="13.410993904741327"><ele>344.0</ele><time>2026-03-25T11:28:26.999Z</time></trkpt><trkpt lat="41.68339613406636" lon="13.411249943869567"><ele>345.0</ele><time>2026-03-25T11:28:27.999Z</time></trkpt><trkpt lat="41.6834463422126" lon="13.411533302125"><ele>346.3333333333333</ele><time>2026-03-25T11:28:28.999Z</time></trkpt><trkpt lat="41.68349680223449" lon="13.411806381480307"><ele>347.66666666666663</ele><time>2026-03-25T11:28:29.999Z</time></trkpt><trkpt lat="41.683556322561614" lon="13.412019818170016"><ele>349.0</ele><time>2026-03-25T11:28:30.999Z</time></trkpt><trkpt lat="41.6836146899064" lon="13.412203834836422"><ele>353.25</ele><time>2026-03-25T11:28:31.999Z</time></trkpt><trkpt lat="41.68367461934488" lon="13.41236789824347"><ele>357.5</ele><time>2026-03-25T11:28:32.999Z</time></trkpt><trkpt lat="41.683713667625796" lon="13.412514025050498"><ele>361.75</ele><time>2026-03-25T11:28:33.999Z</time></trkpt><trkpt lat="41.68373696950259" lon="13.412665486404803"><ele>366.0</ele><time>2026-03-25T11:28:34.999Z</time></trkpt><trkpt lat="41.68371428428497" lon="13.412813980838004"><ele>366.0</ele><time>2026-03-25T11:28:35.999Z</time></trkpt><trkpt lat="41.68364966523123" lon="13.412967331288963"><ele>366.0</ele><time>2026-03-25T11:28:36.999Z</time></trkpt><trkpt lat="41.68356594888598" lon="13.413100716130465"><ele>366.0</ele><time>2026-03-25T11:28:37.999Z</time></trkpt><trkpt lat="41.68348377133485" lon="13.413212012577963"><ele>366.0</ele><time>2026-03-25T11:28:38.999Z</time></trkpt><trkpt lat="41.68339474429871" lon="13.413307934219665"><ele>366.75</ele><time>2026-03-25T11:28:39.999Z</time></trkpt><trkpt lat="41.68328614120176" lon="13.413395720562924"><ele>367.5</ele><time>2026-03-25T11:28:40.999Z</time></trkpt><trkpt lat="41.68314141169112" lon="13.413449611393267"><ele>368.25</ele><time>2026-03-25T11:28:41.999Z</time></trkpt><trkpt lat="41.682978341777115" lon="13.413521177581885"><ele>369.0</ele><time>2026-03-25T11:28:42.999Z</time></trkpt><trkpt lat="41.682799237424234" lon="13.413597355577501"><ele>368.6666666666667</ele><time>2026-03-25T11:28:43.999Z</time></trkpt><trkpt lat="41.682606798715696" lon="13.413694659866968"><ele>368.33333333333337</ele><time>2026-03-25T11:28:44.999Z</time></trkpt><trkpt lat="41.682393749165456" lon="13.413780187368374"><ele>368.0</ele><time>2026-03-25T11:28:45.999Z</time></trkpt><trkpt lat="41.682183173943294" lon="13.413869168966773"><ele>373.0</ele><time>2026-03-25T11:28:46.999Z</time></trkpt><trkpt lat="41.68196404958352" lon="13.41396211765715"><ele>378.0</ele><time>2026-03-25T11:28:47.999Z</time></trkpt><trkpt lat="41.6817496914141" lon="13.414051127917427"><ele>378.0</ele><time>2026-03-25T11:28:48.999Z</time></trkpt><trkpt lat="41.68156998122721" lon="13.414110741719236"><ele>378.0</ele><time>2026-03-25T11:28:49.999Z</time></trkpt><trkpt lat="41.681390270997596" lon="13.41414960421935"><ele>378.0</ele><time>2026-03-25T11:28:50.999Z</time></trkpt><trkpt lat="41.681195658457376" lon="13.414132506701817"><ele>379.6666666666667</ele><time>2026-03-25T11:28:51.999Z</time></trkpt><trkpt lat="41.68098846787936" lon="13.41411266729607"><ele>381.33333333333337</ele><time>2026-03-25T11:28:52.999Z</time></trkpt><trkpt lat="41.6807852325231" lon="13.41410348954504"><ele>383.0</ele><time>2026-03-25T11:28:53.999Z</time></trkpt><trkpt lat="41.68058685897883" lon="13.414047851016264"><ele>383.0</ele><time>2026-03-25T11:28:54.999Z</time></trkpt><trkpt lat="41.680388791986" lon="13.413981392987884"><ele>383.0</ele><time>2026-03-25T11:28:55.999Z</time></trkpt><trkpt lat="41.68019773191453" lon="13.41390570444763"><ele>383.0</ele><time>2026-03-25T11:28:56.999Z</time></trkpt><trkpt lat="41.680027089541355" lon="13.413828653354974"><ele>383.0</ele><time>2026-03-25T11:28:57.999Z</time></trkpt><trkpt lat="41.6798836395818" lon="13.413755266090863"><ele>383.0</ele><time>2026-03-25T11:28:58.999Z</time></trkpt><trkpt lat="41.67977099834714" lon="13.413692345652406"><ele>383.0</ele><time>2026-03-25T11:28:59.999Z</time></trkpt><trkpt lat="41.67967167128389" lon="13.413661726402903"><ele>383.0</ele><time>2026-03-25T11:29:00.999Z</time></trkpt><trkpt lat="41.67956908908214" lon="13.41368174129261"><ele>383.0</ele><time>2026-03-25T11:29:01.999Z</time></trkpt><trkpt lat="41.67948941320558" lon="13.413773657517666"><ele>383.0</ele><time>2026-03-25T11:29:03Z</time></trkpt><trkpt lat="41.67945071089922" lon="13.413920879100788"><ele>383.0</ele><time>2026-03-25T11:29:04Z</time></trkpt><trkpt lat="41.67946590044589" lon="13.414092637729585"><ele>383.0</ele><time>2026-03-25T11:29:05Z</time></trkpt><trkpt lat="41.67953244993982" lon="13.414285517785562"><ele>386.0</ele><time>2026-03-25T11:29:06Z</time></trkpt><trkpt lat="41.67962757475567" lon="13.414497217554537"><ele>389.0</ele><time>2026-03-25T11:29:07Z</time></trkpt><trkpt lat="41.67973167472913" lon="13.41469216036755"><ele>392.0</ele><time>2026-03-25T11:29:08Z</time></trkpt><trkpt lat="41.679869996509794" lon="13.414874668644858"><ele>393.5</ele><time>2026-03-25T11:29:09Z</time></trkpt><trkpt lat="41.6800630487877" lon="13.41505524713617"><ele>395.0</ele><time>2026-03-25T11:29:10Z</time></trkpt><trkpt lat="41.680274383083564" lon="13.415248012557813"><ele>395.0</ele><time>2026-03-25T11:29:11Z</time></trkpt><trkpt lat="41.680485706372636" lon="13.415459261001141"><ele>395.0</ele><time>2026-03-25T11:29:12Z</time></trkpt><trkpt lat="41.68071268240679" lon="13.415686295030195"><ele>402.5</ele><time>2026-03-25T11:29:13Z</time></trkpt><trkpt lat="41.680909379094636" lon="13.415885854681749"><ele>410.0</ele><time>2026-03-25T11:29:14Z</time></trkpt><trkpt lat="41.68108647074965" lon="13.416062541236165"><ele>411.3333333333333</ele><time>2026-03-25T11:29:15Z</time></trkpt><trkpt lat="41.68124873159192" lon="13.416224683720078"><ele>412.66666666666663</ele><time>2026-03-25T11:29:16Z</time></trkpt><trkpt lat="41.68139483643736" lon="13.41636978766505"><ele>414.0</ele><time>2026-03-25T11:29:17Z</time></trkpt><trkpt lat="41.68151575793603" lon="13.41649192121166"><ele>414.0</ele><time>2026-03-25T11:29:18Z</time></trkpt><trkpt lat="41.68161491330556" lon="13.416594582464416"><ele>414.0</ele><time>2026-03-25T11:29:19Z</time></trkpt><trkpt lat="41.681698896840516" lon="13.41668498511433"><ele>414.0</ele><time>2026-03-25T11:29:20Z</time></trkpt><trkpt lat="41.681752588665425" lon="13.416753053920921"><ele>414.0</ele><time>2026-03-25T11:29:21Z</time></trkpt><trkpt lat="41.68179389777165" lon="13.41683977553373"><ele>414.0</ele><time>2026-03-25T11:29:23Z</time></trkpt><trkpt lat="41.68184964686913" lon="13.416922814911276"><ele>414.25</ele><time>2026-03-25T11:29:29Z</time></trkpt><trkpt lat="41.68195365341762" lon="13.416975846073784"><ele>414.5</ele><time>2026-03-25T11:29:30Z</time></trkpt><trkpt lat="41.68206388709389" lon="13.417020060795751"><ele>414.75</ele><time>2026-03-25T11:29:31Z</time></trkpt><trkpt lat="41.68219896158964" lon="13.417082645548579"><ele>415.0</ele><time>2026-03-25T11:29:32Z</time></trkpt><trkpt lat="41.68233857290871" lon="13.41717600264409"><ele>415.0</ele><time>2026-03-25T11:29:33Z</time></trkpt><trkpt lat="41.682496112274464" lon="13.417273255897594"><ele>415.0</ele><time>2026-03-25T11:29:34Z</time></trkpt><trkpt lat="41.68268601912378" lon="13.417386420597435"><ele>415.0</ele><time>2026-03-25T11:29:35Z</time></trkpt><trkpt lat="41.682886980293304" lon="13.41749080002112"><ele>419.6666666666667</ele><time>2026-03-25T11:29:36Z</time></trkpt><trkpt lat="41.68309741227437" lon="13.417550095444794"><ele>424.33333333333337</ele><time>2026-03-25T11:29:37Z</time></trkpt><trkpt lat="41.68328701290331" lon="13.417605370678348"><ele>429.0</ele><time>2026-03-25T11:29:38Z</time></trkpt><trkpt lat="41.683439980060506" lon="13.417683968015343"><ele>429.0</ele><time>2026-03-25T11:29:39Z</time></trkpt><trkpt lat="41.68357966958154" lon="13.41780692470474"><ele>429.0</ele><time>2026-03-25T11:29:40Z</time></trkpt><trkpt lat="41.68369464324778" lon="13.417977019495625"><ele>429.0</ele><time>2026-03-25T11:29:41Z</time></trkpt><trkpt lat="41.683774537196115" lon="13.41820504874318"><ele>431.0</ele><time>2026-03-25T11:29:42Z</time></trkpt><trkpt lat="41.68384516510605" lon="13.418449556527799"><ele>433.0</ele><time>2026-03-25T11:29:43Z</time></trkpt><trkpt lat="41.68390949554704" lon="13.418658737857365"><ele>435.0</ele><time>2026-03-25T11:29:44Z</time></trkpt><trkpt lat="41.683989651634015" lon="13.418831302232254"><ele>435.0</ele><time>2026-03-25T11:29:45Z</time></trkpt><trkpt lat="41.68409255781827" lon="13.41899201775647"><ele>435.0</ele><time>2026-03-25T11:29:46Z</time></trkpt><trkpt lat="41.68420908332453" lon="13.419134468373743"><ele>435.0</ele><time>2026-03-25T11:29:47Z</time></trkpt><trkpt lat="41.68435699240898" lon="13.419262854558335"><ele>438.0</ele><time>2026-03-25T11:29:48Z</time></trkpt><trkpt lat="41.68454115378417" lon="13.419416810513088"><ele>441.0</ele><time>2026-03-25T11:29:49Z</time></trkpt><trkpt lat="41.68470651678301" lon="13.419606741029384"><ele>444.0</ele><time>2026-03-25T11:29:50Z</time></trkpt><trkpt lat="41.684826044442495" lon="13.419804440238252"><ele>444.0</ele><time>2026-03-25T11:29:51Z</time></trkpt><trkpt lat="41.68490961784183" lon="13.420063142016206"><ele>444.0</ele><time>2026-03-25T11:29:52Z</time></trkpt><trkpt lat="41.68496636061368" lon="13.420367956999975"><ele>444.0</ele><time>2026-03-25T11:29:53Z</time></trkpt><trkpt lat="41.68499403480112" lon="13.420681277526617"><ele>444.66666666666663</ele><time>2026-03-25T11:29:54Z</time></trkpt><trkpt lat="41.684994581288045" lon="13.42095037745055"><ele>445.3333333333333</ele><time>2026-03-25T11:29:55Z</time></trkpt><trkpt lat="41.68495926374072" lon="13.421161879545249"><ele>446.0</ele><time>2026-03-25T11:29:56Z</time></trkpt><trkpt lat="41.68494258986072" lon="13.421339735096227"><ele>447.4</ele><time>2026-03-25T11:29:57Z</time></trkpt><trkpt lat="41.68493833506124" lon="13.421495996358779"><ele>448.8</ele><time>2026-03-25T11:29:58Z</time></trkpt><trkpt lat="41.68492515507767" lon="13.421635682877548"><ele>450.19999999999993</ele><time>2026-03-25T11:29:59Z</time></trkpt><trkpt lat="41.68492042654149" lon="13.421757720235709"><ele>451.59999999999997</ele><time>2026-03-25T11:30:00Z</time></trkpt><trkpt lat="41.68492179833643" lon="13.421894418346609"><ele>453.0</ele><time>2026-03-25T11:30:01Z</time></trkpt><trkpt lat="41.684933827259634" lon="13.422029055758927"><ele>453.4</ele><time>2026-03-25T11:30:02Z</time></trkpt><trkpt lat="41.684959524423114" lon="13.422164695351555"><ele>453.79999999999995</ele><time>2026-03-25T11:30:03Z</time></trkpt><trkpt lat="41.684982954642315" lon="13.422292173440844"><ele>454.2</ele><time>2026-03-25T11:30:04Z</time></trkpt><trkpt lat="41.685012060058305" lon="13.42240657749132"><ele>454.6</ele><time>2026-03-25T11:30:05Z</time></trkpt><trkpt lat="41.68504491141186" lon="13.422516069643196"><ele>455.0</ele><time>2026-03-25T11:30:05.999Z</time></trkpt><trkpt lat="41.68509015459635" lon="13.422615280630747"><ele>455.0</ele><time>2026-03-25T11:30:06.999Z</time></trkpt><trkpt lat="41.68515607141398" lon="13.422695050545546"><ele>455.0</ele><time>2026-03-25T11:30:07.999Z</time></trkpt><trkpt lat="41.68523254537939" lon="13.42275715314693"><ele>455.0</ele><time>2026-03-25T11:30:08.999Z</time></trkpt><trkpt lat="41.68531964549105" lon="13.422802949624444"><ele>455.0</ele><time>2026-03-25T11:30:09.999Z</time></trkpt><trkpt lat="41.68544042203266" lon="13.422822569974366"><ele>455.0</ele><time>2026-03-25T11:30:10.999Z</time></trkpt><trkpt lat="41.68559507540122" lon="13.422826317481377"><ele>457.66666666666663</ele><time>2026-03-25T11:30:11.999Z</time></trkpt><trkpt lat="41.685762637927134" lon="13.422841040124261"><ele>460.33333333333337</ele><time>2026-03-25T11:30:12.999Z</time></trkpt><trkpt lat="41.68593612567014" lon="13.422854361702003"><ele>463.0</ele><time>2026-03-25T11:30:13.999Z</time></trkpt><trkpt lat="41.68611603784646" lon="13.422874448313035"><ele>465.0</ele><time>2026-03-25T11:30:14.999Z</time></trkpt><trkpt lat="41.6863061272251" lon="13.422887980087301"><ele>467.0</ele><time>2026-03-25T11:30:15.999Z</time></trkpt><trkpt lat="41.686514985688646" lon="13.422893148177902"><ele>469.0</ele><time>2026-03-25T11:30:16.999Z</time></trkpt><trkpt lat="41.68676453624038" lon="13.422916320650184"><ele>470.0</ele><time>2026-03-25T11:30:17.999Z</time></trkpt><trkpt lat="41.68704677756408" lon="13.422876435152574"><ele>471.0</ele><time>2026-03-25T11:30:18.999Z</time></trkpt><trkpt lat="41.68733612736607" lon="13.422797045431881"><ele>471.0</ele><time>2026-03-25T11:30:19.999Z</time></trkpt><trkpt lat="41.68762962096858" lon="13.422707289851852"><ele>471.0</ele><time>2026-03-25T11:30:20.999Z</time></trkpt><trkpt lat="41.6878796402733" lon="13.422629896362992"><ele>471.0</ele><time>2026-03-25T11:30:21.999Z</time></trkpt><trkpt lat="41.68810626993184" lon="13.422549726579925"><ele>471.0</ele><time>2026-03-25T11:30:22.999Z</time></trkpt><trkpt lat="41.68831168900175" lon="13.4224667290943"><ele>471.0</ele><time>2026-03-25T11:30:23.999Z</time></trkpt><trkpt lat="41.68850096219569" lon="13.422407893953872"><ele>472.0</ele><time>2026-03-25T11:30:24.999Z</time></trkpt><trkpt lat="41.68867523525486" lon="13.422390816793936"><ele>473.0</ele><time>2026-03-25T11:30:25.999Z</time></trkpt><trkpt lat="41.68882476302536" lon="13.422391093273474"><ele>474.0</ele><time>2026-03-25T11:30:26.999Z</time></trkpt><trkpt lat="41.68895831888323" lon="13.42238157597691"><ele>474.0</ele><time>2026-03-25T11:30:27.999Z</time></trkpt><trkpt lat="41.689073513853124" lon="13.422348162637963"><ele>474.0</ele><time>2026-03-25T11:30:28.999Z</time></trkpt><trkpt lat="41.689171559699176" lon="13.42231495254109"><ele>474.0</ele><time>2026-03-25T11:30:29.999Z</time></trkpt><trkpt lat="41.68927583536717" lon="13.422308765963795"><ele>474.0</ele><time>2026-03-25T11:30:30.999Z</time></trkpt><trkpt lat="41.68940888955107" lon="13.422323980894856"><ele>474.75</ele><time>2026-03-25T11:30:31.999Z</time></trkpt><trkpt lat="41.68955491445107" lon="13.422352838276408"><ele>475.5</ele><time>2026-03-25T11:30:32.999Z</time></trkpt><trkpt lat="41.68967922035705" lon="13.422385168190917"><ele>476.25</ele><time>2026-03-25T11:30:33.999Z</time></trkpt><trkpt lat="41.68979464089776" lon="13.422424319819402"><ele>477.0</ele><time>2026-03-25T11:30:34.999Z</time></trkpt><trkpt lat="41.689894483525215" lon="13.422483890395283"><ele>477.0</ele><time>2026-03-25T11:30:35.999Z</time></trkpt><trkpt lat="41.68998402938738" lon="13.422585684825421"><ele>477.0</ele><time>2026-03-25T11:30:36.999Z</time></trkpt><trkpt lat="41.69005388748179" lon="13.422741555179556"><ele>477.0</ele><time>2026-03-25T11:30:37.999Z</time></trkpt><trkpt lat="41.69012771810022" lon="13.422914799481212"><ele>477.0</ele><time>2026-03-25T11:30:38.999Z</time></trkpt><trkpt lat="41.69024284019246" lon="13.423061753608094"><ele>478.0</ele><time>2026-03-25T11:30:39.999Z</time></trkpt><trkpt lat="41.6903878715206" lon="13.423171457035991"><ele>479.0</ele><time>2026-03-25T11:30:40.999Z</time></trkpt><trkpt lat="41.69054265440137" lon="13.423279065067815"><ele>480.0</ele><time>2026-03-25T11:30:41.999Z</time></trkpt><trkpt lat="41.69068115310772" lon="13.423420539648154"><ele>480.0</ele><time>2026-03-25T11:30:42.999Z</time></trkpt><trkpt lat="41.690819046837476" lon="13.423582994630525"><ele>480.0</ele><time>2026-03-25T11:30:43.999Z</time></trkpt><trkpt lat="41.690947298534944" lon="13.423753051000498"><ele>480.0</ele><time>2026-03-25T11:30:44.999Z</time></trkpt><trkpt lat="41.691057341546305" lon="13.423906704192216"><ele>479.0</ele><time>2026-03-25T11:30:45.999Z</time></trkpt><trkpt lat="41.691171291489184" lon="13.42404656606232"><ele>478.0</ele><time>2026-03-25T11:30:46.999Z</time></trkpt><trkpt lat="41.691304635474026" lon="13.42417721737199"><ele>477.0</ele><time>2026-03-25T11:30:47.999Z</time></trkpt><trkpt lat="41.69145885522152" lon="13.424289489853052"><ele>477.0</ele><time>2026-03-25T11:30:48.999Z</time></trkpt><trkpt lat="41.69163366485716" lon="13.42437633738678"><ele>477.0</ele><time>2026-03-25T11:30:49.999Z</time></trkpt><trkpt lat="41.69180096199405" lon="13.424446637847677"><ele>477.0</ele><time>2026-03-25T11:30:50.999Z</time></trkpt><trkpt lat="41.69194406584425" lon="13.42452161791578"><ele>479.33333333333337</ele><time>2026-03-25T11:30:51.999Z</time></trkpt><trkpt lat="41.692073825438904" lon="13.424616572069658"><ele>481.6666666666667</ele><time>2026-03-25T11:30:52.999Z</time></trkpt><trkpt lat="41.692203324297225" lon="13.42473502714192"><ele>484.0</ele><time>2026-03-25T11:30:53.999Z</time></trkpt><trkpt lat="41.6923183470031" lon="13.424897459725013"><ele>478.33333333333337</ele><time>2026-03-25T11:30:54.999Z</time></trkpt><trkpt lat="41.69244019540402" lon="13.425063050278093"><ele>472.66666666666663</ele><time>2026-03-25T11:30:55.999Z</time></trkpt><trkpt lat="41.69257819998096" lon="13.42522638670296"><ele>467.0</ele><time>2026-03-25T11:30:56.999Z</time></trkpt><trkpt lat="41.692700949835164" lon="13.425410413229786"><ele>465.3333333333333</ele><time>2026-03-25T11:30:57.999Z</time></trkpt><trkpt lat="41.69282301980634" lon="13.425582496873599"><ele>463.66666666666663</ele><time>2026-03-25T11:30:58.999Z</time></trkpt><trkpt lat="41.692931405955065" lon="13.425757817204373"><ele>462.0</ele><time>2026-03-25T11:30:59.999Z</time></trkpt><trkpt lat="41.69302558613231" lon="13.425931473663775"><ele>462.0</ele><time>2026-03-25T11:31:00.999Z</time></trkpt><trkpt lat="41.69310841820648" lon="13.426102722097383"><ele>462.0</ele><time>2026-03-25T11:31:01.999Z</time></trkpt><trkpt lat="41.69317603267334" lon="13.426260890256264"><ele>462.0</ele><time>2026-03-25T11:31:02.999Z</time></trkpt><trkpt lat="41.69323895921877" lon="13.426396565314066"><ele>462.0</ele><time>2026-03-25T11:31:03.999Z</time></trkpt><trkpt lat="41.693307468958096" lon="13.426513488266947"><ele>459.25</ele><time>2026-03-25T11:31:04.999Z</time></trkpt><trkpt lat="41.69338160842742" lon="13.426612408713371"><ele>456.5</ele><time>2026-03-25T11:31:05.999Z</time></trkpt><trkpt lat="41.693468317434736" lon="13.426694879395884"><ele>453.75</ele><time>2026-03-25T11:31:06.999Z</time></trkpt><trkpt lat="41.69359006788419" lon="13.426755043072145"><ele>451.0</ele><time>2026-03-25T11:31:07.999Z</time></trkpt><trkpt lat="41.693731124454175" lon="13.426813622579811"><ele>451.0</ele><time>2026-03-25T11:31:09Z</time></trkpt><trkpt lat="41.69387979778877" lon="13.426887151452355"><ele>451.0</ele><time>2026-03-25T11:31:10Z</time></trkpt><trkpt lat="41.69403334492666" lon="13.42700361661796"><ele>451.0</ele><time>2026-03-25T11:31:11Z</time></trkpt><trkpt lat="41.69421123214751" lon="13.427133855575548"><ele>449.0</ele><time>2026-03-25T11:31:12Z</time></trkpt><trkpt lat="41.694397965356764" lon="13.427250897949447"><ele>447.0</ele><time>2026-03-25T11:31:13Z</time></trkpt><trkpt lat="41.694557632357764" lon="13.427378808335773"><ele>445.0</ele><time>2026-03-25T11:31:14Z</time></trkpt><trkpt lat="41.69471060277689" lon="13.427490868766702"><ele>445.0</ele><time>2026-03-25T11:31:15Z</time></trkpt><trkpt lat="41.69484745129456" lon="13.427599809107928"><ele>445.0</ele><time>2026-03-25T11:31:16Z</time></trkpt><trkpt lat="41.69498420573654" lon="13.427711646410245"><ele>445.0</ele><time>2026-03-25T11:31:17Z</time></trkpt><trkpt lat="41.69512220432911" lon="13.427817094719737"><ele>445.6666666666667</ele><time>2026-03-25T11:31:18Z</time></trkpt><trkpt lat="41.69525949901444" lon="13.427911179171678"><ele>446.33333333333337</ele><time>2026-03-25T11:31:19Z</time></trkpt><trkpt lat="41.69540056726541" lon="13.427988260496171"><ele>447.0</ele><time>2026-03-25T11:31:20Z</time></trkpt><trkpt lat="41.69553915480475" lon="13.428056692781986"><ele>447.0</ele><time>2026-03-25T11:31:21Z</time></trkpt><trkpt lat="41.69568050403169" lon="13.428106305653301"><ele>447.0</ele><time>2026-03-25T11:31:22Z</time></trkpt><trkpt lat="41.69585531441334" lon="13.428107010958886"><ele>447.0</ele><time>2026-03-25T11:31:23Z</time></trkpt><trkpt lat="41.69606787265121" lon="13.428080161057512"><ele>447.0</ele><time>2026-03-25T11:31:24Z</time></trkpt><trkpt lat="41.696279242201406" lon="13.428084249165739"><ele>447.0</ele><time>2026-03-25T11:31:25Z</time></trkpt><trkpt lat="41.69647548835448" lon="13.428100780389812"><ele>447.0</ele><time>2026-03-25T11:31:26Z</time></trkpt><trkpt lat="41.69665391769582" lon="13.428124687292765"><ele>447.0</ele><time>2026-03-25T11:31:27Z</time></trkpt><trkpt lat="41.696818980529734" lon="13.428136054310556"><ele>447.0</ele><time>2026-03-25T11:31:28Z</time></trkpt><trkpt lat="41.69699115741384" lon="13.428110513690362"><ele>447.0</ele><time>2026-03-25T11:31:29Z</time></trkpt><trkpt lat="41.69715973357273" lon="13.428039683069658"><ele>448.0</ele><time>2026-03-25T11:31:30Z</time></trkpt><trkpt lat="41.697302120826166" lon="13.427973604855229"><ele>449.0</ele><time>2026-03-25T11:31:31Z</time></trkpt><trkpt lat="41.69743245487927" lon="13.427895120982667"><ele>450.0</ele><time>2026-03-25T11:31:32Z</time></trkpt><trkpt lat="41.69756865247284" lon="13.427813346042747"><ele>451.0</ele><time>2026-03-25T11:31:33Z</time></trkpt><trkpt lat="41.69770582175395" lon="13.427729393200448"><ele>451.75</ele><time>2026-03-25T11:31:34Z</time></trkpt><trkpt lat="41.6978292832447" lon="13.427621221753373"><ele>452.5</ele><time>2026-03-25T11:31:35Z</time></trkpt><trkpt lat="41.6979308374965" lon="13.427499175635978"><ele>453.25</ele><time>2026-03-25T11:31:36Z</time></trkpt><trkpt lat="41.69803451321994" lon="13.427380756782085"><ele>454.0</ele><time>2026-03-25T11:31:37Z</time></trkpt><trkpt lat="41.698153171172855" lon="13.427284660551429"><ele>454.0</ele><time>2026-03-25T11:31:38Z</time></trkpt><trkpt lat="41.698274625266656" lon="13.427206599671921"><ele>454.0</ele><time>2026-03-25T11:31:39Z</time></trkpt><trkpt lat="41.69838160538428" lon="13.427154235529393"><ele>454.0</ele><time>2026-03-25T11:31:40Z</time></trkpt><trkpt lat="41.69847667641022" lon="13.427102754163279"><ele>454.0</ele><time>2026-03-25T11:31:41Z</time></trkpt><trkpt lat="41.69857533853584" lon="13.427048346018957"><ele>455.79999999999995</ele><time>2026-03-25T11:31:42Z</time></trkpt><trkpt lat="41.698669103458485" lon="13.427020157938811"><ele>457.59999999999997</ele><time>2026-03-25T11:31:43Z</time></trkpt><trkpt lat="41.69876241494614" lon="13.427027262541138"><ele>459.4</ele><time>2026-03-25T11:31:44Z</time></trkpt><trkpt lat="41.6988615265709" lon="13.427059035313162"><ele>461.2</ele><time>2026-03-25T11:31:45Z</time></trkpt><trkpt lat="41.69896398441724" lon="13.427067533675174"><ele>463.0</ele><time>2026-03-25T11:31:46Z</time></trkpt><trkpt lat="41.69907130353696" lon="13.427038527929868"><ele>463.0</ele><time>2026-03-25T11:31:47Z</time></trkpt><trkpt lat="41.699176311540896" lon="13.426989222247272"><ele>462.99999999999994</ele><time>2026-03-25T11:31:48Z</time></trkpt><trkpt lat="41.69927433025176" lon="13.426935795678066"><ele>462.99999999999994</ele><time>2026-03-25T11:31:49Z</time></trkpt><trkpt lat="41.699357074865574" lon="13.426891952715396"><ele>463.0</ele><time>2026-03-25T11:31:50Z</time></trkpt><trkpt lat="41.69943532695333" lon="13.42685408965212"><ele>463.0</ele><time>2026-03-25T11:31:51Z</time></trkpt><trkpt lat="41.699517511882846" lon="13.426838261304507"><ele>463.0</ele><time>2026-03-25T11:31:52Z</time></trkpt><trkpt lat="41.69957483260028" lon="13.42680083048491"><ele>463.0</ele><time>2026-03-25T11:31:53Z</time></trkpt><trkpt lat="41.69965700343514" lon="13.426988162344548"><ele>463.0</ele><time>2026-03-25T11:31:54Z</time></trkpt><trkpt lat="41.69968966461705" lon="13.42710535588892"><ele>463.0</ele><time>2026-03-25T11:31:55Z</time></trkpt><trkpt lat="41.69973654823228" lon="13.42726801559357"><ele>463.0</ele><time>2026-03-25T11:31:55.999Z</time></trkpt><trkpt lat="41.699797038734054" lon="13.427488701694083"><ele>463.0</ele><time>2026-03-25T11:31:56.999Z</time></trkpt><trkpt lat="41.69988398859242" lon="13.427710763233652"><ele>463.0</ele><time>2026-03-25T11:31:57.999Z</time></trkpt><trkpt lat="41.69993181432681" lon="13.427956479805493"><ele>464.6666666666667</ele><time>2026-03-25T11:31:58.999Z</time></trkpt><trkpt lat="41.69995892116449" lon="13.428208006915556"><ele>466.33333333333337</ele><time>2026-03-25T11:31:59.999Z</time></trkpt><trkpt lat="41.69998818479873" lon="13.428443706724963"><ele>468.0</ele><time>2026-03-25T11:32:00.999Z</time></trkpt><trkpt lat="41.700018624510456" lon="13.428649074196288"><ele>469.75</ele><time>2026-03-25T11:32:01.999Z</time></trkpt><trkpt lat="41.70004160949855" lon="13.428827620244181"><ele>471.5</ele><time>2026-03-25T11:32:02.999Z</time></trkpt><trkpt lat="41.70005187143629" lon="13.429001325255241"><ele>473.25</ele><time>2026-03-25T11:32:03.999Z</time></trkpt><trkpt lat="41.70004541229248" lon="13.429164490094509"><ele>475.0</ele><time>2026-03-25T11:32:04.999Z</time></trkpt><trkpt lat="41.700062329925174" lon="13.429303773501877"><ele>475.00000000000006</ele><time>2026-03-25T11:32:05.999Z</time></trkpt><trkpt lat="41.70009248128653" lon="13.429412166417196"><ele>475.0</ele><time>2026-03-25T11:32:06.999Z</time></trkpt><trkpt lat="41.70010346018875" lon="13.429506448164457"><ele>475.0</ele><time>2026-03-25T11:32:07.999Z</time></trkpt><trkpt lat="41.70011556281626" lon="13.429652465039162"><ele>475.0</ele><time>2026-03-25T11:32:09.999Z</time></trkpt><trkpt lat="41.700115581596535" lon="13.429751080229021"><ele>475.00000000000006</ele><time>2026-03-25T11:32:11.999Z</time></trkpt><trkpt lat="41.700103242422955" lon="13.429855183351462"><ele>475.0</ele><time>2026-03-25T11:32:12.999Z</time></trkpt><trkpt lat="41.70008055867715" lon="13.430004105984395"><ele>475.0</ele><time>2026-03-25T11:32:13.999Z</time></trkpt><trkpt lat="41.70006767774388" lon="13.430185099217976"><ele>475.0</ele><time>2026-03-25T11:32:14.999Z</time></trkpt><trkpt lat="41.7000605822116" lon="13.430381968902841"><ele>475.0</ele><time>2026-03-25T11:32:15.999Z</time></trkpt><trkpt lat="41.7000589031691" lon="13.430594935321372"><ele>475.0</ele><time>2026-03-25T11:32:16.999Z</time></trkpt><trkpt lat="41.700067309927086" lon="13.430823581699691"><ele>475.33333333333337</ele><time>2026-03-25T11:32:17.999Z</time></trkpt><trkpt lat="41.70010038500916" lon="13.431057974345954"><ele>475.66666666666663</ele><time>2026-03-25T11:32:18.999Z</time></trkpt><trkpt lat="41.70016068484841" lon="13.431279745120495"><ele>476.0</ele><time>2026-03-25T11:32:19.999Z</time></trkpt><trkpt lat="41.70024644888837" lon="13.431482291625233"><ele>474.3333333333333</ele><time>2026-03-25T11:32:20.999Z</time></trkpt><trkpt lat="41.700360540809484" lon="13.431670545737385"><ele>472.66666666666663</ele><time>2026-03-25T11:32:21.999Z</time></trkpt><trkpt lat="41.70049230414978" lon="13.431842441773872"><ele>471.0</ele><time>2026-03-25T11:32:22.999Z</time></trkpt><trkpt lat="41.70061863370104" lon="13.431990501839977"><ele>471.0</ele><time>2026-03-25T11:32:23.999Z</time></trkpt><trkpt lat="41.70072724504867" lon="13.432137262581938"><ele>471.0</ele><time>2026-03-25T11:32:24.999Z</time></trkpt><trkpt lat="41.7008167680956" lon="13.432296104940622"><ele>471.0</ele><time>2026-03-25T11:32:25.999Z</time></trkpt><trkpt lat="41.70087880205741" lon="13.43247062339289"><ele>471.0</ele><time>2026-03-25T11:32:26.999Z</time></trkpt><trkpt lat="41.70089400554795" lon="13.432640308560787"><ele>471.20000000000005</ele><time>2026-03-25T11:32:27.999Z</time></trkpt><trkpt lat="41.70087536757074" lon="13.432796043005458"><ele>471.40000000000003</ele><time>2026-03-25T11:32:28.999Z</time></trkpt><trkpt lat="41.7008141708766" lon="13.43292268774871"><ele>471.6</ele><time>2026-03-25T11:32:29.999Z</time></trkpt><trkpt lat="41.70073773176652" lon="13.433043139796363"><ele>471.8</ele><time>2026-03-25T11:32:30.999Z</time></trkpt><trkpt lat="41.70066376644519" lon="13.43312869204613"><ele>472.0</ele><time>2026-03-25T11:32:31.999Z</time></trkpt><trkpt lat="41.70060134672664" lon="13.433197903903284"><ele>472.0</ele><time>2026-03-25T11:32:32.999Z</time></trkpt><trkpt lat="41.70051345850847" lon="13.433273819794865"><ele>472.0</ele><time>2026-03-25T11:32:34.999Z</time></trkpt><trkpt lat="41.70057783016092" lon="13.433453856585384"><ele>472.0</ele><time>2026-03-25T11:32:35.999Z</time></trkpt><trkpt lat="41.70064108959917" lon="13.433594650243041"><ele>472.0</ele><time>2026-03-25T11:32:36.999Z</time></trkpt><trkpt lat="41.70073788788122" lon="13.43376987000036"><ele>473.0</ele><time>2026-03-25T11:32:37.999Z</time></trkpt><trkpt lat="41.7008336238776" lon="13.433952363432788"><ele>474.0</ele><time>2026-03-25T11:32:38.999Z</time></trkpt><trkpt lat="41.70093443125043" lon="13.43415352780593"><ele>475.0</ele><time>2026-03-25T11:32:39.999Z</time></trkpt><trkpt lat="41.701043759537335" lon="13.43434403130884"><ele>476.0</ele><time>2026-03-25T11:32:40.999Z</time></trkpt><trkpt lat="41.70116371574731" lon="13.434518673090993"><ele>477.0</ele><time>2026-03-25T11:32:41.999Z</time></trkpt><trkpt lat="41.70126541501686" lon="13.434709335401005"><ele>478.0</ele><time>2026-03-25T11:32:42.999Z</time></trkpt><trkpt lat="41.70141291155875" lon="13.434863419621625"><ele>478.0</ele><time>2026-03-25T11:32:43.999Z</time></trkpt><trkpt lat="41.70154078089816" lon="13.435060700070276"><ele>478.0</ele><time>2026-03-25T11:32:44.999Z</time></trkpt><trkpt lat="41.70168477472774" lon="13.435253088345483"><ele>478.0</ele><time>2026-03-25T11:32:45.999Z</time></trkpt><trkpt lat="41.70186306664753" lon="13.435422002956372"><ele>476.5</ele><time>2026-03-25T11:32:46.999Z</time></trkpt><trkpt lat="41.70208692985502" lon="13.435572394332343"><ele>475.0</ele><time>2026-03-25T11:32:47.999Z</time></trkpt><trkpt lat="41.702327091712135" lon="13.435705516056512"><ele>475.0</ele><time>2026-03-25T11:32:48.999Z</time></trkpt><trkpt lat="41.70252788194581" lon="13.435835365849746"><ele>475.0</ele><time>2026-03-25T11:32:49.999Z</time></trkpt><trkpt lat="41.702714204436994" lon="13.436002338284407"><ele>475.0</ele><time>2026-03-25T11:32:50.999Z</time></trkpt><trkpt lat="41.702893520116824" lon="13.436184627412393"><ele>474.0</ele><time>2026-03-25T11:32:51.999Z</time></trkpt><trkpt lat="41.70306604863073" lon="13.436356136361434"><ele>473.0</ele><time>2026-03-25T11:32:52.999Z</time></trkpt><trkpt lat="41.70324215419889" lon="13.436514296813586"><ele>472.0</ele><time>2026-03-25T11:32:53.999Z</time></trkpt><trkpt lat="41.70342106665908" lon="13.43666458980247"><ele>474.0</ele><time>2026-03-25T11:32:54.999Z</time></trkpt><trkpt lat="41.70360128509622" lon="13.436820793466376"><ele>476.0</ele><time>2026-03-25T11:32:55.999Z</time></trkpt><trkpt lat="41.70378913967364" lon="13.436970163291248"><ele>478.0</ele><time>2026-03-25T11:32:56.999Z</time></trkpt><trkpt lat="41.70397622713652" lon="13.437112549012822"><ele>476.33333333333337</ele><time>2026-03-25T11:32:57.999Z</time></trkpt><trkpt lat="41.704148407177925" lon="13.437257936243231"><ele>474.66666666666663</ele><time>2026-03-25T11:32:58.999Z</time></trkpt><trkpt lat="41.704320847415794" lon="13.437408404855693"><ele>473.0</ele><time>2026-03-25T11:32:59.999Z</time></trkpt><trkpt lat="41.70449701307991" lon="13.43755906950154"><ele>473.0</ele><time>2026-03-25T11:33:00.999Z</time></trkpt><trkpt lat="41.704674981890534" lon="13.437710075259481"><ele>473.0</ele><time>2026-03-25T11:33:01.999Z</time></trkpt><trkpt lat="41.70484076835472" lon="13.43784818826243"><ele>473.0</ele><time>2026-03-25T11:33:02.999Z</time></trkpt><trkpt lat="41.705000579311424" lon="13.437982851347885"><ele>471.66666666666663</ele><time>2026-03-25T11:33:03.999Z</time></trkpt><trkpt lat="41.70516791163116" lon="13.438125671201538"><ele>470.33333333333337</ele><time>2026-03-25T11:33:04.999Z</time></trkpt><trkpt lat="41.705350323767426" lon="13.438266454419496"><ele>469.0</ele><time>2026-03-25T11:33:05.999Z</time></trkpt><trkpt lat="41.70553744983487" lon="13.43840254572023"><ele>467.5</ele><time>2026-03-25T11:33:06.999Z</time></trkpt><trkpt lat="41.70574385529489" lon="13.438538533728902"><ele>466.0</ele><time>2026-03-25T11:33:07.999Z</time></trkpt><trkpt lat="41.70597027115818" lon="13.438680197567484"><ele>463.0</ele><time>2026-03-25T11:33:08.999Z</time></trkpt><trkpt lat="41.70621923795146" lon="13.438838993164707"><ele>460.0</ele><time>2026-03-25T11:33:09.999Z</time></trkpt><trkpt lat="41.70644972966268" lon="13.438988559813737"><ele>460.0</ele><time>2026-03-25T11:33:10.999Z</time></trkpt><trkpt lat="41.70667041528707" lon="13.439128716392549"><ele>460.0</ele><time>2026-03-25T11:33:11.999Z</time></trkpt><trkpt lat="41.70687838500253" lon="13.439263200617928"><ele>462.6666666666667</ele><time>2026-03-25T11:33:12.999Z</time></trkpt><trkpt lat="41.70707265399138" lon="13.439393766179219"><ele>465.33333333333337</ele><time>2026-03-25T11:33:13.999Z</time></trkpt><trkpt lat="41.70725260641549" lon="13.439524144270113"><ele>468.0</ele><time>2026-03-25T11:33:15Z</time></trkpt><trkpt lat="41.707412600601074" lon="13.439650851832473"><ele>466.0</ele><time>2026-03-25T11:33:16Z</time></trkpt><trkpt lat="41.70755856812509" lon="13.43977158329099"><ele>464.0</ele><time>2026-03-25T11:33:17Z</time></trkpt><trkpt lat="41.70768445343039" lon="13.439874918434946"><ele>462.0</ele><time>2026-03-25T11:33:18Z</time></trkpt><trkpt lat="41.70779476662589" lon="13.439963738353669"><ele>460.0</ele><time>2026-03-25T11:33:19Z</time></trkpt><trkpt lat="41.707897204704906" lon="13.44004710527546"><ele>460.0</ele><time>2026-03-25T11:33:20Z</time></trkpt><trkpt lat="41.707998157555195" lon="13.440114302667716"><ele>460.0</ele><time>2026-03-25T11:33:21Z</time></trkpt><trkpt lat="41.70810558033144" lon="13.44014733302053"><ele>460.0</ele><time>2026-03-25T11:33:22Z</time></trkpt><trkpt lat="41.70823320449867" lon="13.440160732780537"><ele>460.0</ele><time>2026-03-25T11:33:23Z</time></trkpt><trkpt lat="41.70837782084002" lon="13.440163362131333"><ele>460.0</ele><time>2026-03-25T11:33:24Z</time></trkpt><trkpt lat="41.70854970210347" lon="13.440162005353475"><ele>460.0</ele><time>2026-03-25T11:33:25Z</time></trkpt><trkpt lat="41.708758224842136" lon="13.440163910245595"><ele>460.0</ele><time>2026-03-25T11:33:26Z</time></trkpt><trkpt lat="41.70897243761466" lon="13.440170488279207"><ele>460.0</ele><time>2026-03-25T11:33:27Z</time></trkpt><trkpt lat="41.709163232841114" lon="13.440172172172534"><ele>460.0</ele><time>2026-03-25T11:33:28Z</time></trkpt><trkpt lat="41.70934362368486" lon="13.440182097769853"><ele>460.0</ele><time>2026-03-25T11:33:29Z</time></trkpt><trkpt lat="41.70953871362409" lon="13.440212197030421"><ele>459.0</ele><time>2026-03-25T11:33:30Z</time></trkpt><trkpt lat="41.70976163851809" lon="13.44028491381229"><ele>458.0</ele><time>2026-03-25T11:33:31Z</time></trkpt><trkpt lat="41.70999950737638" lon="13.44037460117866"><ele>458.0</ele><time>2026-03-25T11:33:32Z</time></trkpt><trkpt lat="41.71020858475471" lon="13.440446201115403"><ele>458.0</ele><time>2026-03-25T11:33:33Z</time></trkpt><trkpt lat="41.71040277244322" lon="13.440524003615677"><ele>458.0</ele><time>2026-03-25T11:33:34Z</time></trkpt><trkpt lat="41.71059854534008" lon="13.440630764905"><ele>455.66666666666663</ele><time>2026-03-25T11:33:35Z</time></trkpt><trkpt lat="41.71080118837535" lon="13.44074009630343"><ele>453.33333333333337</ele><time>2026-03-25T11:33:36Z</time></trkpt><trkpt lat="41.71101145141674" lon="13.44081570520967"><ele>451.0</ele><time>2026-03-25T11:33:37Z</time></trkpt><trkpt lat="41.71121321200844" lon="13.440873919571672"><ele>451.0</ele><time>2026-03-25T11:33:38Z</time></trkpt><trkpt lat="41.71138997675205" lon="13.440921725439322"><ele>451.0</ele><time>2026-03-25T11:33:39Z</time></trkpt><trkpt lat="41.71155212148842" lon="13.440952712733344"><ele>451.0</ele><time>2026-03-25T11:33:40Z</time></trkpt><trkpt lat="41.71171088269899" lon="13.440945185471744"><ele>451.0</ele><time>2026-03-25T11:33:41Z</time></trkpt><trkpt lat="41.71187527593304" lon="13.440890693772825"><ele>451.0</ele><time>2026-03-25T11:33:42Z</time></trkpt><trkpt lat="41.712056441013324" lon="13.440807882417385"><ele>451.0</ele><time>2026-03-25T11:33:43Z</time></trkpt><trkpt lat="41.71226035299692" lon="13.44072587833024"><ele>451.0</ele><time>2026-03-25T11:33:44Z</time></trkpt><trkpt lat="41.71247895763608" lon="13.440638515233207"><ele>451.0</ele><time>2026-03-25T11:33:45Z</time></trkpt><trkpt lat="41.71270157328087" lon="13.440569032139592"><ele>452.0</ele><time>2026-03-25T11:33:46Z</time></trkpt><trkpt lat="41.712903329380126" lon="13.44052373483164"><ele>453.0</ele><time>2026-03-25T11:33:47Z</time></trkpt><trkpt lat="41.71310801040395" lon="13.440442692251757"><ele>454.0</ele><time>2026-03-25T11:33:48Z</time></trkpt><trkpt lat="41.71331417457118" lon="13.440286699700415"><ele>455.0</ele><time>2026-03-25T11:33:49Z</time></trkpt><trkpt lat="41.713530864114304" lon="13.440109263934914"><ele>456.0</ele><time>2026-03-25T11:33:50Z</time></trkpt><trkpt lat="41.71374720024158" lon="13.439939443567573"><ele>456.66666666666663</ele><time>2026-03-25T11:33:51Z</time></trkpt><trkpt lat="41.71395097892538" lon="13.439777486101779"><ele>457.3333333333333</ele><time>2026-03-25T11:33:52Z</time></trkpt><trkpt lat="41.71412911341143" lon="13.439634600260511"><ele>458.0</ele><time>2026-03-25T11:33:53Z</time></trkpt><trkpt lat="41.71429885884307" lon="13.43946663615603"><ele>459.3333333333333</ele><time>2026-03-25T11:33:54Z</time></trkpt><trkpt lat="41.714462779830214" lon="13.439290725860214"><ele>460.66666666666663</ele><time>2026-03-25T11:33:54.999Z</time></trkpt><trkpt lat="41.714649717571724" lon="13.439167461629664"><ele>462.0</ele><time>2026-03-25T11:33:55.999Z</time></trkpt><trkpt lat="41.71484297539194" lon="13.439061730560434"><ele>462.0</ele><time>2026-03-25T11:33:56.999Z</time></trkpt><trkpt lat="41.71503361929907" lon="13.4389626167358"><ele>462.0</ele><time>2026-03-25T11:33:57.999Z</time></trkpt><trkpt lat="41.715215538487826" lon="13.438864383083983"><ele>462.0</ele><time>2026-03-25T11:33:58.999Z</time></trkpt><trkpt lat="41.715400702034195" lon="13.438783166762512"><ele>463.66666666666663</ele><time>2026-03-25T11:33:59.999Z</time></trkpt><trkpt lat="41.715575888958135" lon="13.438733092991962"><ele>465.3333333333333</ele><time>2026-03-25T11:34:00.999Z</time></trkpt><trkpt lat="41.71574030434842" lon="13.438692353830973"><ele>467.0</ele><time>2026-03-25T11:34:01.999Z</time></trkpt><trkpt lat="41.71588592992911" lon="13.438653292083748"><ele>467.0</ele><time>2026-03-25T11:34:02.999Z</time></trkpt><trkpt lat="41.71601502966983" lon="13.43861308107882"><ele>467.0</ele><time>2026-03-25T11:34:03.999Z</time></trkpt><trkpt lat="41.7161446762041" lon="13.43855956110257"><ele>467.0</ele><time>2026-03-25T11:34:04.999Z</time></trkpt><trkpt lat="41.71628402145634" lon="13.438481828068126"><ele>467.0</ele><time>2026-03-25T11:34:05.999Z</time></trkpt><trkpt lat="41.71642678499998" lon="13.438382677371928"><ele>467.0</ele><time>2026-03-25T11:34:06.999Z</time></trkpt><trkpt lat="41.716578302576735" lon="13.438277570197242"><ele>467.0</ele><time>2026-03-25T11:34:07.999Z</time></trkpt><trkpt lat="41.71674516823446" lon="13.438189168566922"><ele>467.0</ele><time>2026-03-25T11:34:08.999Z</time></trkpt><trkpt lat="41.71691987311751" lon="13.438105362240087"><ele>467.66666666666663</ele><time>2026-03-25T11:34:09.999Z</time></trkpt><trkpt lat="41.71708991624045" lon="13.438003166393656"><ele>468.33333333333337</ele><time>2026-03-25T11:34:10.999Z</time></trkpt><trkpt lat="41.71725280062913" lon="13.437872933613727"><ele>469.0</ele><time>2026-03-25T11:34:11.999Z</time></trkpt><trkpt lat="41.717415007332455" lon="13.437738655188724"><ele>470.33333333333337</ele><time>2026-03-25T11:34:12.999Z</time></trkpt><trkpt lat="41.7175799292622" lon="13.437600112690227"><ele>471.66666666666663</ele><time>2026-03-25T11:34:13.999Z</time></trkpt><trkpt lat="41.717752302748586" lon="13.437477751522652"><ele>473.0</ele><time>2026-03-25T11:34:14.999Z</time></trkpt><trkpt lat="41.717931908445074" lon="13.437373441055367"><ele>473.3333333333333</ele><time>2026-03-25T11:34:15.999Z</time></trkpt><trkpt lat="41.71810679630095" lon="13.43726480761431"><ele>473.66666666666663</ele><time>2026-03-25T11:34:16.999Z</time></trkpt><trkpt lat="41.71827995684608" lon="13.437152141529399"><ele>474.0</ele><time>2026-03-25T11:34:17.999Z</time></trkpt><trkpt lat="41.71846195847213" lon="13.437071407209373"><ele>482.0</ele><time>2026-03-25T11:34:18.999Z</time></trkpt><trkpt lat="41.718656826151154" lon="13.436999048615823"><ele>490.0</ele><time>2026-03-25T11:34:19.999Z</time></trkpt><trkpt lat="41.718859965524885" lon="13.436930587973913"><ele>498.0</ele><time>2026-03-25T11:34:20.999Z</time></trkpt><trkpt lat="41.719061724404916" lon="13.436881119303143"><ele>498.0</ele><time>2026-03-25T11:34:21.999Z</time></trkpt><trkpt lat="41.719245590903945" lon="13.436864899889825"><ele>498.0</ele><time>2026-03-25T11:34:22.999Z</time></trkpt><trkpt lat="41.719417080274475" lon="13.436852867661308"><ele>498.0</ele><time>2026-03-25T11:34:23.999Z</time></trkpt><trkpt lat="41.719579834425325" lon="13.436841621821419"><ele>496.75</ele><time>2026-03-25T11:34:24.999Z</time></trkpt><trkpt lat="41.71972799605041" lon="13.436827909442892"><ele>495.5</ele><time>2026-03-25T11:34:25.999Z</time></trkpt><trkpt lat="41.719857634180016" lon="13.436820103862507"><ele>494.25</ele><time>2026-03-25T11:34:26.999Z</time></trkpt><trkpt lat="41.71999503138506" lon="13.436815958761686"><ele>493.0</ele><time>2026-03-25T11:34:27.999Z</time></trkpt><trkpt lat="41.72014113712202" lon="13.436810388100865"><ele>491.0</ele><time>2026-03-25T11:34:28.999Z</time></trkpt><trkpt lat="41.72029681788475" lon="13.43677352000243"><ele>489.0</ele><time>2026-03-25T11:34:29.999Z</time></trkpt><trkpt lat="41.72046054952938" lon="13.43670990774003"><ele>487.0</ele><time>2026-03-25T11:34:30.999Z</time></trkpt><trkpt lat="41.720628315612174" lon="13.436644908018872"><ele>487.0</ele><time>2026-03-25T11:34:31.999Z</time></trkpt><trkpt lat="41.720774681520616" lon="13.436588717350244"><ele>487.0</ele><time>2026-03-25T11:34:32.999Z</time></trkpt><trkpt lat="41.720912329108764" lon="13.436550957874266"><ele>487.0</ele><time>2026-03-25T11:34:33.999Z</time></trkpt><trkpt lat="41.721062015256095" lon="13.43657260948994"><ele>487.0</ele><time>2026-03-25T11:34:34.999Z</time></trkpt><trkpt lat="41.721233642425325" lon="13.43661024733752"><ele>487.6666666666667</ele><time>2026-03-25T11:34:35.999Z</time></trkpt><trkpt lat="41.7214239777142" lon="13.436650380040405"><ele>488.33333333333337</ele><time>2026-03-25T11:34:36.999Z</time></trkpt><trkpt lat="41.72162742647077" lon="13.436687766746171"><ele>489.0</ele><time>2026-03-25T11:34:37.999Z</time></trkpt><trkpt lat="41.72185179964974" lon="13.43673047837594"><ele>490.33333333333337</ele><time>2026-03-25T11:34:38.999Z</time></trkpt><trkpt lat="41.722053614536975" lon="13.436772084576038"><ele>491.6666666666667</ele><time>2026-03-25T11:34:39.999Z</time></trkpt><trkpt lat="41.722229642804805" lon="13.43681501148447"><ele>493.0</ele><time>2026-03-25T11:34:40.999Z</time></trkpt><trkpt lat="41.722390962679526" lon="13.436846800043385"><ele>493.0</ele><time>2026-03-25T11:34:41.999Z</time></trkpt><trkpt lat="41.72255516485144" lon="13.436875121727677"><ele>493.0</ele><time>2026-03-25T11:34:42.999Z</time></trkpt><trkpt lat="41.72271721589357" lon="13.436900327241446"><ele>493.0</ele><time>2026-03-25T11:34:43.999Z</time></trkpt><trkpt lat="41.722885345974014" lon="13.436900896299491"><ele>493.33333333333337</ele><time>2026-03-25T11:34:44.999Z</time></trkpt><trkpt lat="41.723061711821025" lon="13.436854789100833"><ele>493.66666666666663</ele><time>2026-03-25T11:34:45.999Z</time></trkpt><trkpt lat="41.72324722352554" lon="13.436759218022935"><ele>494.0</ele><time>2026-03-25T11:34:46.999Z</time></trkpt><trkpt lat="41.72344345037208" lon="13.43665008699992"><ele>493.3333333333333</ele><time>2026-03-25T11:34:47.999Z</time></trkpt><trkpt lat="41.72363622068224" lon="13.436553270597766"><ele>492.66666666666663</ele><time>2026-03-25T11:34:48.999Z</time></trkpt><trkpt lat="41.72381751895046" lon="13.43647954240956"><ele>492.0</ele><time>2026-03-25T11:34:49.999Z</time></trkpt><trkpt lat="41.723967187416264" lon="13.436427579402618"><ele>492.0</ele><time>2026-03-25T11:34:50.999Z</time></trkpt><trkpt lat="41.724114431225885" lon="13.436398292613912"><ele>492.0</ele><time>2026-03-25T11:34:51.999Z</time></trkpt><trkpt lat="41.72427136979514" lon="13.436410835555908"><ele>492.0</ele><time>2026-03-25T11:34:52.999Z</time></trkpt><trkpt lat="41.724435576059996" lon="13.43645256306006"><ele>493.0</ele><time>2026-03-25T11:34:53.999Z</time></trkpt><trkpt lat="41.72460097775242" lon="13.436510574207729"><ele>494.0</ele><time>2026-03-25T11:34:54.999Z</time></trkpt><trkpt lat="41.72475234020669" lon="13.436584614448954"><ele>495.0</ele><time>2026-03-25T11:34:55.999Z</time></trkpt><trkpt lat="41.7248885262832" lon="13.436647448396073"><ele>495.0</ele><time>2026-03-25T11:34:56.999Z</time></trkpt><trkpt lat="41.72502246824496" lon="13.436692239728226"><ele>495.0</ele><time>2026-03-25T11:34:57.999Z</time></trkpt><trkpt lat="41.72516600971801" lon="13.436718328893466"><ele>495.0</ele><time>2026-03-25T11:34:58.999Z</time></trkpt><trkpt lat="41.725322226810256" lon="13.436717910384935"><ele>495.0</ele><time>2026-03-25T11:34:59.999Z</time></trkpt><trkpt lat="41.72548702843436" lon="13.436693476908365"><ele>496.66666666666663</ele><time>2026-03-25T11:35:00.999Z</time></trkpt><trkpt lat="41.725661550403004" lon="13.43664055725883"><ele>498.3333333333333</ele><time>2026-03-25T11:35:01.999Z</time></trkpt><trkpt lat="41.72585519121575" lon="13.436562443362597"><ele>500.0</ele><time>2026-03-25T11:35:02.999Z</time></trkpt><trkpt lat="41.72606658022493" lon="13.436477018936017"><ele>501.5</ele><time>2026-03-25T11:35:03.999Z</time></trkpt><trkpt lat="41.726303786989774" lon="13.436394774411161"><ele>503.0</ele><time>2026-03-25T11:35:04.999Z</time></trkpt><trkpt lat="41.726572284237875" lon="13.436323181767934"><ele>501.5</ele><time>2026-03-25T11:35:05.999Z</time></trkpt><trkpt lat="41.72685664141757" lon="13.4362570299311"><ele>500.0</ele><time>2026-03-25T11:35:06.999Z</time></trkpt><trkpt lat="41.727139648603476" lon="13.436180399290265"><ele>504.0</ele><time>2026-03-25T11:35:07.999Z</time></trkpt><trkpt lat="41.727380978166074" lon="13.436084673187743"><ele>508.0</ele><time>2026-03-25T11:35:08.999Z</time></trkpt><trkpt lat="41.72759410303605" lon="13.435990789849859"><ele>512.0</ele><time>2026-03-25T11:35:09.999Z</time></trkpt><trkpt lat="41.7277867834373" lon="13.435898978012004"><ele>516.0</ele><time>2026-03-25T11:35:10.999Z</time></trkpt><trkpt lat="41.727982094201934" lon="13.435781932838022"><ele>520.0</ele><time>2026-03-25T11:35:11.999Z</time></trkpt><trkpt lat="41.72817661014491" lon="13.435601191584803"><ele>519.3333333333334</ele><time>2026-03-25T11:35:12.999Z</time></trkpt><trkpt lat="41.72834730172959" lon="13.435453654501748"><ele>518.6666666666666</ele><time>2026-03-25T11:35:13.999Z</time></trkpt><trkpt lat="41.728492778243364" lon="13.435357762508135"><ele>518.0</ele><time>2026-03-25T11:35:14.999Z</time></trkpt><trkpt lat="41.72867113996206" lon="13.435307088953985"><ele>518.0</ele><time>2026-03-25T11:35:15.999Z</time></trkpt><trkpt lat="41.72887610340824" lon="13.435299983250719"><ele>518.0</ele><time>2026-03-25T11:35:16.999Z</time></trkpt><trkpt lat="41.729080767904556" lon="13.435292327768432"><ele>518.0</ele><time>2026-03-25T11:35:17.999Z</time></trkpt><trkpt lat="41.72928348687109" lon="13.435216006508611"><ele>522.6666666666666</ele><time>2026-03-25T11:35:18.999Z</time></trkpt><trkpt lat="41.729491124331055" lon="13.435083574443551"><ele>527.3333333333334</ele><time>2026-03-25T11:35:19.999Z</time></trkpt><trkpt lat="41.72968016932799" lon="13.434966826704802"><ele>532.0</ele><time>2026-03-25T11:35:21Z</time></trkpt><trkpt lat="41.729855477906426" lon="13.434877049133132"><ele>532.0</ele><time>2026-03-25T11:35:22Z</time></trkpt><trkpt lat="41.73003935435791" lon="13.434822365215457"><ele>532.0</ele><time>2026-03-25T11:35:23Z</time></trkpt><trkpt lat="41.730198143613414" lon="13.43478619020365"><ele>532.0</ele><time>2026-03-25T11:35:24Z</time></trkpt><trkpt lat="41.73035586653438" lon="13.43479276319704"><ele>533.3333333333334</ele><time>2026-03-25T11:35:25Z</time></trkpt><trkpt lat="41.73052760204338" lon="13.434874246691157"><ele>534.6666666666666</ele><time>2026-03-25T11:35:26Z</time></trkpt><trkpt lat="41.73072063977478" lon="13.4349517501995"><ele>536.0</ele><time>2026-03-25T11:35:27Z</time></trkpt><trkpt lat="41.73092508070275" lon="13.434983688750751"><ele>539.3333333333333</ele><time>2026-03-25T11:35:28Z</time></trkpt><trkpt lat="41.73113725233889" lon="13.434971401874394"><ele>542.6666666666666</ele><time>2026-03-25T11:35:29Z</time></trkpt><trkpt lat="41.73135351985291" lon="13.434940074398718"><ele>546.0</ele><time>2026-03-25T11:35:30Z</time></trkpt><trkpt lat="41.731568544650436" lon="13.434907430270012"><ele>546.0</ele><time>2026-03-25T11:35:31Z</time></trkpt><trkpt lat="41.731781426854425" lon="13.434877120199028"><ele>546.0</ele><time>2026-03-25T11:35:32Z</time></trkpt><trkpt lat="41.73197256496055" lon="13.434855713054343"><ele>546.0</ele><time>2026-03-25T11:35:33Z</time></trkpt><trkpt lat="41.73213783429443" lon="13.43483943584343"><ele>547.6666666666666</ele><time>2026-03-25T11:35:34Z</time></trkpt><trkpt lat="41.73229494836584" lon="13.434830121029918"><ele>549.3333333333333</ele><time>2026-03-25T11:35:35Z</time></trkpt><trkpt lat="41.73245786962779" lon="13.434824373267583"><ele>551.0</ele><time>2026-03-25T11:35:36Z</time></trkpt><trkpt lat="41.732607500569586" lon="13.434832024989511"><ele>550.25</ele><time>2026-03-25T11:35:37Z</time></trkpt><trkpt lat="41.732754957996484" lon="13.434855718807853"><ele>549.5</ele><time>2026-03-25T11:35:38Z</time></trkpt><trkpt lat="41.73289187867568" lon="13.434909536913986"><ele>548.75</ele><time>2026-03-25T11:35:39Z</time></trkpt><trkpt lat="41.73301738652228" lon="13.434984409333603"><ele>548.0</ele><time>2026-03-25T11:35:40Z</time></trkpt><trkpt lat="41.73313600998356" lon="13.435094533494942"><ele>548.0</ele><time>2026-03-25T11:35:41Z</time></trkpt><trkpt lat="41.73322094839047" lon="13.43524854995906"><ele>548.0</ele><time>2026-03-25T11:35:42Z</time></trkpt><trkpt lat="41.73332471960009" lon="13.435416340128429"><ele>548.0</ele><time>2026-03-25T11:35:43Z</time></trkpt><trkpt lat="41.73342627170526" lon="13.43560054312323"><ele>549.0</ele><time>2026-03-25T11:35:44Z</time></trkpt><trkpt lat="41.733548064756874" lon="13.435814822460431"><ele>550.0</ele><time>2026-03-25T11:35:45Z</time></trkpt><trkpt lat="41.73368262871326" lon="13.436049689645355"><ele>551.0</ele><time>2026-03-25T11:35:46Z</time></trkpt><trkpt lat="41.733830147981436" lon="13.4362619807609"><ele>559.5</ele><time>2026-03-25T11:35:47Z</time></trkpt><trkpt lat="41.734018556772966" lon="13.436449664478578"><ele>568.0</ele><time>2026-03-25T11:35:48Z</time></trkpt><trkpt lat="41.73424915831903" lon="13.436617727871326"><ele>563.0</ele><time>2026-03-25T11:35:49Z</time></trkpt><trkpt lat="41.734486655434885" lon="13.436775660080752"><ele>558.0</ele><time>2026-03-25T11:35:50Z</time></trkpt><trkpt lat="41.734688902914876" lon="13.436909921219957"><ele>558.0</ele><time>2026-03-25T11:35:51Z</time></trkpt><trkpt lat="41.73487667255747" lon="13.437025311623183"><ele>558.0</ele><time>2026-03-25T11:35:52Z</time></trkpt><trkpt lat="41.73508378206262" lon="13.437084190052357"><ele>558.0</ele><time>2026-03-25T11:35:53Z</time></trkpt><trkpt lat="41.73529225410921" lon="13.437105656712628"><ele>562.3333333333334</ele><time>2026-03-25T11:35:54Z</time></trkpt><trkpt lat="41.73549416295277" lon="13.437161008237254"><ele>566.6666666666667</ele><time>2026-03-25T11:35:54.999Z</time></trkpt><trkpt lat="41.735701588365785" lon="13.43729547941211"><ele>571.0</ele><time>2026-03-25T11:35:55.999Z</time></trkpt><trkpt lat="41.73592064943998" lon="13.437454245850672"><ele>571.3333333333334</ele><time>2026-03-25T11:35:56.999Z</time></trkpt><trkpt lat="41.736106994909996" lon="13.437627687283742"><ele>571.6666666666666</ele><time>2026-03-25T11:35:57.999Z</time></trkpt><trkpt lat="41.736265875270256" lon="13.437797079579166"><ele>572.0</ele><time>2026-03-25T11:35:58.999Z</time></trkpt><trkpt lat="41.73639793513097" lon="13.437973264185288"><ele>572.0</ele><time>2026-03-25T11:35:59.999Z</time></trkpt><trkpt lat="41.73651962280633" lon="13.438203987388162"><ele>572.0</ele><time>2026-03-25T11:36:00.999Z</time></trkpt><trkpt lat="41.73663284451318" lon="13.438476109412886"><ele>572.0</ele><time>2026-03-25T11:36:01.999Z</time></trkpt><trkpt lat="41.73676981227067" lon="13.438763502335279"><ele>576.5</ele><time>2026-03-25T11:36:02.999Z</time></trkpt><trkpt lat="41.73691555805563" lon="13.439041101285216"><ele>581.0</ele><time>2026-03-25T11:36:03.999Z</time></trkpt><trkpt lat="41.737064726455614" lon="13.439328312777736"><ele>581.0</ele><time>2026-03-25T11:36:04.999Z</time></trkpt><trkpt lat="41.7371977443727" lon="13.43958230599234"><ele>581.0</ele><time>2026-03-25T11:36:05.999Z</time></trkpt><trkpt lat="41.73730757105623" lon="13.439799247860138"><ele>581.0</ele><time>2026-03-25T11:36:06.999Z</time></trkpt><trkpt lat="41.73740010750375" lon="13.43999007628317"><ele>583.6666666666666</ele><time>2026-03-25T11:36:07.999Z</time></trkpt><trkpt lat="41.73747319606543" lon="13.440194644786207"><ele>586.3333333333334</ele><time>2026-03-25T11:36:08.999Z</time></trkpt><trkpt lat="41.737510431258976" lon="13.440414118259037"><ele>589.0</ele><time>2026-03-25T11:36:09.999Z</time></trkpt><trkpt lat="41.73752897137336" lon="13.440607215403427"><ele>588.6666666666667</ele><time>2026-03-25T11:36:10.999Z</time></trkpt><trkpt lat="41.7375807198552" lon="13.440807636017412"><ele>588.3333333333334</ele><time>2026-03-25T11:36:11.999Z</time></trkpt><trkpt lat="41.7376753943017" lon="13.441015948453078"><ele>588.0</ele><time>2026-03-25T11:36:12.999Z</time></trkpt><trkpt lat="41.73779228557781" lon="13.441232457289445"><ele>589.6666666666666</ele><time>2026-03-25T11:36:13.999Z</time></trkpt><trkpt lat="41.73791715095649" lon="13.441449429756114"><ele>591.3333333333333</ele><time>2026-03-25T11:36:14.999Z</time></trkpt><trkpt lat="41.738038916538436" lon="13.441674312616714"><ele>593.0</ele><time>2026-03-25T11:36:15.999Z</time></trkpt><trkpt lat="41.73815737481031" lon="13.441911009135932"><ele>596.0</ele><time>2026-03-25T11:36:16.999Z</time></trkpt><trkpt lat="41.73826552016873" lon="13.44213657932747"><ele>599.0</ele><time>2026-03-25T11:36:17.999Z</time></trkpt><trkpt lat="41.73836478286859" lon="13.442335630715931"><ele>602.0</ele><time>2026-03-25T11:36:18.999Z</time></trkpt><trkpt lat="41.7384529022566" lon="13.442515568824138"><ele>602.0</ele><time>2026-03-25T11:36:19.999Z</time></trkpt><trkpt lat="41.73852373006956" lon="13.442658206337645"><ele>602.0</ele><time>2026-03-25T11:36:20.999Z</time></trkpt><trkpt lat="41.73858482865832" lon="13.442767942597916"><ele>602.0</ele><time>2026-03-25T11:36:21.999Z</time></trkpt><trkpt lat="41.738643756019215" lon="13.442874214750285"><ele>602.0</ele><time>2026-03-25T11:36:22.999Z</time></trkpt><trkpt lat="41.738813839136704" lon="13.442853217355333"><ele>603.3333333333333</ele><time>2026-03-25T11:36:23.999Z</time></trkpt><trkpt lat="41.73899872119464" lon="13.442783139668196"><ele>604.6666666666666</ele><time>2026-03-25T11:36:24.999Z</time></trkpt><trkpt lat="41.739202591637444" lon="13.442720831085486"><ele>606.0</ele><time>2026-03-25T11:36:25.999Z</time></trkpt><trkpt lat="41.7394286759144" lon="13.442665370864566"><ele>606.0</ele><time>2026-03-25T11:36:26.999Z</time></trkpt><trkpt lat="41.739670677950485" lon="13.442609830066544"><ele>606.0</ele><time>2026-03-25T11:36:27.999Z</time></trkpt><trkpt lat="41.73992879897537" lon="13.442542363874745"><ele>606.0</ele><time>2026-03-25T11:36:28.999Z</time></trkpt><trkpt lat="41.74018846713376" lon="13.4424804015475"><ele>606.0</ele><time>2026-03-25T11:36:29.999Z</time></trkpt><trkpt lat="41.74041509457112" lon="13.442429565776008"><ele>608.6666666666666</ele><time>2026-03-25T11:36:30.999Z</time></trkpt><trkpt lat="41.740603549722444" lon="13.442378220180071"><ele>611.3333333333333</ele><time>2026-03-25T11:36:31.999Z</time></trkpt><trkpt lat="41.74076202479581" lon="13.442334049063483"><ele>614.0</ele><time>2026-03-25T11:36:32.999Z</time></trkpt><trkpt lat="41.74090370662535" lon="13.442297867176384"><ele>614.0</ele><time>2026-03-25T11:36:33.999Z</time></trkpt><trkpt lat="41.74102786288105" lon="13.442267889133332"><ele>614.0</ele><time>2026-03-25T11:36:34.999Z</time></trkpt><trkpt lat="41.74114306001606" lon="13.442265039701686"><ele>614.0</ele><time>2026-03-25T11:36:35.999Z</time></trkpt><trkpt lat="41.7412440384727" lon="13.442314972657712"><ele>614.0</ele><time>2026-03-25T11:36:36.999Z</time></trkpt><trkpt lat="41.741305311608514" lon="13.442431966563978"><ele>619.75</ele><time>2026-03-25T11:36:37.999Z</time></trkpt><trkpt lat="41.741328317496155" lon="13.44258540770965"><ele>625.5</ele><time>2026-03-25T11:36:38.999Z</time></trkpt><trkpt lat="41.7412863433278" lon="13.442749668788569"><ele>631.25</ele><time>2026-03-25T11:36:39.999Z</time></trkpt><trkpt lat="41.74118953674354" lon="13.442937912564986"><ele>637.0</ele><time>2026-03-25T11:36:40.999Z</time></trkpt><trkpt lat="41.74113978877568" lon="13.443153669096374"><ele>642.0</ele><time>2026-03-25T11:36:41.999Z</time></trkpt><trkpt lat="41.74111922553755" lon="13.443382359798916"><ele>647.0</ele><time>2026-03-25T11:36:42.999Z</time></trkpt><trkpt lat="41.741122465259444" lon="13.443591909509168"><ele>652.0</ele><time>2026-03-25T11:36:43.999Z</time></trkpt><trkpt lat="41.741152511431274" lon="13.443755707278878"><ele>652.0</ele><time>2026-03-25T11:36:44.999Z</time></trkpt><trkpt lat="41.74120368271686" lon="13.443916080758816"><ele>652.0</ele><time>2026-03-25T11:36:45.999Z</time></trkpt><trkpt lat="41.74128595332265" lon="13.444099053638537"><ele>652.0</ele><time>2026-03-25T11:36:46.999Z</time></trkpt><trkpt lat="41.74136943908288" lon="13.44430508943017"><ele>652.0</ele><time>2026-03-25T11:36:47.999Z</time></trkpt><trkpt lat="41.741458657427145" lon="13.4445106499337"><ele>652.0</ele><time>2026-03-25T11:36:48.999Z</time></trkpt><trkpt lat="41.74154163973095" lon="13.44471259086268"><ele>652.0</ele><time>2026-03-25T11:36:49.999Z</time></trkpt><trkpt lat="41.74161650376095" lon="13.44490962739611"><ele>650.0</ele><time>2026-03-25T11:36:50.999Z</time></trkpt><trkpt lat="41.7416883592886" lon="13.445123672803883"><ele>648.0</ele><time>2026-03-25T11:36:51.999Z</time></trkpt><trkpt lat="41.74176018513658" lon="13.445364515310407"><ele>646.0</ele><time>2026-03-25T11:36:52.999Z</time></trkpt><trkpt lat="41.74183029832845" lon="13.445622364803238"><ele>653.6666666666667</ele><time>2026-03-25T11:36:53.999Z</time></trkpt><trkpt lat="41.74190525691572" lon="13.445883245722097"><ele>661.3333333333334</ele><time>2026-03-25T11:36:54.999Z</time></trkpt><trkpt lat="41.74197589790871" lon="13.44612228892343"><ele>669.0</ele><time>2026-03-25T11:36:55.999Z</time></trkpt><trkpt lat="41.74205925808614" lon="13.44633289663455"><ele>669.0</ele><time>2026-03-25T11:36:56.999Z</time></trkpt><trkpt lat="41.74215707146353" lon="13.446545520083777"><ele>669.0</ele><time>2026-03-25T11:36:57.999Z</time></trkpt><trkpt lat="41.74227654625204" lon="13.446752786109247"><ele>669.0</ele><time>2026-03-25T11:36:58.999Z</time></trkpt><trkpt lat="41.74242704738706" lon="13.44694789590364"><ele>673.3333333333334</ele><time>2026-03-25T11:36:59.999Z</time></trkpt><trkpt lat="41.74260202420116" lon="13.4471290067664"><ele>677.6666666666667</ele><time>2026-03-25T11:37:00.999Z</time></trkpt><trkpt lat="41.742767526076406" lon="13.447312620555644"><ele>682.0</ele><time>2026-03-25T11:37:01.999Z</time></trkpt><trkpt lat="41.7429113996589" lon="13.447509840383217"><ele>682.0</ele><time>2026-03-25T11:37:02.999Z</time></trkpt><trkpt lat="41.743045959132765" lon="13.447708250797383"><ele>682.0</ele><time>2026-03-25T11:37:03.999Z</time></trkpt><trkpt lat="41.7431984996793" lon="13.447919872073395"><ele>682.0</ele><time>2026-03-25T11:37:04.999Z</time></trkpt><trkpt lat="41.74336246889743" lon="13.448124152468607"><ele>680.6666666666667</ele><time>2026-03-25T11:37:05.999Z</time></trkpt><trkpt lat="41.74350911837286" lon="13.448284374591212"><ele>679.3333333333334</ele><time>2026-03-25T11:37:06.999Z</time></trkpt><trkpt lat="41.743656987602755" lon="13.448409539106"><ele>678.0</ele><time>2026-03-25T11:37:07.999Z</time></trkpt><trkpt lat="41.743809868600685" lon="13.448519955087127"><ele>678.0</ele><time>2026-03-25T11:37:08.999Z</time></trkpt><trkpt lat="41.74399480022734" lon="13.448590975905562"><ele>678.0</ele><time>2026-03-25T11:37:09.999Z</time></trkpt><trkpt lat="41.744197829326794" lon="13.448648587489982"><ele>678.0</ele><time>2026-03-25T11:37:10.999Z</time></trkpt><trkpt lat="41.74440520465881" lon="13.448717989066719"><ele>681.6666666666666</ele><time>2026-03-25T11:37:11.999Z</time></trkpt><trkpt lat="41.74460474304482" lon="13.448805931340477"><ele>685.3333333333333</ele><time>2026-03-25T11:37:12.999Z</time></trkpt><trkpt lat="41.74478925242852" lon="13.448926607422822"><ele>689.0</ele><time>2026-03-25T11:37:13.999Z</time></trkpt><trkpt lat="41.74496356896737" lon="13.44907850331706"><ele>689.0</ele><time>2026-03-25T11:37:14.999Z</time></trkpt><trkpt lat="41.74513509845126" lon="13.44926888175143"><ele>689.0</ele><time>2026-03-25T11:37:15.999Z</time></trkpt><trkpt lat="41.74529940979912" lon="13.449451071630355"><ele>689.0</ele><time>2026-03-25T11:37:16.999Z</time></trkpt><trkpt lat="41.745454084422825" lon="13.44958919666301"><ele>691.0</ele><time>2026-03-25T11:37:17.999Z</time></trkpt><trkpt lat="41.745628008529735" lon="13.44969177541982"><ele>693.0</ele><time>2026-03-25T11:37:18.999Z</time></trkpt><trkpt lat="41.745822857237386" lon="13.44976187745885"><ele>695.0</ele><time>2026-03-25T11:37:19.999Z</time></trkpt><trkpt lat="41.74602438179916" lon="13.449817446320225"><ele>704.3333333333333</ele><time>2026-03-25T11:37:20.999Z</time></trkpt><trkpt lat="41.746214841308905" lon="13.449881935908115"><ele>713.6666666666666</ele><time>2026-03-25T11:37:21.999Z</time></trkpt><trkpt lat="41.74636967652031" lon="13.449981214213553"><ele>723.0</ele><time>2026-03-25T11:37:22.999Z</time></trkpt><trkpt lat="41.74652188863758" lon="13.45009770002487"><ele>723.0</ele><time>2026-03-25T11:37:23.999Z</time></trkpt><trkpt lat="41.74667703241672" lon="13.450223649549375"><ele>723.0</ele><time>2026-03-25T11:37:24.999Z</time></trkpt><trkpt lat="41.746827737132655" lon="13.450371221918486"><ele>723.0</ele><time>2026-03-25T11:37:25.999Z</time></trkpt><trkpt lat="41.746964530253074" lon="13.450557101169322"><ele>729.0</ele><time>2026-03-25T11:37:27Z</time></trkpt><trkpt lat="41.74706770630178" lon="13.450791168246006"><ele>735.0</ele><time>2026-03-25T11:37:28Z</time></trkpt><trkpt lat="41.74715563923543" lon="13.451025229406538"><ele>741.0</ele><time>2026-03-25T11:37:29Z</time></trkpt><trkpt lat="41.74727302114056" lon="13.45123157866006"><ele>736.3333333333334</ele><time>2026-03-25T11:37:30Z</time></trkpt><trkpt lat="41.74742507739694" lon="13.451411331446513"><ele>731.6666666666667</ele><time>2026-03-25T11:37:31Z</time></trkpt><trkpt lat="41.74758727779284" lon="13.451582023020231"><ele>727.0</ele><time>2026-03-25T11:37:32Z</time></trkpt><trkpt lat="41.74771034030775" lon="13.451750161070143"><ele>735.6666666666667</ele><time>2026-03-25T11:37:33Z</time></trkpt><trkpt lat="41.74780627895488" lon="13.451956691074681"><ele>744.3333333333334</ele><time>2026-03-25T11:37:34Z</time></trkpt><trkpt lat="41.747879306414525" lon="13.452209435902123"><ele>753.0</ele><time>2026-03-25T11:37:35Z</time></trkpt><trkpt lat="41.74793352143933" lon="13.45248220284368"><ele>753.0</ele><time>2026-03-25T11:37:36Z</time></trkpt><trkpt lat="41.747997019060016" lon="13.452738126181334"><ele>753.0</ele><time>2026-03-25T11:37:37Z</time></trkpt><trkpt lat="41.74808449330244" lon="13.45297711183039"><ele>753.0</ele><time>2026-03-25T11:37:38Z</time></trkpt><trkpt lat="41.748148041889095" lon="13.453179569539797"><ele>751.6666666666666</ele><time>2026-03-25T11:37:39Z</time></trkpt><trkpt lat="41.74817195365091" lon="13.453389614167062"><ele>750.3333333333333</ele><time>2026-03-25T11:37:40Z</time></trkpt><trkpt lat="41.74817024852905" lon="13.453637033419406"><ele>749.0</ele><time>2026-03-25T11:37:41Z</time></trkpt><trkpt lat="41.748170152368054" lon="13.453894410087184"><ele>748.3333333333333</ele><time>2026-03-25T11:37:42Z</time></trkpt><trkpt lat="41.74816922817266" lon="13.45414077780991"><ele>747.6666666666666</ele><time>2026-03-25T11:37:43Z</time></trkpt><trkpt lat="41.74816341533671" lon="13.454345931269138"><ele>747.0</ele><time>2026-03-25T11:37:44Z</time></trkpt><trkpt lat="41.74815069845861" lon="13.45453602254716"><ele>746.75</ele><time>2026-03-25T11:37:45Z</time></trkpt><trkpt lat="41.748146695463674" lon="13.454692811033118"><ele>746.5</ele><time>2026-03-25T11:37:46Z</time></trkpt><trkpt lat="41.74816085573432" lon="13.454823000785696"><ele>746.25</ele><time>2026-03-25T11:37:47Z</time></trkpt><trkpt lat="41.74822356878513" lon="13.45495174133575"><ele>746.0</ele><time>2026-03-25T11:37:48Z</time></trkpt><trkpt lat="41.74835363674515" lon="13.455061321890767"><ele>746.0</ele><time>2026-03-25T11:37:49Z</time></trkpt><trkpt lat="41.74851980066881" lon="13.45515591921491"><ele>746.0</ele><time>2026-03-25T11:37:50Z</time></trkpt><trkpt lat="41.748694093544465" lon="13.45524774906128"><ele>746.0</ele><time>2026-03-25T11:37:51Z</time></trkpt><trkpt lat="41.74888077503673" lon="13.455332203882811"><ele>751.3333333333333</ele><time>2026-03-25T11:37:52Z</time></trkpt><trkpt lat="41.74909500187824" lon="13.455409230429698"><ele>756.6666666666666</ele><time>2026-03-25T11:37:53Z</time></trkpt><trkpt lat="41.74927162994195" lon="13.455482390099034"><ele>762.0</ele><time>2026-03-25T11:37:54Z</time></trkpt><trkpt lat="41.74941135496485" lon="13.455575554692274"><ele>762.25</ele><time>2026-03-25T11:37:54.999Z</time></trkpt><trkpt lat="41.74952574033156" lon="13.45567482359666"><ele>762.5</ele><time>2026-03-25T11:37:55.999Z</time></trkpt><trkpt lat="41.74962884748425" lon="13.455727496908159"><ele>762.75</ele><time>2026-03-25T11:37:56.999Z</time></trkpt><trkpt lat="41.74973582093407" lon="13.455720988399552"><ele>763.0</ele><time>2026-03-25T11:37:57.999Z</time></trkpt><trkpt lat="41.74985164696547" lon="13.455660196402066"><ele>763.0</ele><time>2026-03-25T11:37:58.999Z</time></trkpt><trkpt lat="41.74997513657371" lon="13.455546781631828"><ele>763.0</ele><time>2026-03-25T11:37:59.999Z</time></trkpt><trkpt lat="41.75010394170157" lon="13.4553941593271"><ele>763.0</ele><time>2026-03-25T11:38:00.999Z</time></trkpt><trkpt lat="41.75025134306402" lon="13.45525859110554"><ele>765.3333333333334</ele><time>2026-03-25T11:38:01.999Z</time></trkpt><trkpt lat="41.75041923605653" lon="13.45517392569618"><ele>767.6666666666667</ele><time>2026-03-25T11:38:02.999Z</time></trkpt><trkpt lat="41.75060373485639" lon="13.455119867785225"><ele>770.0</ele><time>2026-03-25T11:38:03.999Z</time></trkpt><trkpt lat="41.75078037801857" lon="13.45503580146789"><ele>770.0</ele><time>2026-03-25T11:38:04.999Z</time></trkpt><trkpt lat="41.75094795280893" lon="13.454941299164409"><ele>770.0</ele><time>2026-03-25T11:38:05.999Z</time></trkpt><trkpt lat="41.75110963503239" lon="13.454835466461134"><ele>770.0</ele><time>2026-03-25T11:38:06.999Z</time></trkpt><trkpt lat="41.75126576535796" lon="13.45471785089429"><ele>773.3333333333334</ele><time>2026-03-25T11:38:07.999Z</time></trkpt><trkpt lat="41.75142548042851" lon="13.45460505532787"><ele>776.6666666666667</ele><time>2026-03-25T11:38:08.999Z</time></trkpt><trkpt lat="41.75155779025512" lon="13.454511521366152"><ele>780.0</ele><time>2026-03-25T11:38:09.999Z</time></trkpt><trkpt lat="41.75167363177287" lon="13.45442893695302"><ele>780.0</ele><time>2026-03-25T11:38:10.999Z</time></trkpt><trkpt lat="41.751764032427694" lon="13.454365281298742"><ele>780.0</ele><time>2026-03-25T11:38:11.999Z</time></trkpt><trkpt lat="41.75184546013777" lon="13.454334901530693"><ele>780.0</ele><time>2026-03-25T11:38:12.999Z</time></trkpt><trkpt lat="41.751926015406326" lon="13.454342168911138"><ele>780.0</ele><time>2026-03-25T11:38:13.999Z</time></trkpt><trkpt lat="41.752010971375356" lon="13.4543887884432"><ele>780.0</ele><time>2026-03-25T11:38:14.999Z</time></trkpt><trkpt lat="41.75208840606179" lon="13.454474378375378"><ele>780.6</ele><time>2026-03-25T11:38:15.999Z</time></trkpt><trkpt lat="41.75213595097577" lon="13.454585707223258"><ele>781.2</ele><time>2026-03-25T11:38:16.999Z</time></trkpt><trkpt lat="41.75215060208715" lon="13.45470678799242"><ele>781.8</ele><time>2026-03-25T11:38:17.999Z</time></trkpt><trkpt lat="41.75213223609065" lon="13.45483403445204"><ele>782.4</ele><time>2026-03-25T11:38:18.999Z</time></trkpt><trkpt lat="41.752075762357954" lon="13.454950151231412"><ele>783.0</ele><time>2026-03-25T11:38:19.999Z</time></trkpt><trkpt lat="41.752012501620776" lon="13.455066258665452"><ele>781.5999999999999</ele><time>2026-03-25T11:38:20.999Z</time></trkpt><trkpt lat="41.751960977074695" lon="13.455190129871825"><ele>780.1999999999999</ele><time>2026-03-25T11:38:21.999Z</time></trkpt><trkpt lat="41.75190089603926" lon="13.455305311456417"><ele>778.8</ele><time>2026-03-25T11:38:22.999Z</time></trkpt><trkpt lat="41.751858009447794" lon="13.455404947965718"><ele>777.4</ele><time>2026-03-25T11:38:23.999Z</time></trkpt><trkpt lat="41.75182628410909" lon="13.455492219389358"><ele>776.0</ele><time>2026-03-25T11:38:24.999Z</time></trkpt><trkpt lat="41.75181977178692" lon="13.455640642848575"><ele>775.8</ele><time>2026-03-25T11:38:26.999Z</time></trkpt><trkpt lat="41.75186620733752" lon="13.45570155775971"><ele>775.5999999999999</ele><time>2026-03-25T11:38:27.999Z</time></trkpt><trkpt lat="41.75194340220638" lon="13.455714114219981"><ele>775.4</ele><time>2026-03-25T11:38:28.999Z</time></trkpt><trkpt lat="41.752022626958464" lon="13.45566646521571"><ele>775.2</ele><time>2026-03-25T11:38:29.999Z</time></trkpt><trkpt lat="41.7520943829926" lon="13.455550397275408"><ele>775.0</ele><time>2026-03-25T11:38:30.999Z</time></trkpt><trkpt lat="41.75218200756792" lon="13.455389105946216"><ele>781.0</ele><time>2026-03-25T11:38:31.999Z</time></trkpt><trkpt lat="41.752291853952975" lon="13.455227815546863"><ele>787.0</ele><time>2026-03-25T11:38:32.999Z</time></trkpt><trkpt lat="41.75240525128397" lon="13.455077779881702"><ele>793.0</ele><time>2026-03-25T11:38:33.999Z</time></trkpt><trkpt lat="41.7525187972121" lon="13.454932005255664"><ele>793.0</ele><time>2026-03-25T11:38:34.999Z</time></trkpt><trkpt lat="41.75264999055496" lon="13.454790195803557"><ele>793.0</ele><time>2026-03-25T11:38:35.999Z</time></trkpt><trkpt lat="41.75278724030298" lon="13.45463171985557"><ele>793.0</ele><time>2026-03-25T11:38:36.999Z</time></trkpt><trkpt lat="41.75294131907392" lon="13.454469064642975"><ele>798.5</ele><time>2026-03-25T11:38:37.999Z</time></trkpt><trkpt lat="41.75311860104735" lon="13.45427037438375"><ele>804.0</ele><time>2026-03-25T11:38:38.999Z</time></trkpt><trkpt lat="41.75328673969982" lon="13.454053015063188"><ele>804.0</ele><time>2026-03-25T11:38:39.999Z</time></trkpt><trkpt lat="41.75344094677749" lon="13.453859919524056"><ele>804.0</ele><time>2026-03-25T11:38:40.999Z</time></trkpt><trkpt lat="41.75358904045873" lon="13.45368862511674"><ele>804.0</ele><time>2026-03-25T11:38:41.999Z</time></trkpt><trkpt lat="41.75373823634943" lon="13.453518249498694"><ele>807.3333333333333</ele><time>2026-03-25T11:38:42.999Z</time></trkpt><trkpt lat="41.75387724637545" lon="13.45335760056802"><ele>810.6666666666666</ele><time>2026-03-25T11:38:43.999Z</time></trkpt><trkpt lat="41.7540149752028" lon="13.453196737927893"><ele>814.0</ele><time>2026-03-25T11:38:44.999Z</time></trkpt><trkpt lat="41.75415239774208" lon="13.453032209900597"><ele>812.0</ele><time>2026-03-25T11:38:45.999Z</time></trkpt><trkpt lat="41.754286933034095" lon="13.452848770260678"><ele>810.0</ele><time>2026-03-25T11:38:46.999Z</time></trkpt><trkpt lat="41.75442596980543" lon="13.452645391482958"><ele>808.0</ele><time>2026-03-25T11:38:47.999Z</time></trkpt><trkpt lat="41.754556666308346" lon="13.45245683099137"><ele>814.3333333333333</ele><time>2026-03-25T11:38:48.999Z</time></trkpt><trkpt lat="41.754665675546164" lon="13.452292917204888"><ele>820.6666666666667</ele><time>2026-03-25T11:38:49.999Z</time></trkpt><trkpt lat="41.754746196474045" lon="13.452124388586919"><ele>827.0</ele><time>2026-03-25T11:38:50.999Z</time></trkpt><trkpt lat="41.75480451709165" lon="13.45192718112398"><ele>827.0</ele><time>2026-03-25T11:38:51.999Z</time></trkpt><trkpt lat="41.7548345878596" lon="13.451710366408332"><ele>827.0</ele><time>2026-03-25T11:38:52.999Z</time></trkpt><trkpt lat="41.75483660594453" lon="13.45152520547661"><ele>827.0</ele><time>2026-03-25T11:38:53.999Z</time></trkpt><trkpt lat="41.75479868643614" lon="13.451350213176978"><ele>827.0</ele><time>2026-03-25T11:38:54.999Z</time></trkpt><trkpt lat="41.754719955990375" lon="13.451168638715776"><ele>826.6666666666667</ele><time>2026-03-25T11:38:55.999Z</time></trkpt><trkpt lat="41.75459986991551" lon="13.45099089890617"><ele>826.3333333333333</ele><time>2026-03-25T11:38:56.999Z</time></trkpt><trkpt lat="41.754453527075434" lon="13.450835079637805"><ele>826.0</ele><time>2026-03-25T11:38:57.999Z</time></trkpt><trkpt lat="41.754287754211674" lon="13.45072293144859"><ele>826.0</ele><time>2026-03-25T11:38:58.999Z</time></trkpt><trkpt lat="41.754088551894306" lon="13.450658968972473"><ele>826.0</ele><time>2026-03-25T11:38:59.999Z</time></trkpt><trkpt lat="41.75385537226517" lon="13.450616776298471"><ele>826.0</ele><time>2026-03-25T11:39:00.999Z</time></trkpt><trkpt lat="41.7536546465314" lon="13.450584270880622"><ele>825.6666666666666</ele><time>2026-03-25T11:39:01.999Z</time></trkpt><trkpt lat="41.75347940815413" lon="13.45053228334061"><ele>825.3333333333333</ele><time>2026-03-25T11:39:02.999Z</time></trkpt><trkpt lat="41.7533052870574" lon="13.450445861836437"><ele>825.0</ele><time>2026-03-25T11:39:03.999Z</time></trkpt><trkpt lat="41.75311815529946" lon="13.450338991846087"><ele>830.0</ele><time>2026-03-25T11:39:04.999Z</time></trkpt><trkpt lat="41.75292622614595" lon="13.450230741287609"><ele>835.0</ele><time>2026-03-25T11:39:05.999Z</time></trkpt><trkpt lat="41.75274704111047" lon="13.450116684831753"><ele>840.0</ele><time>2026-03-25T11:39:06.999Z</time></trkpt><trkpt lat="41.75258071375209" lon="13.449991148971963"><ele>840.0</ele><time>2026-03-25T11:39:07.999Z</time></trkpt><trkpt lat="41.75243748334869" lon="13.449861287267238"><ele>840.0</ele><time>2026-03-25T11:39:08.999Z</time></trkpt><trkpt lat="41.75231871140919" lon="13.449736888899839"><ele>840.0</ele><time>2026-03-25T11:39:09.999Z</time></trkpt><trkpt lat="41.752228841991084" lon="13.449612910254368"><ele>843.0</ele><time>2026-03-25T11:39:10.999Z</time></trkpt><trkpt lat="41.75215802089527" lon="13.449455680731045"><ele>846.0</ele><time>2026-03-25T11:39:11.999Z</time></trkpt><trkpt lat="41.75210291217794" lon="13.449250940377716"><ele>849.0</ele><time>2026-03-25T11:39:12.999Z</time></trkpt><trkpt lat="41.752073962744205" lon="13.449074654543573"><ele>852.0</ele><time>2026-03-25T11:39:13.999Z</time></trkpt><trkpt lat="41.75206192043189" lon="13.448956606035123"><ele>852.0</ele><time>2026-03-25T11:39:14.999Z</time></trkpt><trkpt lat="41.752084083011304" lon="13.448872346367082"><ele>852.0</ele><time>2026-03-25T11:39:15.999Z</time></trkpt><trkpt lat="41.75219161480545" lon="13.448862000687507"><ele>852.0</ele><time>2026-03-25T11:39:17.999Z</time></trkpt><trkpt lat="41.752235502871365" lon="13.448952751054351"><ele>852.0</ele><time>2026-03-25T11:39:18.999Z</time></trkpt><trkpt lat="41.75224245444326" lon="13.449098764716721"><ele>852.0</ele><time>2026-03-25T11:39:19.999Z</time></trkpt><trkpt lat="41.752244044785954" lon="13.449276670510777"><ele>852.0</ele><time>2026-03-25T11:39:20.999Z</time></trkpt><trkpt lat="41.75229451132928" lon="13.44939524451495"><ele>852.0</ele><time>2026-03-25T11:39:21.999Z</time></trkpt><trkpt lat="41.752401364155354" lon="13.449472331065305"><ele>852.0</ele><time>2026-03-25T11:39:22.999Z</time></trkpt><trkpt lat="41.752567792339924" lon="13.449530855497153"><ele>852.0</ele><time>2026-03-25T11:39:23.999Z</time></trkpt><trkpt lat="41.75277559858115" lon="13.449587180299975"><ele>850.0</ele><time>2026-03-25T11:39:24.999Z</time></trkpt><trkpt lat="41.75300218635215" lon="13.44966655622614"><ele>848.0</ele><time>2026-03-25T11:39:25.999Z</time></trkpt><trkpt lat="41.753248863508766" lon="13.449726400927505"><ele>848.0</ele><time>2026-03-25T11:39:26.999Z</time></trkpt><trkpt lat="41.75351330195139" lon="13.449763975075903"><ele>848.0</ele><time>2026-03-25T11:39:27.999Z</time></trkpt><trkpt lat="41.75374118498975" lon="13.449798896833112"><ele>850.3333333333334</ele><time>2026-03-25T11:39:28.999Z</time></trkpt><trkpt lat="41.753951036423786" lon="13.449826790103332"><ele>852.6666666666667</ele><time>2026-03-25T11:39:29.999Z</time></trkpt><trkpt lat="41.754171675353454" lon="13.449820572455046"><ele>855.0</ele><time>2026-03-25T11:39:30.999Z</time></trkpt><trkpt lat="41.754394876869846" lon="13.449765025833962"><ele>858.3333333333333</ele><time>2026-03-25T11:39:31.999Z</time></trkpt><trkpt lat="41.75457418347438" lon="13.449701666776999"><ele>861.6666666666666</ele><time>2026-03-25T11:39:33Z</time></trkpt><trkpt lat="41.75472232488206" lon="13.449655912568524"><ele>865.0</ele><time>2026-03-25T11:39:34Z</time></trkpt><trkpt lat="41.75485919338064" lon="13.449645531580943"><ele>865.0</ele><time>2026-03-25T11:39:35Z</time></trkpt><trkpt lat="41.755004916834885" lon="13.449688650576942"><ele>865.0</ele><time>2026-03-25T11:39:36Z</time></trkpt><trkpt lat="41.75513645426249" lon="13.449810534219425"><ele>865.0</ele><time>2026-03-25T11:39:37Z</time></trkpt><trkpt lat="41.75523972460263" lon="13.449953518909739"><ele>867.3333333333333</ele><time>2026-03-25T11:39:38Z</time></trkpt><trkpt lat="41.75531831151306" lon="13.450136263554938"><ele>869.6666666666667</ele><time>2026-03-25T11:39:39Z</time></trkpt><trkpt lat="41.75539397730483" lon="13.4503568545066"><ele>872.0</ele><time>2026-03-25T11:39:40Z</time></trkpt><trkpt lat="41.75547623643247" lon="13.450543057190846"><ele>872.0</ele><time>2026-03-25T11:39:41Z</time></trkpt><trkpt lat="41.75558577270239" lon="13.4506742845925"><ele>872.0</ele><time>2026-03-25T11:39:42Z</time></trkpt><trkpt lat="41.75574258440722" lon="13.450772706483379"><ele>872.0</ele><time>2026-03-25T11:39:43Z</time></trkpt><trkpt lat="41.7559104620276" lon="13.450856924386054"><ele>879.0</ele><time>2026-03-25T11:39:44Z</time></trkpt><trkpt lat="41.75608006109366" lon="13.450937037966765"><ele>886.0</ele><time>2026-03-25T11:39:45Z</time></trkpt><trkpt lat="41.756248503996595" lon="13.45099786660419"><ele>893.0</ele><time>2026-03-25T11:39:46Z</time></trkpt><trkpt lat="41.756400281433706" lon="13.451024056946919"><ele>893.0</ele><time>2026-03-25T11:39:47Z</time></trkpt><trkpt lat="41.75652520943296" lon="13.451044074984594"><ele>893.0</ele><time>2026-03-25T11:39:48Z</time></trkpt><trkpt lat="41.75662927456346" lon="13.45106763435266"><ele>893.0</ele><time>2026-03-25T11:39:49Z</time></trkpt><trkpt lat="41.75671457350418" lon="13.451105393806865"><ele>893.0</ele><time>2026-03-25T11:39:50Z</time></trkpt><trkpt lat="41.756769523389686" lon="13.45117390133485"><ele>893.0</ele><time>2026-03-25T11:39:51Z</time></trkpt><trkpt lat="41.756800138738846" lon="13.451279443859159"><ele>891.5</ele><time>2026-03-25T11:39:52Z</time></trkpt><trkpt lat="41.756796383817694" lon="13.451413175260114"><ele>890.0</ele><time>2026-03-25T11:39:53Z</time></trkpt><trkpt lat="41.75675165813612" lon="13.451572468766503"><ele>888.5</ele><time>2026-03-25T11:39:54Z</time></trkpt><trkpt lat="41.756691850389885" lon="13.451751745020847"><ele>887.0</ele><time>2026-03-25T11:39:54.999Z</time></trkpt><trkpt lat="41.75661905395481" lon="13.45197151628891"><ele>893.0</ele><time>2026-03-25T11:39:55.999Z</time></trkpt><trkpt lat="41.75652341959448" lon="13.452198088393136"><ele>899.0</ele><time>2026-03-25T11:39:56.999Z</time></trkpt><trkpt lat="41.756402702541614" lon="13.452440228020466"><ele>905.0</ele><time>2026-03-25T11:39:57.999Z</time></trkpt><trkpt lat="41.756288430981165" lon="13.452631522394983"><ele>905.0</ele><time>2026-03-25T11:39:58.999Z</time></trkpt><trkpt lat="41.75620719918753" lon="13.452791841506302"><ele>905.0</ele><time>2026-03-25T11:39:59.999Z</time></trkpt><trkpt lat="41.75614920234243" lon="13.452976285146674"><ele>905.0</ele><time>2026-03-25T11:40:00.999Z</time></trkpt><trkpt lat="41.75613270009346" lon="13.45316672475364"><ele>905.0</ele><time>2026-03-25T11:40:01.999Z</time></trkpt><trkpt lat="41.756153616409556" lon="13.453335111415663"><ele>906.0</ele><time>2026-03-25T11:40:02.999Z</time></trkpt><trkpt lat="41.75619642915887" lon="13.45347524783193"><ele>907.0</ele><time>2026-03-25T11:40:03.999Z</time></trkpt><trkpt lat="41.75621631695552" lon="13.453593284851271"><ele>908.0</ele><time>2026-03-25T11:40:04.999Z</time></trkpt><trkpt lat="41.75618189405559" lon="13.453698301217333"><ele>909.0</ele><time>2026-03-25T11:40:05.999Z</time></trkpt><trkpt lat="41.75610827359889" lon="13.453791426093703"><ele>910.0</ele><time>2026-03-25T11:40:06.999Z</time></trkpt><trkpt lat="41.75599879238748" lon="13.453844669568834"><ele>910.0</ele><time>2026-03-25T11:40:07.999Z</time></trkpt><trkpt lat="41.755855527985936" lon="13.453877431726129"><ele>910.0</ele><time>2026-03-25T11:40:08.999Z</time></trkpt><trkpt lat="41.75572349213219" lon="13.453931782789574"><ele>910.0</ele><time>2026-03-25T11:40:09.999Z</time></trkpt><trkpt lat="41.75563524843728" lon="13.454038428826856"><ele>910.0</ele><time>2026-03-25T11:40:10.999Z</time></trkpt><trkpt lat="41.75555464494375" lon="13.454170179789413"><ele>910.0</ele><time>2026-03-25T11:40:11.999Z</time></trkpt><trkpt lat="41.75548068823797" lon="13.454318622270366"><ele>910.0</ele><time>2026-03-25T11:40:12.999Z</time></trkpt><trkpt lat="41.755405709457285" lon="13.454483807772304"><ele>910.0</ele><time>2026-03-25T11:40:13.999Z</time></trkpt><trkpt lat="41.75533550197751" lon="13.454677806998271"><ele>910.0</ele><time>2026-03-25T11:40:14.999Z</time></trkpt><trkpt lat="41.75526963214715" lon="13.454868974593838"><ele>906.0</ele><time>2026-03-25T11:40:15.999Z</time></trkpt><trkpt lat="41.755193974002445" lon="13.455057444768789"><ele>902.0</ele><time>2026-03-25T11:40:16.999Z</time></trkpt><trkpt lat="41.75509836535548" lon="13.45524658739276"><ele>898.0</ele><time>2026-03-25T11:40:17.999Z</time></trkpt><trkpt lat="41.754981781015346" lon="13.455441835090205"><ele>907.6666666666666</ele><time>2026-03-25T11:40:18.999Z</time></trkpt><trkpt lat="41.75485725171147" lon="13.455641746140513"><ele>917.3333333333333</ele><time>2026-03-25T11:40:19.999Z</time></trkpt><trkpt lat="41.75473689287938" lon="13.455814963040655"><ele>927.0</ele><time>2026-03-25T11:40:20.999Z</time></trkpt><trkpt lat="41.754652616221165" lon="13.455961981537575"><ele>927.0</ele><time>2026-03-25T11:40:21.999Z</time></trkpt><trkpt lat="41.75460060350115" lon="13.456078342583941"><ele>927.0</ele><time>2026-03-25T11:40:22.999Z</time></trkpt><trkpt lat="41.754579299333635" lon="13.456218659764792"><ele>927.0</ele><time>2026-03-25T11:40:23.999Z</time></trkpt><trkpt lat="41.75458432429479" lon="13.456410007848495"><ele>927.0</ele><time>2026-03-25T11:40:24.999Z</time></trkpt><trkpt lat="41.754593453787244" lon="13.456617170920504"><ele>933.6666666666667</ele><time>2026-03-25T11:40:25.999Z</time></trkpt><trkpt lat="41.75459475190012" lon="13.456814848983473"><ele>940.3333333333334</ele><time>2026-03-25T11:40:26.999Z</time></trkpt><trkpt lat="41.75458385668672" lon="13.45701494016078"><ele>947.0</ele><time>2026-03-25T11:40:27.999Z</time></trkpt><trkpt lat="41.75456289786287" lon="13.45721979333568"><ele>948.0</ele><time>2026-03-25T11:40:28.999Z</time></trkpt><trkpt lat="41.75454088692692" lon="13.457428513872927"><ele>949.0</ele><time>2026-03-25T11:40:29.999Z</time></trkpt><trkpt lat="41.754556288105576" lon="13.457637288351098"><ele>950.0</ele><time>2026-03-25T11:40:30.999Z</time></trkpt><trkpt lat="41.75460824379271" lon="13.45783696323363"><ele>942.0</ele><time>2026-03-25T11:40:31.999Z</time></trkpt><trkpt lat="41.75470143195594" lon="13.458018935702926"><ele>934.0</ele><time>2026-03-25T11:40:32.999Z</time></trkpt><trkpt lat="41.75483222569263" lon="13.458184560536813"><ele>926.0</ele><time>2026-03-25T11:40:33.999Z</time></trkpt><trkpt lat="41.75497086712811" lon="13.458330423966917"><ele>926.0</ele><time>2026-03-25T11:40:34.999Z</time></trkpt><trkpt lat="41.75512990214807" lon="13.458433897157642"><ele>926.0</ele><time>2026-03-25T11:40:35.999Z</time></trkpt><trkpt lat="41.75530362409903" lon="13.458495888654753"><ele>926.0</ele><time>2026-03-25T11:40:36.999Z</time></trkpt><trkpt lat="41.75543988097423" lon="13.458616120518945"><ele>932.0</ele><time>2026-03-25T11:40:37.999Z</time></trkpt><trkpt lat="41.755554059740966" lon="13.458712851303723"><ele>938.0</ele><time>2026-03-25T11:40:38.999Z</time></trkpt><trkpt lat="41.75567243858704" lon="13.458774719393647"><ele>944.0</ele><time>2026-03-25T11:40:39.999Z</time></trkpt><trkpt lat="41.755749936072675" lon="13.45884818816983"><ele>950.0</ele><time>2026-03-25T11:40:40.999Z</time></trkpt><trkpt lat="41.75581398081828" lon="13.458948899196292"><ele>950.0</ele><time>2026-03-25T11:40:41.999Z</time></trkpt><trkpt lat="41.75582981695559" lon="13.45903618302984"><ele>950.0</ele><time>2026-03-25T11:40:42.999Z</time></trkpt><trkpt lat="41.75577126563138" lon="13.459122519540712"><ele>950.0</ele><time>2026-03-25T11:40:43.999Z</time></trkpt><trkpt lat="41.755705544896564" lon="13.4591913584655"><ele>950.0</ele><time>2026-03-25T11:40:44.999Z</time></trkpt><trkpt lat="41.75560559388094" lon="13.459268812366169"><ele>950.0</ele><time>2026-03-25T11:40:45.999Z</time></trkpt><trkpt lat="41.75551725828812" lon="13.459409833333455"><ele>950.0</ele><time>2026-03-25T11:40:46.999Z</time></trkpt><trkpt lat="41.75545341718328" lon="13.459557428227857"><ele>950.0</ele><time>2026-03-25T11:40:47.999Z</time></trkpt><trkpt lat="41.75541191601155" lon="13.459713495122493"><ele>950.0</ele><time>2026-03-25T11:40:48.999Z</time></trkpt><trkpt lat="41.75541330241336" lon="13.459901472241983"><ele>950.0</ele><time>2026-03-25T11:40:49.999Z</time></trkpt><trkpt lat="41.755418436898275" lon="13.460109147776958"><ele>949.25</ele><time>2026-03-25T11:40:50.999Z</time></trkpt><trkpt lat="41.75541557373571" lon="13.460296686627911"><ele>948.5</ele><time>2026-03-25T11:40:51.999Z</time></trkpt><trkpt lat="41.7554041258859" lon="13.460474672256556"><ele>947.75</ele><time>2026-03-25T11:40:52.999Z</time></trkpt><trkpt lat="41.75542083743159" lon="13.460608307139134"><ele>947.0</ele><time>2026-03-25T11:40:53.999Z</time></trkpt><trkpt lat="41.75547899306033" lon="13.460709890865372"><ele>947.0</ele><time>2026-03-25T11:40:54.999Z</time></trkpt><trkpt lat="41.75559900492682" lon="13.460726435754818"><ele>947.0</ele><time>2026-03-25T11:40:55.999Z</time></trkpt><trkpt lat="41.75572876735204" lon="13.460750364380436"><ele>947.0</ele><time>2026-03-25T11:40:56.999Z</time></trkpt><trkpt lat="41.75587039826439" lon="13.46082115919484"><ele>947.0</ele><time>2026-03-25T11:40:57.999Z</time></trkpt><trkpt lat="41.756026987943635" lon="13.460864125495027"><ele>963.0</ele><time>2026-03-25T11:40:58.999Z</time></trkpt><trkpt lat="41.756175557087964" lon="13.460951142733444"><ele>979.0</ele><time>2026-03-25T11:40:59.999Z</time></trkpt><trkpt lat="41.75630249536049" lon="13.46107561893253"><ele>995.0</ele><time>2026-03-25T11:41:00.999Z</time></trkpt><trkpt lat="41.75638353478518" lon="13.461236013021066"><ele>991.0</ele><time>2026-03-25T11:41:01.999Z</time></trkpt><trkpt lat="41.75644331744689" lon="13.461367445169389"><ele>987.0</ele><time>2026-03-25T11:41:02.999Z</time></trkpt><trkpt lat="41.756455762067006" lon="13.461492881351617"><ele>983.0</ele><time>2026-03-25T11:41:03.999Z</time></trkpt><trkpt lat="41.75644944610779" lon="13.46162096865388"><ele>979.0</ele><time>2026-03-25T11:41:04.999Z</time></trkpt><trkpt lat="41.75644400244298" lon="13.461792032893294"><ele>975.0</ele><time>2026-03-25T11:41:05.999Z</time></trkpt><trkpt lat="41.75642969557587" lon="13.461982008182915"><ele>971.5</ele><time>2026-03-25T11:41:06.999Z</time></trkpt><trkpt lat="41.75641332525494" lon="13.462177186874342"><ele>968.0</ele><time>2026-03-25T11:41:07.999Z</time></trkpt><trkpt lat="41.75641112751917" lon="13.462359361335265"><ele>964.5</ele><time>2026-03-25T11:41:08.999Z</time></trkpt><trkpt lat="41.75639383589136" lon="13.46248486549284"><ele>961.0</ele><time>2026-03-25T11:41:09.999Z</time></trkpt><trkpt lat="41.75640370339461" lon="13.462582526134483"><ele>961.0</ele><time>2026-03-25T11:41:10.999Z</time></trkpt><trkpt lat="41.75645574046478" lon="13.462647872588354"><ele>961.0</ele><time>2026-03-25T11:41:11.999Z</time></trkpt><trkpt lat="41.75654950191256" lon="13.46267610098926"><ele>961.0</ele><time>2026-03-25T11:41:12.999Z</time></trkpt><trkpt lat="41.75668153591089" lon="13.462614389737592"><ele>961.0</ele><time>2026-03-25T11:41:13.999Z</time></trkpt><trkpt lat="41.756839919344536" lon="13.462619367605834"><ele>968.5</ele><time>2026-03-25T11:41:14.999Z</time></trkpt><trkpt lat="41.75698436874591" lon="13.462600179141434"><ele>976.0</ele><time>2026-03-25T11:41:15.999Z</time></trkpt><trkpt lat="41.75712609891901" lon="13.462639563410292"><ele>983.5</ele><time>2026-03-25T11:41:16.999Z</time></trkpt><trkpt lat="41.75727352291687" lon="13.462622704073107"><ele>991.0</ele><time>2026-03-25T11:41:17.999Z</time></trkpt><trkpt lat="41.757371834214695" lon="13.462610145071212"><ele>991.0</ele><time>2026-03-25T11:41:18.999Z</time></trkpt><trkpt lat="41.7574461539329" lon="13.462647054034258"><ele>990.9999999999999</ele><time>2026-03-25T11:41:19.999Z</time></trkpt><trkpt lat="41.757493299117634" lon="13.462742549220561"><ele>990.9999999999999</ele><time>2026-03-25T11:41:20.999Z</time></trkpt><trkpt lat="41.757507788561654" lon="13.46289169544012"><ele>991.0</ele><time>2026-03-25T11:41:21.999Z</time></trkpt><trkpt lat="41.75752599434626" lon="13.46307360755954"><ele>991.0</ele><time>2026-03-25T11:41:22.999Z</time></trkpt><trkpt lat="41.757566939511946" lon="13.463263580100103"><ele>986.0</ele><time>2026-03-25T11:41:23.999Z</time></trkpt><trkpt lat="41.75758366396103" lon="13.463441873119978"><ele>981.0</ele><time>2026-03-25T11:41:24.999Z</time></trkpt><trkpt lat="41.757626792296456" lon="13.46363068523763"><ele>976.0</ele><time>2026-03-25T11:41:25.999Z</time></trkpt><trkpt lat="41.75766453148615" lon="13.463824590561053"><ele>971.0</ele><time>2026-03-25T11:41:26.999Z</time></trkpt><trkpt lat="41.75772521853934" lon="13.464012955718713"><ele>977.5</ele><time>2026-03-25T11:41:27.999Z</time></trkpt><trkpt lat="41.75779585435804" lon="13.464192210804718"><ele>984.0</ele><time>2026-03-25T11:41:28.999Z</time></trkpt><trkpt lat="41.75783811758463" lon="13.464369188658777"><ele>990.5</ele><time>2026-03-25T11:41:29.999Z</time></trkpt><trkpt lat="41.75784345396403" lon="13.464533300682803"><ele>997.0</ele><time>2026-03-25T11:41:30.999Z</time></trkpt><trkpt lat="41.75778393768184" lon="13.46468391188039"><ele>996.9999999999999</ele><time>2026-03-25T11:41:31.999Z</time></trkpt><trkpt lat="41.75776992105386" lon="13.464833217403267"><ele>997.0</ele><time>2026-03-25T11:41:32.999Z</time></trkpt><trkpt lat="41.7577430854795" lon="13.464934240903549"><ele>997.0</ele><time>2026-03-25T11:41:33.999Z</time></trkpt><trkpt lat="41.75775967226828" lon="13.465016264805097"><ele>997.0</ele><time>2026-03-25T11:41:34.999Z</time></trkpt><trkpt lat="41.75782042697431" lon="13.465080803256368"><ele>996.9999999999999</ele><time>2026-03-25T11:41:35.999Z</time></trkpt><trkpt lat="41.75792304637326" lon="13.465104841610408"><ele>997.0</ele><time>2026-03-25T11:41:36.999Z</time></trkpt><trkpt lat="41.758057159928754" lon="13.465086436524697"><ele>997.0</ele><time>2026-03-25T11:41:37.999Z</time></trkpt><trkpt lat="41.758211215345725" lon="13.465100194175044"><ele>997.0</ele><time>2026-03-25T11:41:39Z</time></trkpt><trkpt lat="41.75835897829118" lon="13.4651421689578"><ele>997.0</ele><time>2026-03-25T11:41:40Z</time></trkpt><trkpt lat="41.75849410884924" lon="13.465180765878237"><ele>997.0</ele><time>2026-03-25T11:41:41Z</time></trkpt><trkpt lat="41.75858299807012" lon="13.46528343033117"><ele>1002.25</ele><time>2026-03-25T11:41:42Z</time></trkpt><trkpt lat="41.75865400328224" lon="13.46541177623781"><ele>1007.5</ele><time>2026-03-25T11:41:43Z</time></trkpt><trkpt lat="41.75869664574126" lon="13.465577380814928"><ele>1012.75</ele><time>2026-03-25T11:41:44Z</time></trkpt><trkpt lat="41.75872887399111" lon="13.465747673416955"><ele>1018.0</ele><time>2026-03-25T11:41:45Z</time></trkpt><trkpt lat="41.7587537056848" lon="13.465925913163092"><ele>1018.0</ele><time>2026-03-25T11:41:46Z</time></trkpt><trkpt lat="41.75880567537808" lon="13.466060116035903"><ele>1018.0</ele><time>2026-03-25T11:41:47Z</time></trkpt><trkpt lat="41.758890786858366" lon="13.466200766512133"><ele>1018.0</ele><time>2026-03-25T11:41:48Z</time></trkpt><trkpt lat="41.759008459118235" lon="13.466331489322966"><ele>1018.0</ele><time>2026-03-25T11:41:49Z</time></trkpt><trkpt lat="41.759150041645924" lon="13.466446623397788"><ele>1016.25</ele><time>2026-03-25T11:41:50Z</time></trkpt><trkpt lat="41.75928995664148" lon="13.46656565453781"><ele>1014.5</ele><time>2026-03-25T11:41:51Z</time></trkpt><trkpt lat="41.75940282478334" lon="13.466697606491282"><ele>1012.75</ele><time>2026-03-25T11:41:52Z</time></trkpt><trkpt lat="41.759486308935536" lon="13.466828684904675"><ele>1011.0</ele><time>2026-03-25T11:41:53Z</time></trkpt><trkpt lat="41.75955070849147" lon="13.466976438523313"><ele>1012.0</ele><time>2026-03-25T11:41:54Z</time></trkpt><trkpt lat="41.75960528482964" lon="13.46715038463691"><ele>1013.0</ele><time>2026-03-25T11:41:55Z</time></trkpt><trkpt lat="41.759673820538495" lon="13.467273326057866"><ele>1014.0</ele><time>2026-03-25T11:41:56Z</time></trkpt><trkpt lat="41.759744231042575" lon="13.46739972574527"><ele>1015.0</ele><time>2026-03-25T11:41:56.999Z</time></trkpt><trkpt lat="41.75986506213793" lon="13.467486656199664"><ele>1015.0</ele><time>2026-03-25T11:41:57.999Z</time></trkpt><trkpt lat="41.759988814562384" lon="13.467582844468403"><ele>1015.0</ele><time>2026-03-25T11:41:58.999Z</time></trkpt><trkpt lat="41.760103203051735" lon="13.467730994054742"><ele>1015.0</ele><time>2026-03-25T11:41:59.999Z</time></trkpt><trkpt lat="41.76019312611127" lon="13.467930445510786"><ele>1018.3333333333333</ele><time>2026-03-25T11:42:00.999Z</time></trkpt><trkpt lat="41.76029719206154" lon="13.46812243651732"><ele>1021.6666666666667</ele><time>2026-03-25T11:42:01.999Z</time></trkpt><trkpt lat="41.760431634424414" lon="13.468302795953287"><ele>1025.0</ele><time>2026-03-25T11:42:02.999Z</time></trkpt><trkpt lat="41.76058180869445" lon="13.468481778830181"><ele>1025.0</ele><time>2026-03-25T11:42:03.999Z</time></trkpt><trkpt lat="41.76071609377899" lon="13.46866412525088"><ele>1025.0</ele><time>2026-03-25T11:42:04.999Z</time></trkpt><trkpt lat="41.760815564445295" lon="13.468833153933025"><ele>1025.0</ele><time>2026-03-25T11:42:05.999Z</time></trkpt><trkpt lat="41.76085043504825" lon="13.469013043227912"><ele>1024.2</ele><time>2026-03-25T11:42:06.999Z</time></trkpt><trkpt lat="41.76084998566461" lon="13.469181983948108"><ele>1023.4</ele><time>2026-03-25T11:42:07.999Z</time></trkpt><trkpt lat="41.76086927154166" lon="13.46932710551434"><ele>1022.5999999999999</ele><time>2026-03-25T11:42:08.999Z</time></trkpt><trkpt lat="41.76089829147752" lon="13.469430062773698"><ele>1021.8</ele><time>2026-03-25T11:42:09.999Z</time></trkpt><trkpt lat="41.76098773351235" lon="13.469480247969567"><ele>1021.0</ele><time>2026-03-25T11:42:10.999Z</time></trkpt><trkpt lat="41.761129914878175" lon="13.469466509750706"><ele>1026.75</ele><time>2026-03-25T11:42:11.999Z</time></trkpt><trkpt lat="41.76126220094804" lon="13.469477997390701"><ele>1032.5</ele><time>2026-03-25T11:42:12.999Z</time></trkpt><trkpt lat="41.7613588916222" lon="13.469571631703364"><ele>1038.25</ele><time>2026-03-25T11:42:13.999Z</time></trkpt><trkpt lat="41.76142671794332" lon="13.469768120633164"><ele>1044.0</ele><time>2026-03-25T11:42:14.999Z</time></trkpt><trkpt lat="41.76150379370945" lon="13.469981717978522"><ele>1044.25</ele><time>2026-03-25T11:42:15.999Z</time></trkpt><trkpt lat="41.76153402522398" lon="13.470189445326374"><ele>1044.5</ele><time>2026-03-25T11:42:16.999Z</time></trkpt><trkpt lat="41.76155269684855" lon="13.470355907774294"><ele>1044.75</ele><time>2026-03-25T11:42:17.999Z</time></trkpt><trkpt lat="41.76151335269491" lon="13.470539271963736"><ele>1045.0</ele><time>2026-03-25T11:42:18.999Z</time></trkpt><trkpt lat="41.76147283436148" lon="13.470700031990575"><ele>1045.4</ele><time>2026-03-25T11:42:19.999Z</time></trkpt><trkpt lat="41.76143211082259" lon="13.470873282669414"><ele>1045.8</ele><time>2026-03-25T11:42:20.999Z</time></trkpt><trkpt lat="41.76145048351504" lon="13.471051226223441"><ele>1046.2</ele><time>2026-03-25T11:42:21.999Z</time></trkpt><trkpt lat="41.761487174103166" lon="13.47115700587096"><ele>1046.6</ele><time>2026-03-25T11:42:22.999Z</time></trkpt><trkpt lat="41.761556138778175" lon="13.471238348267596"><ele>1047.0</ele><time>2026-03-25T11:42:23.999Z</time></trkpt><trkpt lat="41.76167334290096" lon="13.471285196175241"><ele>1047.0</ele><time>2026-03-25T11:42:24.999Z</time></trkpt><trkpt lat="41.76183922590603" lon="13.471319386372954"><ele>1047.0</ele><time>2026-03-25T11:42:25.999Z</time></trkpt><trkpt lat="41.76203557386978" lon="13.471372128486452"><ele>1047.0</ele><time>2026-03-25T11:42:26.999Z</time></trkpt><trkpt lat="41.762251772473" lon="13.471456699032164"><ele>1049.3333333333333</ele><time>2026-03-25T11:42:27.999Z</time></trkpt><trkpt lat="41.7624502146203" lon="13.471532592901474"><ele>1051.6666666666665</ele><time>2026-03-25T11:42:28.999Z</time></trkpt><trkpt lat="41.762602519692855" lon="13.471610621266409"><ele>1054.0</ele><time>2026-03-25T11:42:29.999Z</time></trkpt><trkpt lat="41.762722937535656" lon="13.4717387654281"><ele>1058.6666666666665</ele><time>2026-03-25T11:42:30.999Z</time></trkpt><trkpt lat="41.76282941623903" lon="13.47193772475856"><ele>1063.3333333333333</ele><time>2026-03-25T11:42:31.999Z</time></trkpt><trkpt lat="41.76289755819137" lon="13.472203073194871"><ele>1068.0</ele><time>2026-03-25T11:42:32.999Z</time></trkpt><trkpt lat="41.76298356203349" lon="13.47249499794141"><ele>1068.0</ele><time>2026-03-25T11:42:33.999Z</time></trkpt><trkpt lat="41.76307315632531" lon="13.47281998051301"><ele>1068.0</ele><time>2026-03-25T11:42:34.999Z</time></trkpt><trkpt lat="41.76317764608712" lon="13.473128745315666"><ele>1068.0</ele><time>2026-03-25T11:42:35.999Z</time></trkpt><trkpt lat="41.76327039197389" lon="13.47339390740664"><ele>1068.0</ele><time>2026-03-25T11:42:36.999Z</time></trkpt><trkpt lat="41.763375855174736" lon="13.4736396683885"><ele>1068.0</ele><time>2026-03-25T11:42:37.999Z</time></trkpt><trkpt lat="41.76350871660637" lon="13.473877130140325"><ele>1071.0</ele><time>2026-03-25T11:42:38.999Z</time></trkpt><trkpt lat="41.76360778069275" lon="13.474144869307983"><ele>1074.0</ele><time>2026-03-25T11:42:39.999Z</time></trkpt><trkpt lat="41.763692984182356" lon="13.47445020060493"><ele>1073.6666666666667</ele><time>2026-03-25T11:42:40.999Z</time></trkpt><trkpt lat="41.76377243254839" lon="13.47471908288819"><ele>1073.3333333333335</ele><time>2026-03-25T11:42:41.999Z</time></trkpt><trkpt lat="41.763853951147034" lon="13.47492475865902"><ele>1073.0</ele><time>2026-03-25T11:42:42.999Z</time></trkpt><trkpt lat="41.76395954193157" lon="13.475099837592444"><ele>1073.0</ele><time>2026-03-25T11:42:43.999Z</time></trkpt><trkpt lat="41.7641012411986" lon="13.475262794115809"><ele>1073.0</ele><time>2026-03-25T11:42:44.999Z</time></trkpt><trkpt lat="41.764231657365734" lon="13.47546480731811"><ele>1073.0</ele><time>2026-03-25T11:42:45.999Z</time></trkpt><trkpt lat="41.76432126747694" lon="13.475752803592407"><ele>1079.6666666666667</ele><time>2026-03-25T11:42:46.999Z</time></trkpt><trkpt lat="41.76437828803545" lon="13.476050200227611"><ele>1086.3333333333333</ele><time>2026-03-25T11:42:47.999Z</time></trkpt><trkpt lat="41.76438906665823" lon="13.476300298495365"><ele>1093.0</ele><time>2026-03-25T11:42:48.999Z</time></trkpt><trkpt lat="41.76439587481025" lon="13.476489863742092"><ele>1093.0</ele><time>2026-03-25T11:42:49.999Z</time></trkpt><trkpt lat="41.76442265744171" lon="13.476661769518335"><ele>1093.0</ele><time>2026-03-25T11:42:50.999Z</time></trkpt><trkpt lat="41.76450298791041" lon="13.476849045918016"><ele>1093.0</ele><time>2026-03-25T11:42:51.999Z</time></trkpt><trkpt lat="41.76462929561909" lon="13.477042943537752"><ele>1089.0</ele><time>2026-03-25T11:42:52.999Z</time></trkpt><trkpt lat="41.76476762654273" lon="13.477223287658742"><ele>1085.0</ele><time>2026-03-25T11:42:53.999Z</time></trkpt><trkpt lat="41.764887983728485" lon="13.477386266599373"><ele>1081.0</ele><time>2026-03-25T11:42:54.999Z</time></trkpt><trkpt lat="41.765002881808584" lon="13.477498178756505"><ele>1081.0</ele><time>2026-03-25T11:42:55.999Z</time></trkpt><trkpt lat="41.76515212825035" lon="13.477550552223446"><ele>1081.0</ele><time>2026-03-25T11:42:56.999Z</time></trkpt><trkpt lat="41.76532656155901" lon="13.477590037669517"><ele>1081.0</ele><time>2026-03-25T11:42:57.999Z</time></trkpt><trkpt lat="41.76550227172858" lon="13.477639662340671"><ele>1085.0</ele><time>2026-03-25T11:42:58.999Z</time></trkpt><trkpt lat="41.76567499405515" lon="13.477690693682431"><ele>1089.0</ele><time>2026-03-25T11:42:59.999Z</time></trkpt><trkpt lat="41.765838676538046" lon="13.477735648637278"><ele>1093.0</ele><time>2026-03-25T11:43:00.999Z</time></trkpt><trkpt lat="41.765976544858766" lon="13.477769074002946"><ele>1093.0</ele><time>2026-03-25T11:43:01.999Z</time></trkpt><trkpt lat="41.76609002352852" lon="13.477821427030515"><ele>1093.0</ele><time>2026-03-25T11:43:02.999Z</time></trkpt><trkpt lat="41.7661499633689" lon="13.477930374745075"><ele>1093.0</ele><time>2026-03-25T11:43:03.999Z</time></trkpt><trkpt lat="41.766172525327846" lon="13.478113517318137"><ele>1093.0</ele><time>2026-03-25T11:43:04.999Z</time></trkpt><trkpt lat="41.76617369777546" lon="13.478338230625615"><ele>1093.0</ele><time>2026-03-25T11:43:05.999Z</time></trkpt><trkpt lat="41.76621498305211" lon="13.478538574168109"><ele>1093.0</ele><time>2026-03-25T11:43:06.999Z</time></trkpt><trkpt lat="41.76629720657414" lon="13.47871702197756"><ele>1093.0</ele><time>2026-03-25T11:43:07.999Z</time></trkpt><trkpt lat="41.76643598116875" lon="13.478887615976015"><ele>1095.0</ele><time>2026-03-25T11:43:08.999Z</time></trkpt><trkpt lat="41.76660603431467" lon="13.47906039720351"><ele>1097.0</ele><time>2026-03-25T11:43:09.999Z</time></trkpt><trkpt lat="41.766770719254765" lon="13.479255462983181"><ele>1099.0</ele><time>2026-03-25T11:43:10.999Z</time></trkpt><trkpt lat="41.76692962823654" lon="13.479465297343245"><ele>1101.0</ele><time>2026-03-25T11:43:11.999Z</time></trkpt><trkpt lat="41.76708340038928" lon="13.479662666473944"><ele>1103.0</ele><time>2026-03-25T11:43:12.999Z</time></trkpt><trkpt lat="41.76722054375157" lon="13.479857877361459"><ele>1105.0</ele><time>2026-03-25T11:43:13.999Z</time></trkpt><trkpt lat="41.7673406407942" lon="13.48005567640238"><ele>1105.0</ele><time>2026-03-25T11:43:14.999Z</time></trkpt><trkpt lat="41.76747359522242" lon="13.480242083388832"><ele>1105.0</ele><time>2026-03-25T11:43:15.999Z</time></trkpt><trkpt lat="41.76761219978011" lon="13.480424157150628"><ele>1105.0</ele><time>2026-03-25T11:43:16.999Z</time></trkpt><trkpt lat="41.76773824078183" lon="13.480616530702967"><ele>1104.3333333333333</ele><time>2026-03-25T11:43:17.999Z</time></trkpt><trkpt lat="41.76785228787438" lon="13.48082060219735"><ele>1103.6666666666667</ele><time>2026-03-25T11:43:18.999Z</time></trkpt><trkpt lat="41.76796588928672" lon="13.48101564774223"><ele>1103.0</ele><time>2026-03-25T11:43:19.999Z</time></trkpt><trkpt lat="41.76808146612063" lon="13.481230082973761"><ele>1102.6666666666667</ele><time>2026-03-25T11:43:20.999Z</time></trkpt><trkpt lat="41.768202458912455" lon="13.481454646526313"><ele>1102.3333333333333</ele><time>2026-03-25T11:43:21.999Z</time></trkpt><trkpt lat="41.76832415988602" lon="13.481681102665796"><ele>1102.0</ele><time>2026-03-25T11:43:22.999Z</time></trkpt><trkpt lat="41.76844831855737" lon="13.48192175822866"><ele>1106.0</ele><time>2026-03-25T11:43:23.999Z</time></trkpt><trkpt lat="41.76857088600063" lon="13.482150432900209"><ele>1110.0</ele><time>2026-03-25T11:43:24.999Z</time></trkpt><trkpt lat="41.768684684033474" lon="13.482374646450573"><ele>1114.0</ele><time>2026-03-25T11:43:25.999Z</time></trkpt><trkpt lat="41.768771608389144" lon="13.482607940659618"><ele>1114.0</ele><time>2026-03-25T11:43:26.999Z</time></trkpt><trkpt lat="41.768819467127884" lon="13.482823027500366"><ele>1114.0</ele><time>2026-03-25T11:43:27.999Z</time></trkpt><trkpt lat="41.76887848176808" lon="13.483002772196976"><ele>1114.0</ele><time>2026-03-25T11:43:28.999Z</time></trkpt><trkpt lat="41.768964235395934" lon="13.483163146865634"><ele>1113.25</ele><time>2026-03-25T11:43:29.999Z</time></trkpt><trkpt lat="41.76908713351202" lon="13.483296139077424"><ele>1112.5</ele><time>2026-03-25T11:43:30.999Z</time></trkpt><trkpt lat="41.769155957970916" lon="13.483458392829954"><ele>1111.75</ele><time>2026-03-25T11:43:31.999Z</time></trkpt><trkpt lat="41.76916985389228" lon="13.483646431358123"><ele>1111.0</ele><time>2026-03-25T11:43:32.999Z</time></trkpt><trkpt lat="41.76913163996798" lon="13.48382713669195"><ele>1110.25</ele><time>2026-03-25T11:43:34Z</time></trkpt><trkpt lat="41.76913128986556" lon="13.483983907202491"><ele>1109.5</ele><time>2026-03-25T11:43:35Z</time></trkpt><trkpt lat="41.76918057702815" lon="13.484150968876234"><ele>1108.75</ele><time>2026-03-25T11:43:36Z</time></trkpt><trkpt lat="41.76927796130252" lon="13.484315954188316"><ele>1108.0</ele><time>2026-03-25T11:43:37Z</time></trkpt><trkpt lat="41.76938845528968" lon="13.484494946634479"><ele>1110.0</ele><time>2026-03-25T11:43:38Z</time></trkpt><trkpt lat="41.76949324511701" lon="13.484688912415763"><ele>1112.0</ele><time>2026-03-25T11:43:39Z</time></trkpt><trkpt lat="41.769593508997666" lon="13.484881130244789"><ele>1114.0</ele><time>2026-03-25T11:43:40Z</time></trkpt><trkpt lat="41.76970032690854" lon="13.485081386471334"><ele>1114.0</ele><time>2026-03-25T11:43:41Z</time></trkpt><trkpt lat="41.76981071829163" lon="13.485281706294803"><ele>1114.0</ele><time>2026-03-25T11:43:42Z</time></trkpt><trkpt lat="41.769919521972525" lon="13.48548483373098"><ele>1114.0</ele><time>2026-03-25T11:43:43Z</time></trkpt><trkpt lat="41.77002887543801" lon="13.485687760569657"><ele>1113.0</ele><time>2026-03-25T11:43:44Z</time></trkpt><trkpt lat="41.770140387319735" lon="13.485893532813368"><ele>1112.0</ele><time>2026-03-25T11:43:45.001Z</time></trkpt><trkpt lat="41.77025363610796" lon="13.48609901664726"><ele>1111.0</ele><time>2026-03-25T11:43:46.001Z</time></trkpt><trkpt lat="41.77036998276884" lon="13.486292413063607"><ele>1111.0</ele><time>2026-03-25T11:43:47.001Z</time></trkpt><trkpt lat="41.77047531381379" lon="13.486480597122522"><ele>1111.0</ele><time>2026-03-25T11:43:48.001Z</time></trkpt><trkpt lat="41.7705733582124" lon="13.486651730677721"><ele>1111.0</ele><time>2026-03-25T11:43:49.001Z</time></trkpt><trkpt lat="41.77066744586088" lon="13.48681977144943"><ele>1111.0</ele><time>2026-03-25T11:43:50Z</time></trkpt><trkpt lat="41.77075906925269" lon="13.486987728156546"><ele>1111.0</ele><time>2026-03-25T11:43:51Z</time></trkpt><trkpt lat="41.7708535262373" lon="13.487164745656587"><ele>1111.0</ele><time>2026-03-25T11:43:52.001Z</time></trkpt><trkpt lat="41.77095465080124" lon="13.487340973577368"><ele>1112.6666666666665</ele><time>2026-03-25T11:43:53Z</time></trkpt><trkpt lat="41.771054528947886" lon="13.487536938428274"><ele>1114.3333333333333</ele><time>2026-03-25T11:43:54.001Z</time></trkpt><trkpt lat="41.77115319270564" lon="13.487764429239018"><ele>1116.0</ele><time>2026-03-25T11:43:55.001Z</time></trkpt><trkpt lat="41.771256240158976" lon="13.488011418687648"><ele>1116.0</ele><time>2026-03-25T11:43:56Z</time></trkpt><trkpt lat="41.77136978432157" lon="13.488272313279646"><ele>1116.0</ele><time>2026-03-25T11:43:57.001Z</time></trkpt><trkpt lat="41.77148890494542" lon="13.48855315802157"><ele>1117.0</ele><time>2026-03-25T11:43:58.001Z</time></trkpt><trkpt lat="41.77162444154373" lon="13.488863402013987"><ele>1118.0</ele><time>2026-03-25T11:43:59Z</time></trkpt><trkpt lat="41.77176856802869" lon="13.489174011225836"><ele>1119.3333333333335</ele><time>2026-03-25T11:44:00Z</time></trkpt><trkpt lat="41.77188385392999" lon="13.489425297494265"><ele>1120.6666666666667</ele><time>2026-03-25T11:44:01Z</time></trkpt><trkpt lat="41.77199379509739" lon="13.489649563122605"><ele>1122.0</ele><time>2026-03-25T11:44:02Z</time></trkpt><trkpt lat="41.772091423924614" lon="13.489854960093824"><ele>1122.0</ele><time>2026-03-25T11:44:03Z</time></trkpt><trkpt lat="41.77218652604681" lon="13.490049471817004"><ele>1122.0</ele><time>2026-03-25T11:44:04Z</time></trkpt><trkpt lat="41.77228507286652" lon="13.490249448540384"><ele>1122.0</ele><time>2026-03-25T11:44:05Z</time></trkpt><trkpt lat="41.772387713197574" lon="13.490458405073898"><ele>1121.6666666666667</ele><time>2026-03-25T11:44:06Z</time></trkpt><trkpt lat="41.772502742501324" lon="13.490670945012528"><ele>1121.3333333333335</ele><time>2026-03-25T11:44:07Z</time></trkpt><trkpt lat="41.77263633137429" lon="13.490886499380913"><ele>1121.0</ele><time>2026-03-25T11:44:08Z</time></trkpt><trkpt lat="41.772785138962895" lon="13.491104127861144"><ele>1126.5</ele><time>2026-03-25T11:44:09Z</time></trkpt><trkpt lat="41.77295159421789" lon="13.49132750343112"><ele>1132.0</ele><time>2026-03-25T11:44:10Z</time></trkpt><trkpt lat="41.77314368421831" lon="13.491557650896743"><ele>1132.0</ele><time>2026-03-25T11:44:11Z</time></trkpt><trkpt lat="41.77332464002481" lon="13.491753233736311"><ele>1132.0</ele><time>2026-03-25T11:44:12Z</time></trkpt><trkpt lat="41.77348809605843" lon="13.491916203343918"><ele>1132.0</ele><time>2026-03-25T11:44:13Z</time></trkpt><trkpt lat="41.77363403516494" lon="13.492058925915417"><ele>1133.0</ele><time>2026-03-25T11:44:14Z</time></trkpt><trkpt lat="41.77375504080538" lon="13.492186939943942"><ele>1134.0</ele><time>2026-03-25T11:44:15Z</time></trkpt><trkpt lat="41.77386968369538" lon="13.49229595925352"><ele>1135.0</ele><time>2026-03-25T11:44:16Z</time></trkpt><trkpt lat="41.7739757892424" lon="13.492372479625544"><ele>1136.0</ele><time>2026-03-25T11:44:17Z</time></trkpt><trkpt lat="41.774064949017365" lon="13.492433587342507"><ele>1136.0</ele><time>2026-03-25T11:44:18Z</time></trkpt><trkpt lat="41.77414045873082" lon="13.492479886610496"><ele>1136.0</ele><time>2026-03-25T11:44:19Z</time></trkpt><trkpt lat="41.774205026162335" lon="13.492525320075432"><ele>1136.0</ele><time>2026-03-25T11:44:20Z</time></trkpt><trkpt lat="41.77430969822457" lon="13.492590106889386"><ele>1136.0</ele><time>2026-03-25T11:44:22Z</time></trkpt><trkpt lat="41.77439504181611" lon="13.49262050262426"><ele>1136.0</ele><time>2026-03-25T11:44:24Z</time></trkpt><trkpt lat="41.77445695375105" lon="13.49259909599436"><ele>1136.0</ele><time>2026-03-25T11:44:26Z</time></trkpt><trkpt lat="41.77450514144546" lon="13.492504232646395"><ele>1136.0</ele><time>2026-03-25T11:44:29Z</time></trkpt><trkpt lat="41.774567515247256" lon="13.492516694142786"><ele>1136.0</ele><time>2026-03-25T11:45:46Z</time></trkpt><trkpt lat="41.774491976463395" lon="13.49256344025715"><ele>1136.0</ele><time>2026-03-25T11:53:12Z</time></trkpt><trkpt lat="41.77440955044539" lon="13.492551211818384"><ele>1136.0</ele><time>2026-03-25T11:53:14Z</time></trkpt><trkpt lat="41.77433183777492" lon="13.492512159065305"><ele>1136.0</ele><time>2026-03-25T11:53:16Z</time></trkpt><trkpt lat="41.77423108090026" lon="13.492484703471764"><ele>1136.0</ele><time>2026-03-25T11:53:18Z</time></trkpt><trkpt lat="41.77413243332488" lon="13.492448515693118"><ele>1136.0</ele><time>2026-03-25T11:53:20Z</time></trkpt><trkpt lat="41.77403441959649" lon="13.49240468204219"><ele>1136.0</ele><time>2026-03-25T11:53:22Z</time></trkpt><trkpt lat="41.77393840846153" lon="13.492337727022687"><ele>1136.0</ele><time>2026-03-25T11:53:24Z</time></trkpt><trkpt lat="41.77384381415058" lon="13.49225971018987"><ele>1136.0</ele><time>2026-03-25T11:53:26Z</time></trkpt><trkpt lat="41.773752227443936" lon="13.492164422973687"><ele>1136.0</ele><time>2026-03-25T11:53:28Z</time></trkpt><trkpt lat="41.773700580973916" lon="13.492108734871348"><ele>1136.5</ele><time>2026-03-25T11:53:29Z</time></trkpt><trkpt lat="41.77364127325433" lon="13.492047617896086"><ele>1137.0</ele><time>2026-03-25T11:53:30Z</time></trkpt><trkpt lat="41.77358246437402" lon="13.491984159176248"><ele>1137.5</ele><time>2026-03-25T11:53:31Z</time></trkpt><trkpt lat="41.773522637217475" lon="13.491914172906643"><ele>1138.0</ele><time>2026-03-25T11:53:32Z</time></trkpt><trkpt lat="41.773465546607866" lon="13.491848666526847"><ele>1138.5</ele><time>2026-03-25T11:53:33Z</time></trkpt><trkpt lat="41.77341167839828" lon="13.491797585119532"><ele>1139.0</ele><time>2026-03-25T11:53:34Z</time></trkpt><trkpt lat="41.7733114173536" lon="13.491698832426724"><ele>1138.1666666666667</ele><time>2026-03-25T11:53:36Z</time></trkpt><trkpt lat="41.77325084403527" lon="13.491637970231562"><ele>1137.3333333333335</ele><time>2026-03-25T11:53:37Z</time></trkpt><trkpt lat="41.773185130676765" lon="13.491569580934405"><ele>1136.5</ele><time>2026-03-25T11:53:38Z</time></trkpt><trkpt lat="41.77311586550537" lon="13.491486185088782"><ele>1135.6666666666667</ele><time>2026-03-25T11:53:39Z</time></trkpt><trkpt lat="41.77304642429743" lon="13.491399248887191"><ele>1134.8333333333333</ele><time>2026-03-25T11:53:40Z</time></trkpt><trkpt lat="41.7729729834474" lon="13.491310083878226"><ele>1134.0</ele><time>2026-03-25T11:53:41Z</time></trkpt><trkpt lat="41.772901063815674" lon="13.491219222761792"><ele>1134.0</ele><time>2026-03-25T11:53:42Z</time></trkpt><trkpt lat="41.77283281326665" lon="13.49112261171255"><ele>1134.0</ele><time>2026-03-25T11:53:43Z</time></trkpt><trkpt lat="41.77276324858304" lon="13.491024394649635"><ele>1134.0</ele><time>2026-03-25T11:53:44Z</time></trkpt><trkpt lat="41.77268940389908" lon="13.490916024206955"><ele>1134.0</ele><time>2026-03-25T11:53:45Z</time></trkpt><trkpt lat="41.77260885911455" lon="13.490796057443434"><ele>1134.0</ele><time>2026-03-25T11:53:46Z</time></trkpt><trkpt lat="41.77252671381155" lon="13.490666455083439"><ele>1131.0</ele><time>2026-03-25T11:53:47Z</time></trkpt><trkpt lat="41.7724449367401" lon="13.490527103958167"><ele>1128.0</ele><time>2026-03-25T11:53:48Z</time></trkpt><trkpt lat="41.77236680316111" lon="13.49037796972552"><ele>1125.0</ele><time>2026-03-25T11:53:49Z</time></trkpt><trkpt lat="41.7722890247364" lon="13.490229072179472"><ele>1122.0</ele><time>2026-03-25T11:53:50Z</time></trkpt><trkpt lat="41.77222519512358" lon="13.490077451561127"><ele>1122.0</ele><time>2026-03-25T11:53:51Z</time></trkpt><trkpt lat="41.77215439479547" lon="13.489935735723366"><ele>1122.0</ele><time>2026-03-25T11:53:52Z</time></trkpt><trkpt lat="41.772077485337675" lon="13.489769877201308"><ele>1122.0</ele><time>2026-03-25T11:53:53Z</time></trkpt><trkpt lat="41.77199760355571" lon="13.489597134738212"><ele>1122.0</ele><time>2026-03-25T11:53:54Z</time></trkpt><trkpt lat="41.77191259046756" lon="13.489410528001118"><ele>1120.6666666666667</ele><time>2026-03-25T11:53:55Z</time></trkpt><trkpt lat="41.771827235136335" lon="13.489208228918741"><ele>1119.3333333333335</ele><time>2026-03-25T11:53:56Z</time></trkpt><trkpt lat="41.77173779909004" lon="13.489009906533282"><ele>1118.0</ele><time>2026-03-25T11:53:57Z</time></trkpt><trkpt lat="41.771649285699226" lon="13.488820704887377"><ele>1117.3333333333335</ele><time>2026-03-25T11:53:58Z</time></trkpt><trkpt lat="41.7715603615785" lon="13.488625620245761"><ele>1116.6666666666667</ele><time>2026-03-25T11:53:59Z</time></trkpt><trkpt lat="41.77147482289108" lon="13.488429602826542"><ele>1116.0</ele><time>2026-03-25T11:54:00Z</time></trkpt><trkpt lat="41.7713915089827" lon="13.488241582721265"><ele>1116.0</ele><time>2026-03-25T11:54:01Z</time></trkpt><trkpt lat="41.771315947273806" lon="13.48806423396994"><ele>1116.0</ele><time>2026-03-25T11:54:02Z</time></trkpt><trkpt lat="41.771244105299765" lon="13.487902529822337"><ele>1116.0</ele><time>2026-03-25T11:54:03Z</time></trkpt><trkpt lat="41.77117728150927" lon="13.487752908193851"><ele>1116.0</ele><time>2026-03-25T11:54:04Z</time></trkpt><trkpt lat="41.77111377748672" lon="13.48760981897689"><ele>1116.25</ele><time>2026-03-25T11:54:05Z</time></trkpt><trkpt lat="41.77104822798291" lon="13.487471108493418"><ele>1116.5</ele><time>2026-03-25T11:54:06Z</time></trkpt><trkpt lat="41.77097300490239" lon="13.48733311576492"><ele>1116.75</ele><time>2026-03-25T11:54:07Z</time></trkpt><trkpt lat="41.770893577762656" lon="13.48719065487384"><ele>1117.0</ele><time>2026-03-25T11:54:08Z</time></trkpt><trkpt lat="41.77080984516514" lon="13.487043167140884"><ele>1115.0</ele><time>2026-03-25T11:54:09Z</time></trkpt><trkpt lat="41.77072435010171" lon="13.486881527901756"><ele>1113.0</ele><time>2026-03-25T11:54:10Z</time></trkpt><trkpt lat="41.77063393974473" lon="13.486697942655871"><ele>1111.0</ele><time>2026-03-25T11:54:11Z</time></trkpt><trkpt lat="41.77053174280314" lon="13.48649901670424"><ele>1111.0</ele><time>2026-03-25T11:54:12Z</time></trkpt><trkpt lat="41.770410046598045" lon="13.48628510960358"><ele>1111.0</ele><time>2026-03-25T11:54:13Z</time></trkpt><trkpt lat="41.770275261581304" lon="13.486050265598061"><ele>1111.0</ele><time>2026-03-25T11:54:14Z</time></trkpt><trkpt lat="41.77012856049344" lon="13.485777279182981"><ele>1111.0</ele><time>2026-03-25T11:54:15Z</time></trkpt><trkpt lat="41.769973905552845" lon="13.485497676289958"><ele>1111.0</ele><time>2026-03-25T11:54:16Z</time></trkpt><trkpt lat="41.769839511645266" lon="13.485258353720559"><ele>1112.0</ele><time>2026-03-25T11:54:17Z</time></trkpt><trkpt lat="41.76971311286224" lon="13.485033796621504"><ele>1113.0</ele><time>2026-03-25T11:54:18Z</time></trkpt><trkpt lat="41.76959928005347" lon="13.484828496792712"><ele>1114.0</ele><time>2026-03-25T11:54:19Z</time></trkpt><trkpt lat="41.76949574530719" lon="13.484630652725176"><ele>1115.25</ele><time>2026-03-25T11:54:20Z</time></trkpt><trkpt lat="41.76939714924573" lon="13.48445093717474"><ele>1116.5</ele><time>2026-03-25T11:54:21Z</time></trkpt><trkpt lat="41.76930840437447" lon="13.484286806416742"><ele>1117.75</ele><time>2026-03-25T11:54:22Z</time></trkpt><trkpt lat="41.76923852644035" lon="13.484146159155518"><ele>1119.0</ele><time>2026-03-25T11:54:23Z</time></trkpt><trkpt lat="41.76918531293209" lon="13.484006112368128"><ele>1117.0</ele><time>2026-03-25T11:54:24Z</time></trkpt><trkpt lat="41.76916910813626" lon="13.483852734341196"><ele>1115.0</ele><time>2026-03-25T11:54:25Z</time></trkpt><trkpt lat="41.76917817268553" lon="13.483690411900943"><ele>1113.0</ele><time>2026-03-25T11:54:26Z</time></trkpt><trkpt lat="41.76918350038474" lon="13.483543403018594"><ele>1111.0</ele><time>2026-03-25T11:54:27Z</time></trkpt><trkpt lat="41.76916287076609" lon="13.483405284852108"><ele>1111.0</ele><time>2026-03-25T11:54:28Z</time></trkpt><trkpt lat="41.76910611795612" lon="13.483285298047328"><ele>1111.0</ele><time>2026-03-25T11:54:29Z</time></trkpt><trkpt lat="41.76901983832092" lon="13.483182960552888"><ele>1111.0</ele><time>2026-03-25T11:54:30Z</time></trkpt><trkpt lat="41.76894286343437" lon="13.483080281179738"><ele>1111.0</ele><time>2026-03-25T11:54:31Z</time></trkpt><trkpt lat="41.76889275131423" lon="13.482964565484338"><ele>1111.0</ele><time>2026-03-25T11:54:32Z</time></trkpt><trkpt lat="41.768845823968434" lon="13.482834258139802"><ele>1111.75</ele><time>2026-03-25T11:54:33Z</time></trkpt><trkpt lat="41.76879779045938" lon="13.482684771530216"><ele>1112.5</ele><time>2026-03-25T11:54:34Z</time></trkpt><trkpt lat="41.76874516160191" lon="13.48252790352481"><ele>1113.25</ele><time>2026-03-25T11:54:35Z</time></trkpt><trkpt lat="41.768686488556355" lon="13.482371207495657"><ele>1114.0</ele><time>2026-03-25T11:54:36Z</time></trkpt><trkpt lat="41.76861663993643" lon="13.482215410396412"><ele>1113.3333333333333</ele><time>2026-03-25T11:54:37Z</time></trkpt><trkpt lat="41.768537892780124" lon="13.482057342924785"><ele>1112.6666666666667</ele><time>2026-03-25T11:54:38Z</time></trkpt><trkpt lat="41.76845375955574" lon="13.481891442121544"><ele>1112.0</ele><time>2026-03-25T11:54:39Z</time></trkpt><trkpt lat="41.76835602790096" lon="13.481708299440792"><ele>1109.0</ele><time>2026-03-25T11:54:40Z</time></trkpt><trkpt lat="41.76825466409052" lon="13.481520300431807"><ele>1106.0</ele><time>2026-03-25T11:54:41Z</time></trkpt><trkpt lat="41.76815013133254" lon="13.481326815062811"><ele>1103.0</ele><time>2026-03-25T11:54:42Z</time></trkpt><trkpt lat="41.76804548309298" lon="13.481132909920795"><ele>1103.0</ele><time>2026-03-25T11:54:43Z</time></trkpt><trkpt lat="41.76793924698467" lon="13.480936893649224"><ele>1103.0</ele><time>2026-03-25T11:54:44Z</time></trkpt><trkpt lat="41.76783213620473" lon="13.48074418901462"><ele>1103.0</ele><time>2026-03-25T11:54:45Z</time></trkpt><trkpt lat="41.767719016235525" lon="13.480560689247694"><ele>1103.6666666666667</ele><time>2026-03-25T11:54:46Z</time></trkpt><trkpt lat="41.76760374012954" lon="13.480386181682373"><ele>1104.3333333333333</ele><time>2026-03-25T11:54:47Z</time></trkpt><trkpt lat="41.76749001045273" lon="13.4802244849069"><ele>1105.0</ele><time>2026-03-25T11:54:48Z</time></trkpt><trkpt lat="41.767378591158476" lon="13.480070441110486"><ele>1105.0</ele><time>2026-03-25T11:54:49Z</time></trkpt><trkpt lat="41.767275703086206" lon="13.479913710387281"><ele>1105.0</ele><time>2026-03-25T11:54:50Z</time></trkpt><trkpt lat="41.76717166724032" lon="13.479757060236894"><ele>1105.0</ele><time>2026-03-25T11:54:51Z</time></trkpt><trkpt lat="41.767060637456005" lon="13.479603077509308"><ele>1105.6666666666665</ele><time>2026-03-25T11:54:52Z</time></trkpt><trkpt lat="41.766941299923104" lon="13.479447644917029"><ele>1106.3333333333333</ele><time>2026-03-25T11:54:53Z</time></trkpt><trkpt lat="41.76681453476751" lon="13.479290222010516"><ele>1107.0</ele><time>2026-03-25T11:54:54Z</time></trkpt><trkpt lat="41.7666917756795" lon="13.47913897000167"><ele>1105.0</ele><time>2026-03-25T11:54:55Z</time></trkpt><trkpt lat="41.76657882842453" lon="13.479001192274097"><ele>1103.0</ele><time>2026-03-25T11:54:56Z</time></trkpt><trkpt lat="41.766472218780436" lon="13.478867888051626"><ele>1101.0</ele><time>2026-03-25T11:54:57Z</time></trkpt><trkpt lat="41.76637066864273" lon="13.478737528854303"><ele>1099.0</ele><time>2026-03-25T11:54:58Z</time></trkpt><trkpt lat="41.766281677291154" lon="13.478594643375375"><ele>1097.5</ele><time>2026-03-25T11:54:59Z</time></trkpt><trkpt lat="41.76621928979462" lon="13.478420962971809"><ele>1096.0</ele><time>2026-03-25T11:55:00Z</time></trkpt><trkpt lat="41.76618360487562" lon="13.478240740475668"><ele>1094.5</ele><time>2026-03-25T11:55:01Z</time></trkpt><trkpt lat="41.766173225811045" lon="13.478081690150338"><ele>1093.0</ele><time>2026-03-25T11:55:02Z</time></trkpt><trkpt lat="41.76615556263699" lon="13.4779479888736"><ele>1093.0</ele><time>2026-03-25T11:55:03Z</time></trkpt><trkpt lat="41.76611036588689" lon="13.477829014663476"><ele>1093.0</ele><time>2026-03-25T11:55:04Z</time></trkpt><trkpt lat="41.76603141564703" lon="13.477751875828117"><ele>1093.0</ele><time>2026-03-25T11:55:05Z</time></trkpt><trkpt lat="41.76592247601045" lon="13.477714882397699"><ele>1093.0</ele><time>2026-03-25T11:55:06Z</time></trkpt><trkpt lat="41.76579686214803" lon="13.477695674655704"><ele>1093.0</ele><time>2026-03-25T11:55:07Z</time></trkpt><trkpt lat="41.765666442923084" lon="13.477654747004259"><ele>1093.0</ele><time>2026-03-25T11:55:08Z</time></trkpt><trkpt lat="41.76553302154183" lon="13.477615167748692"><ele>1093.0</ele><time>2026-03-25T11:55:09Z</time></trkpt><trkpt lat="41.7653980253593" lon="13.477574630708983"><ele>1093.0</ele><time>2026-03-25T11:55:10Z</time></trkpt><trkpt lat="41.765274884776325" lon="13.47753512943768"><ele>1093.0</ele><time>2026-03-25T11:55:11Z</time></trkpt><trkpt lat="41.765161429753235" lon="13.477496890566083"><ele>1090.0</ele><time>2026-03-25T11:55:12Z</time></trkpt><trkpt lat="41.76505346259925" lon="13.477447088307898"><ele>1087.0</ele><time>2026-03-25T11:55:13Z</time></trkpt><trkpt lat="41.76494942881741" lon="13.477368880925253"><ele>1084.0</ele><time>2026-03-25T11:55:14Z</time></trkpt><trkpt lat="41.76484987168413" lon="13.477262783881354"><ele>1081.0</ele><time>2026-03-25T11:55:15Z</time></trkpt><trkpt lat="41.76475203606995" lon="13.477142831958549"><ele>1084.0</ele><time>2026-03-25T11:55:16Z</time></trkpt><trkpt lat="41.7646560206684" lon="13.477007720309746"><ele>1087.0</ele><time>2026-03-25T11:55:17Z</time></trkpt><trkpt lat="41.764568412562376" lon="13.476880861888636"><ele>1090.0</ele><time>2026-03-25T11:55:18Z</time></trkpt><trkpt lat="41.764496749320735" lon="13.47674085699541"><ele>1093.0</ele><time>2026-03-25T11:55:19Z</time></trkpt><trkpt lat="41.76443970862979" lon="13.476585453153385"><ele>1093.0</ele><time>2026-03-25T11:55:20Z</time></trkpt><trkpt lat="41.76440511641003" lon="13.476414161914127"><ele>1093.0</ele><time>2026-03-25T11:55:21Z</time></trkpt><trkpt lat="41.764383114783975" lon="13.476221312572628"><ele>1093.0</ele><time>2026-03-25T11:55:22Z</time></trkpt><trkpt lat="41.764357198119946" lon="13.476019095674701"><ele>1093.0</ele><time>2026-03-25T11:55:23Z</time></trkpt><trkpt lat="41.76431946236173" lon="13.475806458139461"><ele>1086.3333333333333</ele><time>2026-03-25T11:55:24Z</time></trkpt><trkpt lat="41.76426979678689" lon="13.47559028338309"><ele>1079.6666666666667</ele><time>2026-03-25T11:55:25Z</time></trkpt><trkpt lat="41.76420146900447" lon="13.475410918941074"><ele>1073.0</ele><time>2026-03-25T11:55:26Z</time></trkpt><trkpt lat="41.76411131800319" lon="13.475245116049049"><ele>1073.0</ele><time>2026-03-25T11:55:27Z</time></trkpt><trkpt lat="41.76401022619816" lon="13.475089402829514"><ele>1073.0</ele><time>2026-03-25T11:55:28Z</time></trkpt><trkpt lat="41.76391550893996" lon="13.474950097352973"><ele>1073.0</ele><time>2026-03-25T11:55:29Z</time></trkpt><trkpt lat="41.76384052874788" lon="13.47480418115892"><ele>1073.0</ele><time>2026-03-25T11:55:30Z</time></trkpt><trkpt lat="41.76377707539563" lon="13.474650100137408"><ele>1073.3333333333335</ele><time>2026-03-25T11:55:31Z</time></trkpt><trkpt lat="41.76371642878598" lon="13.474472165494722"><ele>1073.6666666666667</ele><time>2026-03-25T11:55:32Z</time></trkpt><trkpt lat="41.76365910009838" lon="13.474274568095778"><ele>1074.0</ele><time>2026-03-25T11:55:33Z</time></trkpt><trkpt lat="41.763590456775944" lon="13.474058805087164"><ele>1072.0</ele><time>2026-03-25T11:55:34Z</time></trkpt><trkpt lat="41.76349462448869" lon="13.473827052897624"><ele>1070.0</ele><time>2026-03-25T11:55:35Z</time></trkpt><trkpt lat="41.763401026263786" lon="13.473625325108364"><ele>1068.0</ele><time>2026-03-25T11:55:36Z</time></trkpt><trkpt lat="41.76331936025547" lon="13.473436413152255"><ele>1068.0</ele><time>2026-03-25T11:55:37Z</time></trkpt><trkpt lat="41.76324950369441" lon="13.47324510099308"><ele>1068.0</ele><time>2026-03-25T11:55:38Z</time></trkpt><trkpt lat="41.76318027054491" lon="13.473047267446388"><ele>1068.0</ele><time>2026-03-25T11:55:39Z</time></trkpt><trkpt lat="41.76311513062321" lon="13.472853058145093"><ele>1068.0</ele><time>2026-03-25T11:55:40Z</time></trkpt><trkpt lat="41.76305658457449" lon="13.472674626330077"><ele>1068.0</ele><time>2026-03-25T11:55:41Z</time></trkpt><trkpt lat="41.76300520631129" lon="13.472501340507007"><ele>1068.0</ele><time>2026-03-25T11:55:42Z</time></trkpt><trkpt lat="41.7629534985296" lon="13.472327244869671"><ele>1068.0</ele><time>2026-03-25T11:55:43Z</time></trkpt><trkpt lat="41.76290213984876" lon="13.472152104046089"><ele>1064.5</ele><time>2026-03-25T11:55:44Z</time></trkpt><trkpt lat="41.76284593103556" lon="13.471976430765743"><ele>1061.0</ele><time>2026-03-25T11:55:45Z</time></trkpt><trkpt lat="41.76277452093466" lon="13.47181327087398"><ele>1057.5</ele><time>2026-03-25T11:55:46Z</time></trkpt><trkpt lat="41.762676579236846" lon="13.47167741952335"><ele>1054.0</ele><time>2026-03-25T11:55:47Z</time></trkpt><trkpt lat="41.76256290117281" lon="13.471565597257872"><ele>1054.0</ele><time>2026-03-25T11:55:48Z</time></trkpt><trkpt lat="41.762441064819114" lon="13.471498757115205"><ele>1054.0</ele><time>2026-03-25T11:55:49Z</time></trkpt><trkpt lat="41.76231403679163" lon="13.47145218845609"><ele>1054.0</ele><time>2026-03-25T11:55:50Z</time></trkpt><trkpt lat="41.7621976818904" lon="13.471403125356082"><ele>1054.0</ele><time>2026-03-25T11:55:51Z</time></trkpt><trkpt lat="41.76207490418966" lon="13.471358111015654"><ele>1054.0</ele><time>2026-03-25T11:55:52Z</time></trkpt><trkpt lat="41.76195509346796" lon="13.471317363093881"><ele>1054.0</ele><time>2026-03-25T11:55:53Z</time></trkpt><trkpt lat="41.76184011403581" lon="13.471280541751149"><ele>1054.0</ele><time>2026-03-25T11:55:54Z</time></trkpt><trkpt lat="41.7617326139306" lon="13.471257927145693"><ele>1054.0</ele><time>2026-03-25T11:55:55Z</time></trkpt><trkpt lat="41.76163795080983" lon="13.471234422440304"><ele>1054.0</ele><time>2026-03-25T11:55:56Z</time></trkpt><trkpt lat="41.76155660937379" lon="13.471183050933634"><ele>1051.4</ele><time>2026-03-25T11:55:57Z</time></trkpt><trkpt lat="41.76150355473706" lon="13.471102998615745"><ele>1048.8000000000002</ele><time>2026-03-25T11:55:58Z</time></trkpt><trkpt lat="41.761482235016295" lon="13.470994281212793"><ele>1046.1999999999998</ele><time>2026-03-25T11:55:59Z</time></trkpt><trkpt lat="41.76149782320275" lon="13.470865957485895"><ele>1043.6</ele><time>2026-03-25T11:56:00Z</time></trkpt><trkpt lat="41.76153040743442" lon="13.470724520418663"><ele>1041.0</ele><time>2026-03-25T11:56:01Z</time></trkpt><trkpt lat="41.7615520662727" lon="13.47056961543144"><ele>1042.0</ele><time>2026-03-25T11:56:02Z</time></trkpt><trkpt lat="41.76157247224801" lon="13.470412763330183"><ele>1043.0</ele><time>2026-03-25T11:56:03Z</time></trkpt><trkpt lat="41.761576218507905" lon="13.470255596190986"><ele>1044.0</ele><time>2026-03-25T11:56:04Z</time></trkpt><trkpt lat="41.76156810779387" lon="13.470098821901573"><ele>1045.0</ele><time>2026-03-25T11:56:05Z</time></trkpt><trkpt lat="41.761526629441875" lon="13.46993783135033"><ele>1045.0</ele><time>2026-03-25T11:56:06Z</time></trkpt><trkpt lat="41.76146062524903" lon="13.469775650843237"><ele>1045.0</ele><time>2026-03-25T11:56:07Z</time></trkpt><trkpt lat="41.7613924829415" lon="13.469636975993902"><ele>1045.0</ele><time>2026-03-25T11:56:08Z</time></trkpt><trkpt lat="41.76132744074063" lon="13.46952195470748"><ele>1045.0</ele><time>2026-03-25T11:56:09Z</time></trkpt><trkpt lat="41.7612597311213" lon="13.469428267934566"><ele>1044.8</ele><time>2026-03-25T11:56:10Z</time></trkpt><trkpt lat="41.76116628730419" lon="13.469390782563933"><ele>1044.6</ele><time>2026-03-25T11:56:11Z</time></trkpt><trkpt lat="41.76105750734644" lon="13.469393244414265"><ele>1044.4</ele><time>2026-03-25T11:56:12Z</time></trkpt><trkpt lat="41.76097328980254" lon="13.469393530931978"><ele>1044.2</ele><time>2026-03-25T11:56:13Z</time></trkpt><trkpt lat="41.760905970819756" lon="13.469339489155585"><ele>1044.0</ele><time>2026-03-25T11:56:14Z</time></trkpt><trkpt lat="41.760881196120955" lon="13.469228621126314"><ele>1039.25</ele><time>2026-03-25T11:56:15Z</time></trkpt><trkpt lat="41.760882130325044" lon="13.46907230854144"><ele>1034.5</ele><time>2026-03-25T11:56:16Z</time></trkpt><trkpt lat="41.760878398632606" lon="13.46888398491026"><ele>1029.75</ele><time>2026-03-25T11:56:17Z</time></trkpt><trkpt lat="41.760812136399636" lon="13.468706925908451"><ele>1025.0</ele><time>2026-03-25T11:56:18Z</time></trkpt><trkpt lat="41.76071178499318" lon="13.46854439282989"><ele>1025.0</ele><time>2026-03-25T11:56:19Z</time></trkpt><trkpt lat="41.76059251249802" lon="13.468407841482483"><ele>1025.0</ele><time>2026-03-25T11:56:20Z</time></trkpt><trkpt lat="41.76046697024396" lon="13.46826956763139"><ele>1025.0</ele><time>2026-03-25T11:56:21Z</time></trkpt><trkpt lat="41.76035290579714" lon="13.468125524709617"><ele>1025.0</ele><time>2026-03-25T11:56:22Z</time></trkpt><trkpt lat="41.760260249229184" lon="13.467980259256095"><ele>1025.0</ele><time>2026-03-25T11:56:23Z</time></trkpt><trkpt lat="41.760176692926635" lon="13.467836505349172"><ele>1025.0</ele><time>2026-03-25T11:56:24Z</time></trkpt><trkpt lat="41.76010293486766" lon="13.467683939426161"><ele>1025.0</ele><time>2026-03-25T11:56:25Z</time></trkpt><trkpt lat="41.76001602976008" lon="13.467557760331925"><ele>1022.5</ele><time>2026-03-25T11:56:26Z</time></trkpt><trkpt lat="41.75991324956081" lon="13.467468738305133"><ele>1020.0</ele><time>2026-03-25T11:56:27Z</time></trkpt><trkpt lat="41.75980834874788" lon="13.46738919741034"><ele>1017.5</ele><time>2026-03-25T11:56:28Z</time></trkpt><trkpt lat="41.75972020173743" lon="13.467304853926985"><ele>1015.0</ele><time>2026-03-25T11:56:29Z</time></trkpt><trkpt lat="41.759645070600996" lon="13.467196135024201"><ele>1014.0</ele><time>2026-03-25T11:56:30Z</time></trkpt><trkpt lat="41.75958827385714" lon="13.467047631056458"><ele>1013.0</ele><time>2026-03-25T11:56:31Z</time></trkpt><trkpt lat="41.75953049050213" lon="13.466878493082925"><ele>1012.0</ele><time>2026-03-25T11:56:32Z</time></trkpt><trkpt lat="41.75945696336898" lon="13.466736209842738"><ele>1011.0</ele><time>2026-03-25T11:56:33Z</time></trkpt><trkpt lat="41.7593649114565" lon="13.466618600641757"><ele>1011.0</ele><time>2026-03-25T11:56:34Z</time></trkpt><trkpt lat="41.75926060394807" lon="13.466510395659377"><ele>1011.0</ele><time>2026-03-25T11:56:35Z</time></trkpt><trkpt lat="41.7591590621241" lon="13.46641103111727"><ele>1011.0</ele><time>2026-03-25T11:56:36Z</time></trkpt><trkpt lat="41.75906337014779" lon="13.466328449785472"><ele>1011.0</ele><time>2026-03-25T11:56:37Z</time></trkpt><trkpt lat="41.758972048980446" lon="13.466246730165745"><ele>1012.75</ele><time>2026-03-25T11:56:38Z</time></trkpt><trkpt lat="41.75889488582788" lon="13.466130970303363"><ele>1014.5</ele><time>2026-03-25T11:56:39Z</time></trkpt><trkpt lat="41.7588239729454" lon="13.465996333773205"><ele>1016.25</ele><time>2026-03-25T11:56:40Z</time></trkpt><trkpt lat="41.758759791476315" lon="13.465841751595125"><ele>1018.0</ele><time>2026-03-25T11:56:41Z</time></trkpt><trkpt lat="41.75872433396687" lon="13.465689851375332"><ele>1018.0</ele><time>2026-03-25T11:56:42Z</time></trkpt><trkpt lat="41.75870386645308" lon="13.465539365084625"><ele>1018.0</ele><time>2026-03-25T11:56:43Z</time></trkpt><trkpt lat="41.75866431451249" lon="13.465409135921762"><ele>1018.0</ele><time>2026-03-25T11:56:44Z</time></trkpt><trkpt lat="41.75860551352301" lon="13.465299057375436"><ele>1018.0</ele><time>2026-03-25T11:56:45Z</time></trkpt><trkpt lat="41.75852612050303" lon="13.465203520927192"><ele>1018.0</ele><time>2026-03-25T11:56:46Z</time></trkpt><trkpt lat="41.75842297263143" lon="13.465127314291985"><ele>1013.8</ele><time>2026-03-25T11:56:47Z</time></trkpt><trkpt lat="41.758308921958054" lon="13.465082372089006"><ele>1009.5999999999999</ele><time>2026-03-25T11:56:48Z</time></trkpt><trkpt lat="41.75820111123763" lon="13.465068401137378"><ele>1005.4000000000001</ele><time>2026-03-25T11:56:49Z</time></trkpt><trkpt lat="41.7581071638622" lon="13.465057455561327"><ele>1001.2</ele><time>2026-03-25T11:56:50Z</time></trkpt><trkpt lat="41.75802252586899" lon="13.465051362701962"><ele>997.0</ele><time>2026-03-25T11:56:51Z</time></trkpt><trkpt lat="41.75793808023965" lon="13.46503195360145"><ele>996.9999999999999</ele><time>2026-03-25T11:56:52Z</time></trkpt><trkpt lat="41.75786513489371" lon="13.465029315290817"><ele>997.0</ele><time>2026-03-25T11:56:53Z</time></trkpt><trkpt lat="41.757807776211976" lon="13.464972822685125"><ele>997.0</ele><time>2026-03-25T11:56:54Z</time></trkpt><trkpt lat="41.757788378237294" lon="13.464880765847093"><ele>997.0</ele><time>2026-03-25T11:56:55Z</time></trkpt><trkpt lat="41.75781132804664" lon="13.464762940813294"><ele>996.9999999999999</ele><time>2026-03-25T11:56:56Z</time></trkpt><trkpt lat="41.757855155778586" lon="13.464623430275035"><ele>997.0</ele><time>2026-03-25T11:56:57Z</time></trkpt><trkpt lat="41.75787153997729" lon="13.464463841191401"><ele>1004.6666666666666</ele><time>2026-03-25T11:56:58Z</time></trkpt><trkpt lat="41.75785839802053" lon="13.46429045333366"><ele>1012.3333333333333</ele><time>2026-03-25T11:56:59Z</time></trkpt><trkpt lat="41.757813143838355" lon="13.464096062557024"><ele>1020.0</ele><time>2026-03-25T11:57:00Z</time></trkpt><trkpt lat="41.75773353191491" lon="13.463880895402463"><ele>1003.6666666666667</ele><time>2026-03-25T11:57:01Z</time></trkpt><trkpt lat="41.75766110609189" lon="13.463666549824884"><ele>987.3333333333334</ele><time>2026-03-25T11:57:02Z</time></trkpt><trkpt lat="41.7576253825573" lon="13.463472396412124"><ele>971.0</ele><time>2026-03-25T11:57:03Z</time></trkpt><trkpt lat="41.757609039367196" lon="13.4632840270253"><ele>971.0</ele><time>2026-03-25T11:57:04Z</time></trkpt><trkpt lat="41.75758783672587" lon="13.463110233152305"><ele>971.0</ele><time>2026-03-25T11:57:05Z</time></trkpt><trkpt lat="41.75754970927956" lon="13.462957775301808"><ele>971.0</ele><time>2026-03-25T11:57:06Z</time></trkpt><trkpt lat="41.757522171770184" lon="13.462806495862766"><ele>971.0</ele><time>2026-03-25T11:57:07Z</time></trkpt><trkpt lat="41.75749585374767" lon="13.462697077743698"><ele>975.0</ele><time>2026-03-25T11:57:08Z</time></trkpt><trkpt lat="41.75745984500772" lon="13.462622800395584"><ele>978.9999999999999</ele><time>2026-03-25T11:57:09Z</time></trkpt><trkpt lat="41.757380034828074" lon="13.46257076176161"><ele>982.9999999999999</ele><time>2026-03-25T11:57:10Z</time></trkpt><trkpt lat="41.75726201430393" lon="13.46256786870066"><ele>987.0</ele><time>2026-03-25T11:57:11Z</time></trkpt><trkpt lat="41.757127555850055" lon="13.462591606587045"><ele>991.0</ele><time>2026-03-25T11:57:12Z</time></trkpt><trkpt lat="41.75700763243816" lon="13.462578016332806"><ele>991.0</ele><time>2026-03-25T11:57:13Z</time></trkpt><trkpt lat="41.75689106083247" lon="13.462539465754608"><ele>990.9999999999999</ele><time>2026-03-25T11:57:14Z</time></trkpt><trkpt lat="41.75679038842758" lon="13.46253493247749"><ele>990.9999999999999</ele><time>2026-03-25T11:57:15Z</time></trkpt><trkpt lat="41.756702016267546" lon="13.462544861706043"><ele>991.0</ele><time>2026-03-25T11:57:16Z</time></trkpt><trkpt lat="41.756620265636826" lon="13.46255379750224"><ele>991.0</ele><time>2026-03-25T11:57:17Z</time></trkpt><trkpt lat="41.75654101055849" lon="13.462561986960738"><ele>987.0</ele><time>2026-03-25T11:57:18Z</time></trkpt><trkpt lat="41.75643924568523" lon="13.462492050008752"><ele>983.0</ele><time>2026-03-25T11:57:20Z</time></trkpt><trkpt lat="41.75642914989699" lon="13.462352317492957"><ele>979.0</ele><time>2026-03-25T11:57:21Z</time></trkpt><trkpt lat="41.75644882984775" lon="13.462199529149467"><ele>975.0</ele><time>2026-03-25T11:57:22Z</time></trkpt><trkpt lat="41.75648034520057" lon="13.462023915214495"><ele>975.0</ele><time>2026-03-25T11:57:23Z</time></trkpt><trkpt lat="41.75649286359796" lon="13.461834746344595"><ele>975.0</ele><time>2026-03-25T11:57:24Z</time></trkpt><trkpt lat="41.75650331412046" lon="13.4616636988407"><ele>975.0</ele><time>2026-03-25T11:57:25Z</time></trkpt><trkpt lat="41.75651051526675" lon="13.46151179951151"><ele>975.0</ele><time>2026-03-25T11:57:26Z</time></trkpt><trkpt lat="41.7564992354022" lon="13.4613787665391"><ele>980.0</ele><time>2026-03-25T11:57:27Z</time></trkpt><trkpt lat="41.756458974297296" lon="13.46125111111491"><ele>985.0</ele><time>2026-03-25T11:57:28Z</time></trkpt><trkpt lat="41.75637837585149" lon="13.461120696842109"><ele>990.0</ele><time>2026-03-25T11:57:29Z</time></trkpt><trkpt lat="41.75626573335827" lon="13.460990595780862"><ele>995.0</ele><time>2026-03-25T11:57:30Z</time></trkpt><trkpt lat="41.75614713743031" lon="13.460870990410307"><ele>983.0</ele><time>2026-03-25T11:57:31Z</time></trkpt><trkpt lat="41.75603530986235" lon="13.460789546494254"><ele>971.0</ele><time>2026-03-25T11:57:32Z</time></trkpt><trkpt lat="41.75592441614214" lon="13.460754799436865"><ele>959.0</ele><time>2026-03-25T11:57:33Z</time></trkpt><trkpt lat="41.75581731844496" lon="13.460731743686072"><ele>947.0</ele><time>2026-03-25T11:57:34Z</time></trkpt><trkpt lat="41.7557174387551" lon="13.460704199585876"><ele>947.0</ele><time>2026-03-25T11:57:35Z</time></trkpt><trkpt lat="41.75563221939539" lon="13.460683371000806"><ele>947.0</ele><time>2026-03-25T11:57:36Z</time></trkpt><trkpt lat="41.75555507768445" lon="13.460650859754898"><ele>947.0</ele><time>2026-03-25T11:57:37Z</time></trkpt><trkpt lat="41.75549070023477" lon="13.460586503411406"><ele>947.0</ele><time>2026-03-25T11:57:38Z</time></trkpt><trkpt lat="41.755455244202174" lon="13.460478144922485"><ele>947.0</ele><time>2026-03-25T11:57:39Z</time></trkpt><trkpt lat="41.755452138536434" lon="13.460323972869132"><ele>951.0</ele><time>2026-03-25T11:57:40Z</time></trkpt><trkpt lat="41.75545822945758" lon="13.460139839894614"><ele>955.0</ele><time>2026-03-25T11:57:41Z</time></trkpt><trkpt lat="41.75547617484921" lon="13.45994678834073"><ele>959.0</ele><time>2026-03-25T11:57:42Z</time></trkpt><trkpt lat="41.75548170395185" lon="13.459772547387956"><ele>963.0</ele><time>2026-03-25T11:57:43Z</time></trkpt><trkpt lat="41.75549274439284" lon="13.459622298444483"><ele>960.4</ele><time>2026-03-25T11:57:44Z</time></trkpt><trkpt lat="41.75552749089552" lon="13.45949146932897"><ele>957.8</ele><time>2026-03-25T11:57:45Z</time></trkpt><trkpt lat="41.75559989861472" lon="13.4593670860136"><ele>955.2</ele><time>2026-03-25T11:57:46Z</time></trkpt><trkpt lat="41.75568834688481" lon="13.459271141085507"><ele>952.6</ele><time>2026-03-25T11:57:47Z</time></trkpt><trkpt lat="41.75576809061629" lon="13.459195143690087"><ele>950.0</ele><time>2026-03-25T11:57:48Z</time></trkpt><trkpt lat="41.755825701013826" lon="13.459120051283998"><ele>950.0</ele><time>2026-03-25T11:57:49Z</time></trkpt><trkpt lat="41.75584318560037" lon="13.459022595740247"><ele>950.0</ele><time>2026-03-25T11:57:50Z</time></trkpt><trkpt lat="41.755829228972836" lon="13.458920532869906"><ele>950.0</ele><time>2026-03-25T11:57:51Z</time></trkpt><trkpt lat="41.75577493048429" lon="13.458815173444046"><ele>950.0</ele><time>2026-03-25T11:57:52Z</time></trkpt><trkpt lat="41.755678585142924" lon="13.458723325213114"><ele>950.0</ele><time>2026-03-25T11:57:53Z</time></trkpt><trkpt lat="41.755552388731275" lon="13.458643241880551"><ele>952.0</ele><time>2026-03-25T11:57:54Z</time></trkpt><trkpt lat="41.75541509668217" lon="13.45855773622428"><ele>954.0</ele><time>2026-03-25T11:57:55Z</time></trkpt><trkpt lat="41.755275827040506" lon="13.458464617902973"><ele>956.0</ele><time>2026-03-25T11:57:56Z</time></trkpt><trkpt lat="41.75514552568388" lon="13.458391194444738"><ele>958.0</ele><time>2026-03-25T11:57:57Z</time></trkpt><trkpt lat="41.75503387697573" lon="13.458299503283232"><ele>956.0</ele><time>2026-03-25T11:57:58Z</time></trkpt><trkpt lat="41.75493006434737" lon="13.45822968827901"><ele>954.0</ele><time>2026-03-25T11:57:59Z</time></trkpt><trkpt lat="41.75483907192466" lon="13.458123052759714"><ele>952.0</ele><time>2026-03-25T11:58:00Z</time></trkpt><trkpt lat="41.75475405045191" lon="13.458010914987621"><ele>950.0</ele><time>2026-03-25T11:58:01Z</time></trkpt><trkpt lat="41.75469022666531" lon="13.457907588719154"><ele>950.0</ele><time>2026-03-25T11:58:02Z</time></trkpt><trkpt lat="41.754631828941996" lon="13.457755928976324"><ele>950.0</ele><time>2026-03-25T11:58:03Z</time></trkpt><trkpt lat="41.754595279274206" lon="13.457595619919267"><ele>950.0</ele><time>2026-03-25T11:58:04Z</time></trkpt><trkpt lat="41.754577615883235" lon="13.45742194202324"><ele>950.0</ele><time>2026-03-25T11:58:05Z</time></trkpt><trkpt lat="41.754597367856704" lon="13.45723496881154"><ele>949.0</ele><time>2026-03-25T11:58:06Z</time></trkpt><trkpt lat="41.75462237057232" lon="13.457026987393828"><ele>948.0</ele><time>2026-03-25T11:58:07Z</time></trkpt><trkpt lat="41.7546279974481" lon="13.45680741874675"><ele>947.0</ele><time>2026-03-25T11:58:08Z</time></trkpt><trkpt lat="41.7546281257137" lon="13.456614091560635"><ele>947.0</ele><time>2026-03-25T11:58:09Z</time></trkpt><trkpt lat="41.75462799650092" lon="13.456438016676701"><ele>947.0</ele><time>2026-03-25T11:58:10Z</time></trkpt><trkpt lat="41.75462814721184" lon="13.456276903337322"><ele>947.0</ele><time>2026-03-25T11:58:11Z</time></trkpt><trkpt lat="41.754645765547195" lon="13.45613412028968"><ele>947.0</ele><time>2026-03-25T11:58:12Z</time></trkpt><trkpt lat="41.75469116252985" lon="13.45600479652711"><ele>942.0</ele><time>2026-03-25T11:58:13Z</time></trkpt><trkpt lat="41.7547487273821" lon="13.455865131325579"><ele>937.0</ele><time>2026-03-25T11:58:14Z</time></trkpt><trkpt lat="41.75484577784459" lon="13.45571198926795"><ele>932.0</ele><time>2026-03-25T11:58:15Z</time></trkpt><trkpt lat="41.75496751011786" lon="13.455561585081352"><ele>927.0</ele><time>2026-03-25T11:58:16Z</time></trkpt><trkpt lat="41.75508866865025" lon="13.455365000063658"><ele>931.6666666666667</ele><time>2026-03-25T11:58:17Z</time></trkpt><trkpt lat="41.75520457081439" lon="13.4551260079387"><ele>936.3333333333334</ele><time>2026-03-25T11:58:18Z</time></trkpt><trkpt lat="41.755298965070295" lon="13.454903897685092"><ele>941.0</ele><time>2026-03-25T11:58:19Z</time></trkpt><trkpt lat="41.75537996262945" lon="13.454691820719459"><ele>930.6666666666667</ele><time>2026-03-25T11:58:20Z</time></trkpt><trkpt lat="41.75545604960837" lon="13.454493010787226"><ele>920.3333333333333</ele><time>2026-03-25T11:58:21Z</time></trkpt><trkpt lat="41.755539814473906" lon="13.45430849801174"><ele>910.0</ele><time>2026-03-25T11:58:22Z</time></trkpt><trkpt lat="41.755635972044786" lon="13.454141867487738"><ele>910.0</ele><time>2026-03-25T11:58:23Z</time></trkpt><trkpt lat="41.755721833712556" lon="13.454022004426506"><ele>910.0</ele><time>2026-03-25T11:58:24Z</time></trkpt><trkpt lat="41.755820183622006" lon="13.453931888122575"><ele>910.0</ele><time>2026-03-25T11:58:25Z</time></trkpt><trkpt lat="41.755934904075986" lon="13.453890055164319"><ele>910.0</ele><time>2026-03-25T11:58:26Z</time></trkpt><trkpt lat="41.75603783181244" lon="13.453857275038882"><ele>912.0</ele><time>2026-03-25T11:58:27Z</time></trkpt><trkpt lat="41.756124227176834" lon="13.4538120040754"><ele>914.0</ele><time>2026-03-25T11:58:28Z</time></trkpt><trkpt lat="41.75619174278987" lon="13.453744111366216"><ele>916.0</ele><time>2026-03-25T11:58:29Z</time></trkpt><trkpt lat="41.75622350611041" lon="13.453627118500462"><ele>918.0</ele><time>2026-03-25T11:58:30Z</time></trkpt><trkpt lat="41.756217530310195" lon="13.453471146670951"><ele>920.0</ele><time>2026-03-25T11:58:31Z</time></trkpt><trkpt lat="41.756185227722824" lon="13.453298775204045"><ele>920.0</ele><time>2026-03-25T11:58:32Z</time></trkpt><trkpt lat="41.75616912968546" lon="13.453133496451827"><ele>920.0</ele><time>2026-03-25T11:58:33Z</time></trkpt><trkpt lat="41.756185545980365" lon="13.452975906704383"><ele>920.0</ele><time>2026-03-25T11:58:34Z</time></trkpt><trkpt lat="41.75623653568612" lon="13.452811693104758"><ele>920.0</ele><time>2026-03-25T11:58:35Z</time></trkpt><trkpt lat="41.756311074731926" lon="13.452644111539941"><ele>916.25</ele><time>2026-03-25T11:58:36Z</time></trkpt><trkpt lat="41.7563990298347" lon="13.452477792175792"><ele>912.5</ele><time>2026-03-25T11:58:37Z</time></trkpt><trkpt lat="41.75648433538003" lon="13.452318416470229"><ele>908.75</ele><time>2026-03-25T11:58:38Z</time></trkpt><trkpt lat="41.75656541808074" lon="13.452168838312481"><ele>905.0</ele><time>2026-03-25T11:58:39Z</time></trkpt><trkpt lat="41.756631183116816" lon="13.452019920261339"><ele>901.4</ele><time>2026-03-25T11:58:40Z</time></trkpt><trkpt lat="41.75668501173259" lon="13.4518800869725"><ele>897.8</ele><time>2026-03-25T11:58:41Z</time></trkpt><trkpt lat="41.75672723055088" lon="13.451748152722168"><ele>894.2</ele><time>2026-03-25T11:58:42Z</time></trkpt><trkpt lat="41.756763718365775" lon="13.451624867849501"><ele>890.6</ele><time>2026-03-25T11:58:43Z</time></trkpt><trkpt lat="41.75678208855718" lon="13.451502757956787"><ele>887.0</ele><time>2026-03-25T11:58:44Z</time></trkpt><trkpt lat="41.756805099507645" lon="13.451398183231095"><ele>887.0</ele><time>2026-03-25T11:58:45Z</time></trkpt><trkpt lat="41.75683014901649" lon="13.451297339008146"><ele>887.0</ele><time>2026-03-25T11:58:46Z</time></trkpt><trkpt lat="41.75680140382986" lon="13.451187430392165"><ele>887.0</ele><time>2026-03-25T11:58:47Z</time></trkpt><trkpt lat="41.75672006173408" lon="13.451102946558352"><ele>887.0</ele><time>2026-03-25T11:58:48Z</time></trkpt><trkpt lat="41.75659274523406" lon="13.451049666139712"><ele>887.0</ele><time>2026-03-25T11:58:49Z</time></trkpt><trkpt lat="41.75643153499741" lon="13.45101229348048"><ele>889.0</ele><time>2026-03-25T11:58:50Z</time></trkpt><trkpt lat="41.75625477752115" lon="13.450933043065916"><ele>891.0</ele><time>2026-03-25T11:58:51Z</time></trkpt><trkpt lat="41.75606823360692" lon="13.450867688774899"><ele>893.0</ele><time>2026-03-25T11:58:52Z</time></trkpt><trkpt lat="41.75588122489998" lon="13.450770493501382"><ele>893.75</ele><time>2026-03-25T11:58:53Z</time></trkpt><trkpt lat="41.75572366966512" lon="13.450673986329699"><ele>894.5</ele><time>2026-03-25T11:58:54Z</time></trkpt><trkpt lat="41.75561005013191" lon="13.450590912863031"><ele>895.25</ele><time>2026-03-25T11:58:55Z</time></trkpt><trkpt lat="41.755498171915335" lon="13.450477282302245"><ele>896.0</ele><time>2026-03-25T11:58:56Z</time></trkpt><trkpt lat="41.755401121641455" lon="13.450318894555455"><ele>896.0</ele><time>2026-03-25T11:58:57Z</time></trkpt><trkpt lat="41.755336866935146" lon="13.45014015680966"><ele>896.0</ele><time>2026-03-25T11:58:58Z</time></trkpt><trkpt lat="41.755271413759175" lon="13.44998160401398"><ele>896.0</ele><time>2026-03-25T11:58:59Z</time></trkpt><trkpt lat="41.755184420573755" lon="13.449842429937346"><ele>896.0</ele><time>2026-03-25T11:59:00Z</time></trkpt><trkpt lat="41.75508732538735" lon="13.449732058613835"><ele>895.0</ele><time>2026-03-25T11:59:01Z</time></trkpt><trkpt lat="41.75499205723462" lon="13.449630705500521"><ele>894.0</ele><time>2026-03-25T11:59:02Z</time></trkpt><trkpt lat="41.754858993322024" lon="13.44960390364978"><ele>893.0</ele><time>2026-03-25T11:59:03Z</time></trkpt><trkpt lat="41.754707116071536" lon="13.449601690219914"><ele>892.0</ele><time>2026-03-25T11:59:04Z</time></trkpt><trkpt lat="41.75454368985996" lon="13.4496611911742"><ele>883.0</ele><time>2026-03-25T11:59:05Z</time></trkpt><trkpt lat="41.75438334039644" lon="13.449708242322306"><ele>874.0</ele><time>2026-03-25T11:59:06Z</time></trkpt><trkpt lat="41.75420841466979" lon="13.44974251258814"><ele>865.0</ele><time>2026-03-25T11:59:07Z</time></trkpt><trkpt lat="41.754040924359394" lon="13.449746541046979"><ele>861.6666666666666</ele><time>2026-03-25T11:59:08Z</time></trkpt><trkpt lat="41.75386772755132" lon="13.449736534964254"><ele>858.3333333333333</ele><time>2026-03-25T11:59:09Z</time></trkpt><trkpt lat="41.753680027345034" lon="13.449718747249857"><ele>855.0</ele><time>2026-03-25T11:59:10Z</time></trkpt><trkpt lat="41.75349603817473" lon="13.449732693315523"><ele>852.6666666666667</ele><time>2026-03-25T11:59:11Z</time></trkpt><trkpt lat="41.75331585457797" lon="13.449709304015576"><ele>850.3333333333334</ele><time>2026-03-25T11:59:12Z</time></trkpt><trkpt lat="41.75314447634163" lon="13.44968579967969"><ele>848.0</ele><time>2026-03-25T11:59:13Z</time></trkpt><trkpt lat="41.75299739721541" lon="13.449642615294318"><ele>849.0</ele><time>2026-03-25T11:59:14Z</time></trkpt><trkpt lat="41.75285397678645" lon="13.449546911164628"><ele>850.0</ele><time>2026-03-25T11:59:15Z</time></trkpt><trkpt lat="41.75271432243581" lon="13.449498600614685"><ele>851.0</ele><time>2026-03-25T11:59:16Z</time></trkpt><trkpt lat="41.75258160968751" lon="13.449469446145358"><ele>852.0</ele><time>2026-03-25T11:59:17Z</time></trkpt><trkpt lat="41.75246955935004" lon="13.449434632876375"><ele>852.0</ele><time>2026-03-25T11:59:18Z</time></trkpt><trkpt lat="41.752368097416415" lon="13.449405617452372"><ele>852.0</ele><time>2026-03-25T11:59:19Z</time></trkpt><trkpt lat="41.75229418996773" lon="13.449314933057797"><ele>852.0</ele><time>2026-03-25T11:59:20Z</time></trkpt><trkpt lat="41.75226141015224" lon="13.449192126811088"><ele>852.0</ele><time>2026-03-25T11:59:21Z</time></trkpt><trkpt lat="41.75226343995905" lon="13.449057200296547"><ele>852.0</ele><time>2026-03-25T11:59:22Z</time></trkpt><trkpt lat="41.75226907707364" lon="13.448938562682114"><ele>852.0</ele><time>2026-03-25T11:59:23Z</time></trkpt><trkpt lat="41.75218982910994" lon="13.448800618132669"><ele>852.0</ele><time>2026-03-25T11:59:25Z</time></trkpt><trkpt lat="41.75209699637478" lon="13.448787158820785"><ele>852.0</ele><time>2026-03-25T11:59:26Z</time></trkpt><trkpt lat="41.752012097345045" lon="13.448875035733858"><ele>852.0</ele><time>2026-03-25T11:59:27Z</time></trkpt><trkpt lat="41.75200530013867" lon="13.449028211166578"><ele>852.0</ele><time>2026-03-25T11:59:28Z</time></trkpt><trkpt lat="41.75207795955829" lon="13.449190004269031"><ele>852.0</ele><time>2026-03-25T11:59:29Z</time></trkpt><trkpt lat="41.75211868650903" lon="13.449361762502296"><ele>852.0</ele><time>2026-03-25T11:59:30Z</time></trkpt><trkpt lat="41.752154871279565" lon="13.44951965673325"><ele>852.0</ele><time>2026-03-25T11:59:31Z</time></trkpt><trkpt lat="41.75221858117132" lon="13.449663877528215"><ele>852.0</ele><time>2026-03-25T11:59:32Z</time></trkpt><trkpt lat="41.75232664321171" lon="13.44980567069342"><ele>850.6666666666667</ele><time>2026-03-25T11:59:33Z</time></trkpt><trkpt lat="41.75246215758942" lon="13.449943335446632"><ele>849.3333333333334</ele><time>2026-03-25T11:59:34Z</time></trkpt><trkpt lat="41.7526156285984" lon="13.450082234436266"><ele>848.0</ele><time>2026-03-25T11:59:35Z</time></trkpt><trkpt lat="41.7527847764149" lon="13.450203780767106"><ele>848.0</ele><time>2026-03-25T11:59:36Z</time></trkpt><trkpt lat="41.752950472919025" lon="13.450303640855644"><ele>848.0</ele><time>2026-03-25T11:59:37Z</time></trkpt><trkpt lat="41.75310479126279" lon="13.450388516349289"><ele>848.0</ele><time>2026-03-25T11:59:38Z</time></trkpt><trkpt lat="41.75324522757746" lon="13.450472232643582"><ele>840.6666666666667</ele><time>2026-03-25T11:59:39Z</time></trkpt><trkpt lat="41.753380963210056" lon="13.450553040767899"><ele>833.3333333333333</ele><time>2026-03-25T11:59:40Z</time></trkpt><trkpt lat="41.7535297292716" lon="13.450612903939557"><ele>826.0</ele><time>2026-03-25T11:59:41Z</time></trkpt><trkpt lat="41.75369142516924" lon="13.450645420598539"><ele>826.0</ele><time>2026-03-25T11:59:42Z</time></trkpt><trkpt lat="41.75385090408727" lon="13.450660261131185"><ele>826.0</ele><time>2026-03-25T11:59:43Z</time></trkpt><trkpt lat="41.75399494013664" lon="13.450674303224847"><ele>826.0</ele><time>2026-03-25T11:59:44Z</time></trkpt><trkpt lat="41.75413446799265" lon="13.450704022886795"><ele>826.0</ele><time>2026-03-25T11:59:45Z</time></trkpt><trkpt lat="41.75427673312784" lon="13.450757380380765"><ele>831.3333333333333</ele><time>2026-03-25T11:59:46Z</time></trkpt><trkpt lat="41.7544103258091" lon="13.450833378829252"><ele>836.6666666666667</ele><time>2026-03-25T11:59:47Z</time></trkpt><trkpt lat="41.754533017889955" lon="13.450948438679616"><ele>842.0</ele><time>2026-03-25T11:59:48Z</time></trkpt><trkpt lat="41.754633048902406" lon="13.451112782442733"><ele>842.0</ele><time>2026-03-25T11:59:49Z</time></trkpt><trkpt lat="41.75471945086716" lon="13.451261586919124"><ele>842.0</ele><time>2026-03-25T11:59:50Z</time></trkpt><trkpt lat="41.75478264167715" lon="13.451420888288675"><ele>842.0</ele><time>2026-03-25T11:59:51Z</time></trkpt><trkpt lat="41.754785049923164" lon="13.451598229159806"><ele>842.0</ele><time>2026-03-25T11:59:52Z</time></trkpt><trkpt lat="41.75477251941305" lon="13.451783496745579"><ele>837.6666666666667</ele><time>2026-03-25T11:59:53Z</time></trkpt><trkpt lat="41.75473151871272" lon="13.451981618287101"><ele>833.3333333333333</ele><time>2026-03-25T11:59:54Z</time></trkpt><trkpt lat="41.75466710280026" lon="13.452163572479783"><ele>829.0</ele><time>2026-03-25T11:59:55Z</time></trkpt><trkpt lat="41.75457042376757" lon="13.452329125598459"><ele>829.0</ele><time>2026-03-25T11:59:56Z</time></trkpt><trkpt lat="41.75445926339051" lon="13.452498989932506"><ele>829.0</ele><time>2026-03-25T11:59:57Z</time></trkpt><trkpt lat="41.75434259785978" lon="13.452671918565182"><ele>829.0</ele><time>2026-03-25T11:59:58Z</time></trkpt><trkpt lat="41.754223130892974" lon="13.4528306470089"><ele>826.0</ele><time>2026-03-25T11:59:59Z</time></trkpt><trkpt lat="41.75412466733779" lon="13.45295384016372"><ele>823.0</ele><time>2026-03-25T12:00:00Z</time></trkpt><trkpt lat="41.75404216065359" lon="13.453053746573483"><ele>820.0</ele><time>2026-03-25T12:00:01Z</time></trkpt><trkpt lat="41.75396937986638" lon="13.453140539330288"><ele>817.0</ele><time>2026-03-25T12:00:02Z</time></trkpt><trkpt lat="41.75390682362383" lon="13.453214962256332"><ele>814.0</ele><time>2026-03-25T12:00:03Z</time></trkpt><trkpt lat="41.75385788645798" lon="13.453273182618542"><ele>814.0</ele><time>2026-03-25T12:00:04Z</time></trkpt><trkpt lat="41.75377310106039" lon="13.453374051489138"><ele>814.0</ele><time>2026-03-25T12:00:06Z</time></trkpt><trkpt lat="41.75369778133742" lon="13.453464191495481"><ele>814.0</ele><time>2026-03-25T12:00:08Z</time></trkpt><trkpt lat="41.75363821552299" lon="13.453536677178567"><ele>814.0</ele><time>2026-03-25T12:00:10Z</time></trkpt><trkpt lat="41.75357127948897" lon="13.453618131685001"><ele>814.0</ele><time>2026-03-25T12:00:12Z</time></trkpt><trkpt lat="41.7534998114845" lon="13.453705101149007"><ele>812.0</ele><time>2026-03-25T12:00:14Z</time></trkpt><trkpt lat="41.753414598929574" lon="13.453808796370897"><ele>810.0</ele><time>2026-03-25T12:00:16Z</time></trkpt><trkpt lat="41.75333329505559" lon="13.453907735105592"><ele>808.0</ele><time>2026-03-25T12:00:18Z</time></trkpt><trkpt lat="41.75325507720579" lon="13.454003196249554"><ele>806.0</ele><time>2026-03-25T12:00:20Z</time></trkpt><trkpt lat="41.75317224973891" lon="13.45410481428903"><ele>804.0</ele><time>2026-03-25T12:00:22Z</time></trkpt><trkpt lat="41.753125435042364" lon="13.454162249545258"><ele>804.0</ele><time>2026-03-25T12:00:23Z</time></trkpt><trkpt lat="41.75307369993242" lon="13.454226293067281"><ele>804.0</ele><time>2026-03-25T12:00:24Z</time></trkpt><trkpt lat="41.7530195007218" lon="13.454294332194532"><ele>804.0</ele><time>2026-03-25T12:00:25Z</time></trkpt><trkpt lat="41.75296457292323" lon="13.454363303523046"><ele>804.0</ele><time>2026-03-25T12:00:26Z</time></trkpt><trkpt lat="41.752906632779386" lon="13.454436635401905"><ele>804.0</ele><time>2026-03-25T12:00:27Z</time></trkpt><trkpt lat="41.7528352765264" lon="13.454523540097137"><ele>804.0</ele><time>2026-03-25T12:00:28Z</time></trkpt><trkpt lat="41.75275803374237" lon="13.454612583061394"><ele>801.25</ele><time>2026-03-25T12:00:29Z</time></trkpt><trkpt lat="41.75266995524492" lon="13.45471169003777"><ele>798.5</ele><time>2026-03-25T12:00:30Z</time></trkpt><trkpt lat="41.75255842461143" lon="13.454836344444946"><ele>795.75</ele><time>2026-03-25T12:00:31Z</time></trkpt><trkpt lat="41.75244158935947" lon="13.454969029875143"><ele>793.0</ele><time>2026-03-25T12:00:32Z</time></trkpt><trkpt lat="41.75234472274186" lon="13.455085491848587"><ele>793.0</ele><time>2026-03-25T12:00:33Z</time></trkpt><trkpt lat="41.75225579859683" lon="13.455196331631392"><ele>793.0</ele><time>2026-03-25T12:00:34Z</time></trkpt><trkpt lat="41.752180088991324" lon="13.455296990999528"><ele>793.0</ele><time>2026-03-25T12:00:35Z</time></trkpt><trkpt lat="41.752114381299634" lon="13.45539493474141"><ele>793.0</ele><time>2026-03-25T12:00:36Z</time></trkpt><trkpt lat="41.752060306146774" lon="13.455488038717633"><ele>793.0</ele><time>2026-03-25T12:00:37Z</time></trkpt><trkpt lat="41.75201272181471" lon="13.455571682608804"><ele>793.0</ele><time>2026-03-25T12:00:38Z</time></trkpt><trkpt lat="41.75192847872003" lon="13.455666363060402"><ele>793.0</ele><time>2026-03-25T12:00:40Z</time></trkpt><trkpt lat="41.751846602083695" lon="13.45554422073491"><ele>793.0</ele><time>2026-03-25T12:00:42Z</time></trkpt><trkpt lat="41.75186689356786" lon="13.45543066578855"><ele>793.0</ele><time>2026-03-25T12:00:43Z</time></trkpt><trkpt lat="41.75193213213116" lon="13.45531530916639"><ele>793.0</ele><time>2026-03-25T12:00:44Z</time></trkpt><trkpt lat="41.75199834825374" lon="13.45517847651829"><ele>793.0</ele><time>2026-03-25T12:00:45Z</time></trkpt><trkpt lat="41.75205764889818" lon="13.455041178500679"><ele>793.0</ele><time>2026-03-25T12:00:46Z</time></trkpt><trkpt lat="41.75210716317233" lon="13.454928374599662"><ele>793.0</ele><time>2026-03-25T12:00:47Z</time></trkpt><trkpt lat="41.75214032775434" lon="13.454822451963608"><ele>793.0</ele><time>2026-03-25T12:00:48Z</time></trkpt><trkpt lat="41.75215823905995" lon="13.45471824776255"><ele>793.0</ele><time>2026-03-25T12:00:49Z</time></trkpt><trkpt lat="41.7521504098396" lon="13.454607883647183"><ele>791.0</ele><time>2026-03-25T12:00:50Z</time></trkpt><trkpt lat="41.752112338242995" lon="13.454491929416736"><ele>789.0</ele><time>2026-03-25T12:00:51Z</time></trkpt><trkpt lat="41.7520434440114" lon="13.454395608431366"><ele>787.0</ele><time>2026-03-25T12:00:52Z</time></trkpt><trkpt lat="41.75196712661547" lon="13.454311399125238"><ele>785.0</ele><time>2026-03-25T12:00:53Z</time></trkpt><trkpt lat="41.7518595296914" lon="13.454275798304408"><ele>783.0</ele><time>2026-03-25T12:00:54Z</time></trkpt><trkpt lat="41.75172953776277" lon="13.454302769751832"><ele>782.25</ele><time>2026-03-25T12:00:55Z</time></trkpt><trkpt lat="41.751603161438055" lon="13.454399249582526"><ele>781.5</ele><time>2026-03-25T12:00:56Z</time></trkpt><trkpt lat="41.751474953360166" lon="13.454489168478696"><ele>780.75</ele><time>2026-03-25T12:00:57Z</time></trkpt><trkpt lat="41.751350036849026" lon="13.454577186925457"><ele>780.0</ele><time>2026-03-25T12:00:58Z</time></trkpt><trkpt lat="41.75122778206638" lon="13.45466046854638"><ele>779.0</ele><time>2026-03-25T12:00:59Z</time></trkpt><trkpt lat="41.75110711969475" lon="13.454742747895295"><ele>778.0</ele><time>2026-03-25T12:01:00Z</time></trkpt><trkpt lat="41.75098346569912" lon="13.4548207931856"><ele>777.0</ele><time>2026-03-25T12:01:01Z</time></trkpt><trkpt lat="41.750861071083946" lon="13.454894858875086"><ele>776.0</ele><time>2026-03-25T12:01:02Z</time></trkpt><trkpt lat="41.75073534319452" lon="13.454966513924502"><ele>774.5</ele><time>2026-03-25T12:01:03Z</time></trkpt><trkpt lat="41.750606952712914" lon="13.455028562765357"><ele>773.0</ele><time>2026-03-25T12:01:04Z</time></trkpt><trkpt lat="41.7504797941698" lon="13.455085059326043"><ele>771.5</ele><time>2026-03-25T12:01:05Z</time></trkpt><trkpt lat="41.75037012261822" lon="13.455140013385787"><ele>770.0</ele><time>2026-03-25T12:01:06Z</time></trkpt><trkpt lat="41.750259285813115" lon="13.455201375715902"><ele>770.6</ele><time>2026-03-25T12:01:07Z</time></trkpt><trkpt lat="41.75016413348936" lon="13.455290201848813"><ele>771.2</ele><time>2026-03-25T12:01:08Z</time></trkpt><trkpt lat="41.75007404595555" lon="13.45536929632642"><ele>771.8</ele><time>2026-03-25T12:01:09Z</time></trkpt><trkpt lat="41.74998401416373" lon="13.455428000895935"><ele>772.4</ele><time>2026-03-25T12:01:10Z</time></trkpt><trkpt lat="41.74989569124099" lon="13.455505147825848"><ele>773.0</ele><time>2026-03-25T12:01:11Z</time></trkpt><trkpt lat="41.749809394284036" lon="13.455571795781603"><ele>771.0</ele><time>2026-03-25T12:01:12Z</time></trkpt><trkpt lat="41.74973023082405" lon="13.455613373578325"><ele>769.0</ele><time>2026-03-25T12:01:13Z</time></trkpt><trkpt lat="41.74965541074577" lon="13.455621776649734"><ele>767.0</ele><time>2026-03-25T12:01:14Z</time></trkpt><trkpt lat="41.74956583237406" lon="13.455604352964917"><ele>765.0</ele><time>2026-03-25T12:01:15Z</time></trkpt><trkpt lat="41.74945552824749" lon="13.45557025671172"><ele>763.0</ele><time>2026-03-25T12:01:16Z</time></trkpt><trkpt lat="41.74934037710137" lon="13.455463480179029"><ele>763.3333333333334</ele><time>2026-03-25T12:01:17Z</time></trkpt><trkpt lat="41.7492013105981" lon="13.455378990835342"><ele>763.6666666666666</ele><time>2026-03-25T12:01:18Z</time></trkpt><trkpt lat="41.749045881236356" lon="13.4553164622238"><ele>764.0</ele><time>2026-03-25T12:01:19Z</time></trkpt><trkpt lat="41.74889874660727" lon="13.455263642193573"><ele>764.0</ele><time>2026-03-25T12:01:20Z</time></trkpt><trkpt lat="41.74876885123255" lon="13.455205142298736"><ele>764.0</ele><time>2026-03-25T12:01:21Z</time></trkpt><trkpt lat="41.74864361365274" lon="13.455140720760857"><ele>764.0</ele><time>2026-03-25T12:01:22Z</time></trkpt><trkpt lat="41.748534827056694" lon="13.455079447778381"><ele>764.0</ele><time>2026-03-25T12:01:23Z</time></trkpt><trkpt lat="41.74843695775209" lon="13.455014399152224"><ele>760.6</ele><time>2026-03-25T12:01:24Z</time></trkpt><trkpt lat="41.748351222194835" lon="13.454947212699595"><ele>757.2</ele><time>2026-03-25T12:01:25Z</time></trkpt><trkpt lat="41.74827829686937" lon="13.454874232744585"><ele>753.8000000000001</ele><time>2026-03-25T12:01:26Z</time></trkpt><trkpt lat="41.74821735182981" lon="13.45479661994376"><ele>750.4000000000001</ele><time>2026-03-25T12:01:27Z</time></trkpt><trkpt lat="41.7481895063296" lon="13.454674022147504"><ele>747.0</ele><time>2026-03-25T12:01:28Z</time></trkpt><trkpt lat="41.74814262939349" lon="13.45454406872008"><ele>747.0</ele><time>2026-03-25T12:01:29Z</time></trkpt><trkpt lat="41.74808613566242" lon="13.454405823935135"><ele>747.0</ele><time>2026-03-25T12:01:30Z</time></trkpt><trkpt lat="41.74803125209276" lon="13.454258191906005"><ele>747.0</ele><time>2026-03-25T12:01:31Z</time></trkpt><trkpt lat="41.748198532395605" lon="13.453918572639397"><ele>747.6666666666666</ele><time>2026-03-25T12:01:32Z</time></trkpt><trkpt lat="41.74820124321867" lon="13.45369039235976"><ele>748.3333333333333</ele><time>2026-03-25T12:01:33Z</time></trkpt><trkpt lat="41.74820014251653" lon="13.453483912987632"><ele>749.0</ele><time>2026-03-25T12:01:34Z</time></trkpt><trkpt lat="41.748191828014235" lon="13.453288522900836"><ele>749.0</ele><time>2026-03-25T12:01:35Z</time></trkpt><trkpt lat="41.74815717786472" lon="13.453092140143054"><ele>749.0</ele><time>2026-03-25T12:01:36Z</time></trkpt><trkpt lat="41.748075966073934" lon="13.452886522620915"><ele>749.0</ele><time>2026-03-25T12:01:37Z</time></trkpt><trkpt lat="41.74799916022934" lon="13.452696000963574"><ele>750.3333333333333</ele><time>2026-03-25T12:01:38Z</time></trkpt><trkpt lat="41.74795178580235" lon="13.452505356480984"><ele>751.6666666666666</ele><time>2026-03-25T12:01:39Z</time></trkpt><trkpt lat="41.747927109963264" lon="13.452308815531753"><ele>753.0</ele><time>2026-03-25T12:01:40Z</time></trkpt><trkpt lat="41.74788961125929" lon="13.452107943325034"><ele>756.0</ele><time>2026-03-25T12:01:41Z</time></trkpt><trkpt lat="41.74781363535049" lon="13.451913297286966"><ele>759.0</ele><time>2026-03-25T12:01:42Z</time></trkpt><trkpt lat="41.7477154856828" lon="13.45172492835102"><ele>762.0</ele><time>2026-03-25T12:01:43Z</time></trkpt><trkpt lat="41.74757408004763" lon="13.4515474320764"><ele>755.0</ele><time>2026-03-25T12:01:44Z</time></trkpt><trkpt lat="41.74743736667679" lon="13.4513945891751"><ele>748.0</ele><time>2026-03-25T12:01:45Z</time></trkpt><trkpt lat="41.74731839524181" lon="13.451240474642304"><ele>741.0</ele><time>2026-03-25T12:01:46Z</time></trkpt><trkpt lat="41.747221029052795" lon="13.45107788226804"><ele>741.0</ele><time>2026-03-25T12:01:47Z</time></trkpt><trkpt lat="41.74713942180894" lon="13.450902536620069"><ele>741.0</ele><time>2026-03-25T12:01:48Z</time></trkpt><trkpt lat="41.74706393128253" lon="13.45070661734254"><ele>741.0</ele><time>2026-03-25T12:01:49Z</time></trkpt><trkpt lat="41.7469794271354" lon="13.450515155621797"><ele>735.0</ele><time>2026-03-25T12:01:50Z</time></trkpt><trkpt lat="41.746868852578544" lon="13.450340642161986"><ele>729.0</ele><time>2026-03-25T12:01:51Z</time></trkpt><trkpt lat="41.74671985671309" lon="13.450194356846998"><ele>723.0</ele><time>2026-03-25T12:01:52Z</time></trkpt><trkpt lat="41.74655601885489" lon="13.450063468266261"><ele>723.0</ele><time>2026-03-25T12:01:53Z</time></trkpt><trkpt lat="41.746407400536576" lon="13.449952073916256"><ele>723.0</ele><time>2026-03-25T12:01:54Z</time></trkpt><trkpt lat="41.74626422840208" lon="13.449857354137542"><ele>723.0</ele><time>2026-03-25T12:01:55Z</time></trkpt><trkpt lat="41.74611238155014" lon="13.449782977597177"><ele>713.6666666666666</ele><time>2026-03-25T12:01:56Z</time></trkpt><trkpt lat="41.745926496891244" lon="13.449752062219735"><ele>704.3333333333333</ele><time>2026-03-25T12:01:57Z</time></trkpt><trkpt lat="41.74574855617516" lon="13.449707592144636"><ele>695.0</ele><time>2026-03-25T12:01:58Z</time></trkpt><trkpt lat="41.745596473031945" lon="13.449635137537749"><ele>693.0</ele><time>2026-03-25T12:01:59Z</time></trkpt><trkpt lat="41.74545709374164" lon="13.449527306302"><ele>691.0</ele><time>2026-03-25T12:02:00Z</time></trkpt><trkpt lat="41.745311791885904" lon="13.449392353414513"><ele>689.0</ele><time>2026-03-25T12:02:01Z</time></trkpt><trkpt lat="41.745169223992086" lon="13.44924629546149"><ele>689.0</ele><time>2026-03-25T12:02:02Z</time></trkpt><trkpt lat="41.74503925143349" lon="13.449103410568963"><ele>689.0</ele><time>2026-03-25T12:02:03Z</time></trkpt><trkpt lat="41.74491234293753" lon="13.448969696976281"><ele>689.0</ele><time>2026-03-25T12:02:04Z</time></trkpt><trkpt lat="41.74476476873651" lon="13.448848670931822"><ele>685.3333333333333</ele><time>2026-03-25T12:02:05Z</time></trkpt><trkpt lat="41.744590878758665" lon="13.448762165329855"><ele>681.6666666666666</ele><time>2026-03-25T12:02:06Z</time></trkpt><trkpt lat="41.74441816721874" lon="13.448687911976007"><ele>678.0</ele><time>2026-03-25T12:02:07Z</time></trkpt><trkpt lat="41.74425106207141" lon="13.448628629352676"><ele>678.0</ele><time>2026-03-25T12:02:08Z</time></trkpt><trkpt lat="41.74408847148915" lon="13.448581818123678"><ele>678.0</ele><time>2026-03-25T12:02:09Z</time></trkpt><trkpt lat="41.74393427409684" lon="13.448533468844474"><ele>678.0</ele><time>2026-03-25T12:02:10Z</time></trkpt><trkpt lat="41.74378893006659" lon="13.44846056038536"><ele>678.0</ele><time>2026-03-25T12:02:11Z</time></trkpt><trkpt lat="41.74364432013321" lon="13.448357872618198"><ele>678.0</ele><time>2026-03-25T12:02:12Z</time></trkpt><trkpt lat="41.74350121819201" lon="13.448229241050827"><ele>678.0</ele><time>2026-03-25T12:02:13Z</time></trkpt><trkpt lat="41.74335389669029" lon="13.448062617153461"><ele>680.0</ele><time>2026-03-25T12:02:14Z</time></trkpt><trkpt lat="41.74319428919509" lon="13.44785185850878"><ele>682.0</ele><time>2026-03-25T12:02:15Z</time></trkpt><trkpt lat="41.743028704749904" lon="13.447621157081768"><ele>682.0</ele><time>2026-03-25T12:02:16Z</time></trkpt><trkpt lat="41.74285434853715" lon="13.447374811808533"><ele>682.0</ele><time>2026-03-25T12:02:17Z</time></trkpt><trkpt lat="41.74268588137237" lon="13.447157420983688"><ele>677.6666666666667</ele><time>2026-03-25T12:02:18Z</time></trkpt><trkpt lat="41.74253025966312" lon="13.446971861506361"><ele>673.3333333333334</ele><time>2026-03-25T12:02:19Z</time></trkpt><trkpt lat="41.74239045543437" lon="13.446807323934738"><ele>669.0</ele><time>2026-03-25T12:02:20Z</time></trkpt><trkpt lat="41.74226430399989" lon="13.44663063076538"><ele>669.0</ele><time>2026-03-25T12:02:21Z</time></trkpt><trkpt lat="41.74215299448613" lon="13.446430948681899"><ele>669.0</ele><time>2026-03-25T12:02:22Z</time></trkpt><trkpt lat="41.74205773189424" lon="13.446213776339071"><ele>669.0</ele><time>2026-03-25T12:02:23Z</time></trkpt><trkpt lat="41.741972913594815" lon="13.445978193850648"><ele>674.0</ele><time>2026-03-25T12:02:24Z</time></trkpt><trkpt lat="41.74189408549427" lon="13.445720294684534"><ele>679.0</ele><time>2026-03-25T12:02:25Z</time></trkpt><trkpt lat="41.74182201915562" lon="13.445456907638839"><ele>684.0</ele><time>2026-03-25T12:02:26Z</time></trkpt><trkpt lat="41.74175432299913" lon="13.445214972056714"><ele>673.3333333333334</ele><time>2026-03-25T12:02:27Z</time></trkpt><trkpt lat="41.74167741074006" lon="13.444982990606874"><ele>662.6666666666667</ele><time>2026-03-25T12:02:28Z</time></trkpt><trkpt lat="41.74159891163622" lon="13.444769498433253"><ele>652.0</ele><time>2026-03-25T12:02:29Z</time></trkpt><trkpt lat="41.741522709562766" lon="13.444568435632"><ele>652.0</ele><time>2026-03-25T12:02:30Z</time></trkpt><trkpt lat="41.741447521937175" lon="13.444379250105587"><ele>652.0</ele><time>2026-03-25T12:02:31Z</time></trkpt><trkpt lat="41.74137500485848" lon="13.444207194085344"><ele>652.0</ele><time>2026-03-25T12:02:32Z</time></trkpt><trkpt lat="41.741308344685415" lon="13.444052445090227"><ele>652.0</ele><time>2026-03-25T12:02:33Z</time></trkpt><trkpt lat="41.741250095055776" lon="13.443900661417903"><ele>652.0</ele><time>2026-03-25T12:02:34Z</time></trkpt><trkpt lat="41.74120038381014" lon="13.443745850615555"><ele>652.0</ele><time>2026-03-25T12:02:35Z</time></trkpt><trkpt lat="41.741173755088894" lon="13.443564359084816"><ele>652.0</ele><time>2026-03-25T12:02:36Z</time></trkpt><trkpt lat="41.7411702007261" lon="13.44336831418438"><ele>652.0</ele><time>2026-03-25T12:02:37Z</time></trkpt><trkpt lat="41.74118173730484" lon="13.443184135394814"><ele>652.0</ele><time>2026-03-25T12:02:38Z</time></trkpt><trkpt lat="41.741212800881605" lon="13.443013098954845"><ele>652.0</ele><time>2026-03-25T12:02:39Z</time></trkpt><trkpt lat="41.7412571080863" lon="13.442863841125904"><ele>652.0</ele><time>2026-03-25T12:02:40Z</time></trkpt><trkpt lat="41.74132058341144" lon="13.442735166620974"><ele>652.0</ele><time>2026-03-25T12:02:41Z</time></trkpt><trkpt lat="41.74136502803245" lon="13.44262678479877"><ele>649.0</ele><time>2026-03-25T12:02:42Z</time></trkpt><trkpt lat="41.74137193304563" lon="13.442505411318862"><ele>646.0</ele><time>2026-03-25T12:02:43Z</time></trkpt><trkpt lat="41.74132366480201" lon="13.442375407149466"><ele>643.0</ele><time>2026-03-25T12:02:44Z</time></trkpt><trkpt lat="41.74123512062601" lon="13.442276838006507"><ele>640.0</ele><time>2026-03-25T12:02:45Z</time></trkpt><trkpt lat="41.74110451021286" lon="13.442236600795631"><ele>637.0</ele><time>2026-03-25T12:02:46Z</time></trkpt><trkpt lat="41.74094406877877" lon="13.442264451073447"><ele>629.3333333333334</ele><time>2026-03-25T12:02:47Z</time></trkpt><trkpt lat="41.74077250049613" lon="13.442321777745104"><ele>621.6666666666666</ele><time>2026-03-25T12:02:48Z</time></trkpt><trkpt lat="41.7405962567072" lon="13.442366674724884"><ele>614.0</ele><time>2026-03-25T12:02:49Z</time></trkpt><trkpt lat="41.74040906787329" lon="13.44241627757042"><ele>614.0</ele><time>2026-03-25T12:02:50Z</time></trkpt><trkpt lat="41.740220265106515" lon="13.442463613898468"><ele>614.0</ele><time>2026-03-25T12:02:51Z</time></trkpt><trkpt lat="41.7400361563468" lon="13.442510474006838"><ele>614.0</ele><time>2026-03-25T12:02:52Z</time></trkpt><trkpt lat="41.73985501436396" lon="13.442553768648759"><ele>611.3333333333333</ele><time>2026-03-25T12:02:53Z</time></trkpt><trkpt lat="41.73968269702546" lon="13.442591814462405"><ele>608.6666666666666</ele><time>2026-03-25T12:02:54Z</time></trkpt><trkpt lat="41.739522515066426" lon="13.44262918255368"><ele>606.0</ele><time>2026-03-25T12:02:55Z</time></trkpt><trkpt lat="41.73937249412769" lon="13.442669070992068"><ele>603.75</ele><time>2026-03-25T12:02:56Z</time></trkpt><trkpt lat="41.73922701540799" lon="13.442706283271729"><ele>601.5</ele><time>2026-03-25T12:02:57Z</time></trkpt><trkpt lat="41.739087866030715" lon="13.442740474932862"><ele>599.25</ele><time>2026-03-25T12:02:58Z</time></trkpt><trkpt lat="41.738960787564736" lon="13.442773190323189"><ele>597.0</ele><time>2026-03-25T12:02:59Z</time></trkpt><trkpt lat="41.738850811995" lon="13.442806763053268"><ele>597.0</ele><time>2026-03-25T12:03:00Z</time></trkpt><trkpt lat="41.73874771522715" lon="13.442828824627485"><ele>597.0</ele><time>2026-03-25T12:03:01Z</time></trkpt><trkpt lat="41.73864546640029" lon="13.442792424093314"><ele>597.0</ele><time>2026-03-25T12:03:02Z</time></trkpt><trkpt lat="41.73854249069267" lon="13.442676398672587"><ele>597.0</ele><time>2026-03-25T12:03:03Z</time></trkpt><trkpt lat="41.73845200515618" lon="13.442465755021475"><ele>595.6666666666666</ele><time>2026-03-25T12:03:04Z</time></trkpt><trkpt lat="41.738359723424566" lon="13.442248328225007"><ele>594.3333333333333</ele><time>2026-03-25T12:03:05Z</time></trkpt><trkpt lat="41.73825502874045" lon="13.44203083511644"><ele>593.0</ele><time>2026-03-25T12:03:06Z</time></trkpt><trkpt lat="41.73813395635267" lon="13.441795973142664"><ele>593.0</ele><time>2026-03-25T12:03:07Z</time></trkpt><trkpt lat="41.738007273236526" lon="13.441558101779053"><ele>593.0</ele><time>2026-03-25T12:03:08Z</time></trkpt><trkpt lat="41.737890005183516" lon="13.44134965369792"><ele>593.0</ele><time>2026-03-25T12:03:09Z</time></trkpt><trkpt lat="41.73778974127216" lon="13.441167213794587"><ele>597.0</ele><time>2026-03-25T12:03:10Z</time></trkpt><trkpt lat="41.73769913587697" lon="13.440991696094896"><ele>601.0</ele><time>2026-03-25T12:03:11Z</time></trkpt><trkpt lat="41.73760875949305" lon="13.44082925050386"><ele>605.0</ele><time>2026-03-25T12:03:12Z</time></trkpt><trkpt lat="41.73755309492494" lon="13.44065167518129"><ele>599.6666666666666</ele><time>2026-03-25T12:03:13Z</time></trkpt><trkpt lat="41.737521957301325" lon="13.440433574401155"><ele>594.3333333333334</ele><time>2026-03-25T12:03:14Z</time></trkpt><trkpt lat="41.73750327640481" lon="13.440185129400486"><ele>589.0</ele><time>2026-03-25T12:03:15Z</time></trkpt><trkpt lat="41.73743288509263" lon="13.439943433150884"><ele>589.0</ele><time>2026-03-25T12:03:16Z</time></trkpt><trkpt lat="41.73729606334093" lon="13.439687932562313"><ele>589.0</ele><time>2026-03-25T12:03:17Z</time></trkpt><trkpt lat="41.737129567734684" lon="13.43939845838542"><ele>590.5</ele><time>2026-03-25T12:03:18Z</time></trkpt><trkpt lat="41.73697834177803" lon="13.439121162702426"><ele>592.0</ele><time>2026-03-25T12:03:19Z</time></trkpt><trkpt lat="41.73685349713589" lon="13.438874494421901"><ele>585.3333333333334</ele><time>2026-03-25T12:03:20Z</time></trkpt><trkpt lat="41.73673996046982" lon="13.438640516077006"><ele>578.6666666666666</ele><time>2026-03-25T12:03:21Z</time></trkpt><trkpt lat="41.736636553129145" lon="13.438426004362643"><ele>572.0</ele><time>2026-03-25T12:03:22Z</time></trkpt><trkpt lat="41.73654732580361" lon="13.438224184680616"><ele>572.0</ele><time>2026-03-25T12:03:23Z</time></trkpt><trkpt lat="41.736464595430526" lon="13.438038891118126"><ele>572.0</ele><time>2026-03-25T12:03:24Z</time></trkpt><trkpt lat="41.73635038277938" lon="13.437853807860288"><ele>572.0</ele><time>2026-03-25T12:03:25Z</time></trkpt><trkpt lat="41.73619921448964" lon="13.437683835421597"><ele>571.6666666666666</ele><time>2026-03-25T12:03:26Z</time></trkpt><trkpt lat="41.73604045139253" lon="13.437528628206115"><ele>571.3333333333334</ele><time>2026-03-25T12:03:27Z</time></trkpt><trkpt lat="41.73588808706572" lon="13.43739644924462"><ele>571.0</ele><time>2026-03-25T12:03:28Z</time></trkpt><trkpt lat="41.73572616398236" lon="13.437275481458437"><ele>571.0</ele><time>2026-03-25T12:03:29Z</time></trkpt><trkpt lat="41.73555573551427" lon="13.437172198997729"><ele>571.0</ele><time>2026-03-25T12:03:30Z</time></trkpt><trkpt lat="41.73538546829637" lon="13.437096817073938"><ele>571.0</ele><time>2026-03-25T12:03:31Z</time></trkpt><trkpt lat="41.73521069386283" lon="13.437064742047085"><ele>566.6666666666667</ele><time>2026-03-25T12:03:32Z</time></trkpt><trkpt lat="41.735034200568364" lon="13.437050535304715"><ele>562.3333333333334</ele><time>2026-03-25T12:03:33Z</time></trkpt><trkpt lat="41.734860826598926" lon="13.43698927719345"><ele>558.0</ele><time>2026-03-25T12:03:34Z</time></trkpt><trkpt lat="41.734684485583465" lon="13.436873395194606"><ele>558.0</ele><time>2026-03-25T12:03:35Z</time></trkpt><trkpt lat="41.734515548175494" lon="13.43675144262423"><ele>558.0</ele><time>2026-03-25T12:03:36Z</time></trkpt><trkpt lat="41.73436034184098" lon="13.436645759032393"><ele>558.0</ele><time>2026-03-25T12:03:37Z</time></trkpt><trkpt lat="41.73421075878252" lon="13.436546763344651"><ele>555.6666666666666</ele><time>2026-03-25T12:03:38Z</time></trkpt><trkpt lat="41.73406971141108" lon="13.436443465464796"><ele>553.3333333333333</ele><time>2026-03-25T12:03:39Z</time></trkpt><trkpt lat="41.733933969463095" lon="13.436329503065924"><ele>551.0</ele><time>2026-03-25T12:03:40Z</time></trkpt><trkpt lat="41.73381570973861" lon="13.436208317340206"><ele>551.0</ele><time>2026-03-25T12:03:41Z</time></trkpt><trkpt lat="41.73371809282522" lon="13.436077728088781"><ele>551.0</ele><time>2026-03-25T12:03:42Z</time></trkpt><trkpt lat="41.733638255422136" lon="13.435938430275437"><ele>551.0</ele><time>2026-03-25T12:03:43Z</time></trkpt><trkpt lat="41.73356531390902" lon="13.435796373152082"><ele>551.0</ele><time>2026-03-25T12:03:44Z</time></trkpt><trkpt lat="41.73348996948815" lon="13.43565688392499"><ele>550.25</ele><time>2026-03-25T12:03:45Z</time></trkpt><trkpt lat="41.73341677072365" lon="13.43552406227138"><ele>549.5</ele><time>2026-03-25T12:03:46Z</time></trkpt><trkpt lat="41.7333488914288" lon="13.43539455700466"><ele>548.75</ele><time>2026-03-25T12:03:47Z</time></trkpt><trkpt lat="41.73328534744781" lon="13.435265820013058"><ele>548.0</ele><time>2026-03-25T12:03:48Z</time></trkpt><trkpt lat="41.73322205225033" lon="13.435142888227098"><ele>548.0</ele><time>2026-03-25T12:03:49Z</time></trkpt><trkpt lat="41.73314088996327" lon="13.435040056373849"><ele>548.0</ele><time>2026-03-25T12:03:50Z</time></trkpt><trkpt lat="41.73304271021048" lon="13.434944427957308"><ele>548.0</ele><time>2026-03-25T12:03:51Z</time></trkpt><trkpt lat="41.73292173840551" lon="13.434873777515833"><ele>548.0</ele><time>2026-03-25T12:03:52Z</time></trkpt><trkpt lat="41.732781396527145" lon="13.434816900487911"><ele>549.0</ele><time>2026-03-25T12:03:53Z</time></trkpt><trkpt lat="41.73260958699463" lon="13.434784130416014"><ele>550.0</ele><time>2026-03-25T12:03:54Z</time></trkpt><trkpt lat="41.73242065906642" lon="13.434742660905362"><ele>551.0</ele><time>2026-03-25T12:03:55Z</time></trkpt><trkpt lat="41.73224198980592" lon="13.43476324432076"><ele>551.0</ele><time>2026-03-25T12:03:56Z</time></trkpt><trkpt lat="41.732062111915994" lon="13.434786746228117"><ele>551.0</ele><time>2026-03-25T12:03:57Z</time></trkpt><trkpt lat="41.731877973954475" lon="13.434806959681032"><ele>551.0</ele><time>2026-03-25T12:03:58Z</time></trkpt><trkpt lat="41.731680005591244" lon="13.434831565629072"><ele>549.3333333333333</ele><time>2026-03-25T12:03:59Z</time></trkpt><trkpt lat="41.73145373984595" lon="13.43486132972218"><ele>547.6666666666666</ele><time>2026-03-25T12:04:00Z</time></trkpt><trkpt lat="41.731248705310215" lon="13.434888300954157"><ele>546.0</ele><time>2026-03-25T12:04:01Z</time></trkpt><trkpt lat="41.73105674287486" lon="13.434916240513655"><ele>542.6666666666666</ele><time>2026-03-25T12:04:02Z</time></trkpt><trkpt lat="41.73086776058924" lon="13.434909556482264"><ele>539.3333333333333</ele><time>2026-03-25T12:04:03Z</time></trkpt><trkpt lat="41.73067661748922" lon="13.434891622609921"><ele>536.0</ele><time>2026-03-25T12:04:04Z</time></trkpt><trkpt lat="41.73051719793559" lon="13.434832089751733"><ele>536.0</ele><time>2026-03-25T12:04:05Z</time></trkpt><trkpt lat="41.73037566529485" lon="13.43477577275148"><ele>536.0</ele><time>2026-03-25T12:04:06Z</time></trkpt><trkpt lat="41.730228802229426" lon="13.434725004851181"><ele>536.0</ele><time>2026-03-25T12:04:07Z</time></trkpt><trkpt lat="41.73004695786196" lon="13.434756077362527"><ele>534.6666666666666</ele><time>2026-03-25T12:04:08Z</time></trkpt><trkpt lat="41.72986683705662" lon="13.434808026522681"><ele>533.3333333333334</ele><time>2026-03-25T12:04:09Z</time></trkpt><trkpt lat="41.729681420926696" lon="13.434890543700563"><ele>532.0</ele><time>2026-03-25T12:04:10Z</time></trkpt><trkpt lat="41.72951299426004" lon="13.435005091567803"><ele>527.3333333333334</ele><time>2026-03-25T12:04:11Z</time></trkpt><trkpt lat="41.729352980410525" lon="13.435095059452134"><ele>522.6666666666666</ele><time>2026-03-25T12:04:12Z</time></trkpt><trkpt lat="41.72919951365306" lon="13.435168569938654"><ele>518.0</ele><time>2026-03-25T12:04:13Z</time></trkpt><trkpt lat="41.729032853875125" lon="13.435220868339705"><ele>518.0</ele><time>2026-03-25T12:04:14Z</time></trkpt><trkpt lat="41.728858411430174" lon="13.435238113164205"><ele>518.0</ele><time>2026-03-25T12:04:15Z</time></trkpt><trkpt lat="41.72869511826867" lon="13.435252399104156"><ele>518.0</ele><time>2026-03-25T12:04:16Z</time></trkpt><trkpt lat="41.72854033752991" lon="13.435278195302313"><ele>518.6666666666666</ele><time>2026-03-25T12:04:17Z</time></trkpt><trkpt lat="41.728390782990815" lon="13.435345845392224"><ele>519.3333333333334</ele><time>2026-03-25T12:04:18Z</time></trkpt><trkpt lat="41.7282379176995" lon="13.435468286326808"><ele>520.0</ele><time>2026-03-25T12:04:19Z</time></trkpt><trkpt lat="41.72808236232657" lon="13.435614740362183"><ele>520.0</ele><time>2026-03-25T12:04:20Z</time></trkpt><trkpt lat="41.727925759782984" lon="13.435753961196786"><ele>520.0</ele><time>2026-03-25T12:04:21Z</time></trkpt><trkpt lat="41.72776992099717" lon="13.435840101530179"><ele>520.0</ele><time>2026-03-25T12:04:22Z</time></trkpt><trkpt lat="41.7276185296016" lon="13.435907033247364"><ele>516.0</ele><time>2026-03-25T12:04:23Z</time></trkpt><trkpt lat="41.7274530873513" lon="13.435978682889457"><ele>512.0</ele><time>2026-03-25T12:04:24Z</time></trkpt><trkpt lat="41.72728245602651" lon="13.436054092151904"><ele>508.0</ele><time>2026-03-25T12:04:25Z</time></trkpt><trkpt lat="41.72710939590144" lon="13.436125806220044"><ele>508.0</ele><time>2026-03-25T12:04:26Z</time></trkpt><trkpt lat="41.726944276821264" lon="13.436177004757974"><ele>508.0</ele><time>2026-03-25T12:04:27Z</time></trkpt><trkpt lat="41.72678386425519" lon="13.436238361346028"><ele>508.0</ele><time>2026-03-25T12:04:28Z</time></trkpt><trkpt lat="41.72662357697985" lon="13.436279945219633"><ele>506.33333333333337</ele><time>2026-03-25T12:04:29Z</time></trkpt><trkpt lat="41.72645825882036" lon="13.436302131285471"><ele>504.66666666666663</ele><time>2026-03-25T12:04:30Z</time></trkpt><trkpt lat="41.72629305499298" lon="13.436350982206529"><ele>503.0</ele><time>2026-03-25T12:04:31Z</time></trkpt><trkpt lat="41.72613060953495" lon="13.436406244716906"><ele>502.25</ele><time>2026-03-25T12:04:32Z</time></trkpt><trkpt lat="41.72598050527269" lon="13.436459267361313"><ele>501.5</ele><time>2026-03-25T12:04:33Z</time></trkpt><trkpt lat="41.72584512305273" lon="13.436509599664417"><ele>500.75</ele><time>2026-03-25T12:04:34Z</time></trkpt><trkpt lat="41.72571560449418" lon="13.436557467894396"><ele>500.0</ele><time>2026-03-25T12:04:35Z</time></trkpt><trkpt lat="41.72559247919507" lon="13.436623900638782"><ele>500.0</ele><time>2026-03-25T12:04:36Z</time></trkpt><trkpt lat="41.72546398329717" lon="13.436658337349588"><ele>500.0</ele><time>2026-03-25T12:04:37Z</time></trkpt><trkpt lat="41.725336761136276" lon="13.436657997911894"><ele>500.0</ele><time>2026-03-25T12:04:38Z</time></trkpt><trkpt lat="41.72521452386903" lon="13.436667033933926"><ele>500.0</ele><time>2026-03-25T12:04:39Z</time></trkpt><trkpt lat="41.72508697510574" lon="13.436679265143907"><ele>498.3333333333333</ele><time>2026-03-25T12:04:40Z</time></trkpt><trkpt lat="41.72494508775197" lon="13.436636082757666"><ele>496.66666666666663</ele><time>2026-03-25T12:04:41Z</time></trkpt><trkpt lat="41.72478724140156" lon="13.436574036845984"><ele>495.0</ele><time>2026-03-25T12:04:42Z</time></trkpt><trkpt lat="41.724634718494976" lon="13.436500585144877"><ele>495.0</ele><time>2026-03-25T12:04:43Z</time></trkpt><trkpt lat="41.724484681921254" lon="13.436436454496148"><ele>495.0</ele><time>2026-03-25T12:04:44Z</time></trkpt><trkpt lat="41.72433254912685" lon="13.436389069134528"><ele>495.0</ele><time>2026-03-25T12:04:45Z</time></trkpt><trkpt lat="41.72418195882655" lon="13.436367985752936"><ele>494.0</ele><time>2026-03-25T12:04:46Z</time></trkpt><trkpt lat="41.724028325520464" lon="13.436377611974411"><ele>493.0</ele><time>2026-03-25T12:04:47Z</time></trkpt><trkpt lat="41.72388005655653" lon="13.436419121860144"><ele>492.0</ele><time>2026-03-25T12:04:48Z</time></trkpt><trkpt lat="41.72373161219299" lon="13.436457345806085"><ele>492.0</ele><time>2026-03-25T12:04:49Z</time></trkpt><trkpt lat="41.72359200182237" lon="13.436516327321247"><ele>492.0</ele><time>2026-03-25T12:04:50Z</time></trkpt><trkpt lat="41.723469512609455" lon="13.436573216251219"><ele>492.0</ele><time>2026-03-25T12:04:51Z</time></trkpt><trkpt lat="41.723348637717976" lon="13.43663408172161"><ele>492.0</ele><time>2026-03-25T12:04:52Z</time></trkpt><trkpt lat="41.72322259092437" lon="13.436698405988418"><ele>492.25</ele><time>2026-03-25T12:04:53Z</time></trkpt><trkpt lat="41.723092328011106" lon="13.436762653082855"><ele>492.5</ele><time>2026-03-25T12:04:54Z</time></trkpt><trkpt lat="41.72296640044555" lon="13.436813667549366"><ele>492.75</ele><time>2026-03-25T12:04:55Z</time></trkpt><trkpt lat="41.72284291906031" lon="13.436841128085153"><ele>493.0</ele><time>2026-03-25T12:04:56Z</time></trkpt><trkpt lat="41.72270399418782" lon="13.436841443568143"><ele>493.0</ele><time>2026-03-25T12:04:57Z</time></trkpt><trkpt lat="41.722549025076866" lon="13.436816053996777"><ele>493.0</ele><time>2026-03-25T12:04:58Z</time></trkpt><trkpt lat="41.72237841419443" lon="13.436785734965365"><ele>493.0</ele><time>2026-03-25T12:04:59Z</time></trkpt><trkpt lat="41.72216290389706" lon="13.436738632628039"><ele>493.0</ele><time>2026-03-25T12:05:00Z</time></trkpt><trkpt lat="41.7219164021953" lon="13.43668726287923"><ele>493.0</ele><time>2026-03-25T12:05:01Z</time></trkpt><trkpt lat="41.72166464504623" lon="13.436650180028455"><ele>491.6666666666667</ele><time>2026-03-25T12:05:02Z</time></trkpt><trkpt lat="41.721447692270026" lon="13.436605400845162"><ele>490.33333333333337</ele><time>2026-03-25T12:05:03Z</time></trkpt><trkpt lat="41.72126505744168" lon="13.436573932776568"><ele>489.0</ele><time>2026-03-25T12:05:04Z</time></trkpt><trkpt lat="41.72110794594827" lon="13.436545607639124"><ele>488.33333333333337</ele><time>2026-03-25T12:05:05Z</time></trkpt><trkpt lat="41.72096750574456" lon="13.436526497272494"><ele>487.6666666666667</ele><time>2026-03-25T12:05:06Z</time></trkpt><trkpt lat="41.7208223741614" lon="13.436533884871702"><ele>487.0</ele><time>2026-03-25T12:05:07Z</time></trkpt><trkpt lat="41.72065644524548" lon="13.4365983760752"><ele>487.0</ele><time>2026-03-25T12:05:08Z</time></trkpt><trkpt lat="41.72045020676721" lon="13.436654941344539"><ele>487.0</ele><time>2026-03-25T12:05:09Z</time></trkpt><trkpt lat="41.72026015065161" lon="13.43671579041928"><ele>487.0</ele><time>2026-03-25T12:05:10Z</time></trkpt><trkpt lat="41.72007241330328" lon="13.436759017875433"><ele>489.0</ele><time>2026-03-25T12:05:11Z</time></trkpt><trkpt lat="41.71989039661198" lon="13.436769461219605"><ele>491.0</ele><time>2026-03-25T12:05:12Z</time></trkpt><trkpt lat="41.719714409100646" lon="13.43677878316823"><ele>493.0</ele><time>2026-03-25T12:05:13Z</time></trkpt><trkpt lat="41.719525757522455" lon="13.436807767002751"><ele>494.6666666666667</ele><time>2026-03-25T12:05:14Z</time></trkpt><trkpt lat="41.719338501895855" lon="13.43680060465628"><ele>496.33333333333337</ele><time>2026-03-25T12:05:15Z</time></trkpt><trkpt lat="41.71916941932999" lon="13.436812584698947"><ele>498.0</ele><time>2026-03-25T12:05:16Z</time></trkpt><trkpt lat="41.7189907206136" lon="13.436853694425995"><ele>498.0</ele><time>2026-03-25T12:05:17Z</time></trkpt><trkpt lat="41.71879307267518" lon="13.436904896407231"><ele>498.0</ele><time>2026-03-25T12:05:18Z</time></trkpt><trkpt lat="41.71858736008873" lon="13.436975886361955"><ele>498.0</ele><time>2026-03-25T12:05:19Z</time></trkpt><trkpt lat="41.718372266435246" lon="13.437049796406146"><ele>490.0</ele><time>2026-03-25T12:05:20Z</time></trkpt><trkpt lat="41.718179198507386" lon="13.437176595849353"><ele>482.0</ele><time>2026-03-25T12:05:21Z</time></trkpt><trkpt lat="41.717982001536875" lon="13.437299057821138"><ele>474.0</ele><time>2026-03-25T12:05:22Z</time></trkpt><trkpt lat="41.71777967541364" lon="13.437427841169994"><ele>473.5</ele><time>2026-03-25T12:05:23Z</time></trkpt><trkpt lat="41.71754992017882" lon="13.437559644357757"><ele>473.0</ele><time>2026-03-25T12:05:24Z</time></trkpt><trkpt lat="41.71737007935965" lon="13.437742482401891"><ele>473.0</ele><time>2026-03-25T12:05:25Z</time></trkpt><trkpt lat="41.717182331331415" lon="13.437904410357312"><ele>473.0</ele><time>2026-03-25T12:05:26Z</time></trkpt><trkpt lat="41.71697022815997" lon="13.438044630213934"><ele>471.0</ele><time>2026-03-25T12:05:27Z</time></trkpt><trkpt lat="41.71676260047981" lon="13.438150966421185"><ele>469.0</ele><time>2026-03-25T12:05:28Z</time></trkpt><trkpt lat="41.716569324872225" lon="13.438246115813246"><ele>467.0</ele><time>2026-03-25T12:05:29Z</time></trkpt><trkpt lat="41.71639781496159" lon="13.438360143028097"><ele>467.0</ele><time>2026-03-25T12:05:30Z</time></trkpt><trkpt lat="41.716223188347385" lon="13.4384524664311"><ele>467.0</ele><time>2026-03-25T12:05:31Z</time></trkpt><trkpt lat="41.71603889395975" lon="13.43856469577537"><ele>467.0</ele><time>2026-03-25T12:05:32Z</time></trkpt><trkpt lat="41.71582535157119" lon="13.438612441473778"><ele>467.0</ele><time>2026-03-25T12:05:33Z</time></trkpt><trkpt lat="41.71560362393565" lon="13.438674206282855"><ele>467.0</ele><time>2026-03-25T12:05:34Z</time></trkpt><trkpt lat="41.7153924379518" lon="13.438752647273917"><ele>467.0</ele><time>2026-03-25T12:05:35Z</time></trkpt><trkpt lat="41.7151789523714" lon="13.438835636378604"><ele>465.3333333333333</ele><time>2026-03-25T12:05:36Z</time></trkpt><trkpt lat="41.71497444837135" lon="13.438959303037208"><ele>463.66666666666663</ele><time>2026-03-25T12:05:37Z</time></trkpt><trkpt lat="41.71477281742121" lon="13.43904837055152"><ele>462.0</ele><time>2026-03-25T12:05:38Z</time></trkpt><trkpt lat="41.714576999054955" lon="13.43914650878219"><ele>462.0</ele><time>2026-03-25T12:05:39Z</time></trkpt><trkpt lat="41.71438865216902" lon="13.439314429697303"><ele>462.0</ele><time>2026-03-25T12:05:40Z</time></trkpt><trkpt lat="41.7142018449899" lon="13.439520825538763"><ele>460.0</ele><time>2026-03-25T12:05:41Z</time></trkpt><trkpt lat="41.71399450472339" lon="13.439705170004759"><ele>458.0</ele><time>2026-03-25T12:05:42Z</time></trkpt><trkpt lat="41.713781751285815" lon="13.439864212121849"><ele>458.0</ele><time>2026-03-25T12:05:43Z</time></trkpt><trkpt lat="41.713592467040996" lon="13.440013345740564"><ele>458.0</ele><time>2026-03-25T12:05:44Z</time></trkpt><trkpt lat="41.713407166084046" lon="13.440138977419988"><ele>458.0</ele><time>2026-03-25T12:05:45Z</time></trkpt><trkpt lat="41.7132380266212" lon="13.440271381327124"><ele>457.3333333333333</ele><time>2026-03-25T12:05:46Z</time></trkpt><trkpt lat="41.71306530015395" lon="13.440412971954181"><ele>456.66666666666663</ele><time>2026-03-25T12:05:47Z</time></trkpt><trkpt lat="41.712857596133155" lon="13.440499689190807"><ele>456.0</ele><time>2026-03-25T12:05:48Z</time></trkpt><trkpt lat="41.71262755002708" lon="13.440548310081844"><ele>453.5</ele><time>2026-03-25T12:05:49Z</time></trkpt><trkpt lat="41.71239137960081" lon="13.440622033583272"><ele>451.0</ele><time>2026-03-25T12:05:50Z</time></trkpt><trkpt lat="41.712170276506896" lon="13.440730959160735"><ele>451.0</ele><time>2026-03-25T12:05:51Z</time></trkpt><trkpt lat="41.711971422077696" lon="13.440816531058141"><ele>451.0</ele><time>2026-03-25T12:05:52Z</time></trkpt><trkpt lat="41.7117885913569" lon="13.440882177945985"><ele>451.0</ele><time>2026-03-25T12:05:53Z</time></trkpt><trkpt lat="41.711623099914945" lon="13.440913862002583"><ele>451.0</ele><time>2026-03-25T12:05:54Z</time></trkpt><trkpt lat="41.711436036876734" lon="13.440892338316097"><ele>451.0</ele><time>2026-03-25T12:05:55Z</time></trkpt><trkpt lat="41.71123543753552" lon="13.44084578012242"><ele>451.0</ele><time>2026-03-25T12:05:56Z</time></trkpt><trkpt lat="41.711027744515086" lon="13.440780452842386"><ele>450.6666666666667</ele><time>2026-03-25T12:05:57Z</time></trkpt><trkpt lat="41.7108242967281" lon="13.440709272931347"><ele>450.33333333333337</ele><time>2026-03-25T12:05:58Z</time></trkpt><trkpt lat="41.71063206646196" lon="13.440592744431866"><ele>450.0</ele><time>2026-03-25T12:05:59Z</time></trkpt><trkpt lat="41.7104299757578" lon="13.440502161971082"><ele>454.0</ele><time>2026-03-25T12:06:00Z</time></trkpt><trkpt lat="41.71021866187397" lon="13.440410453825189"><ele>458.0</ele><time>2026-03-25T12:06:01Z</time></trkpt><trkpt lat="41.70999593609556" lon="13.440338770901102"><ele>458.0</ele><time>2026-03-25T12:06:02Z</time></trkpt><trkpt lat="41.70980404875887" lon="13.440277467860714"><ele>458.0</ele><time>2026-03-25T12:06:03Z</time></trkpt><trkpt lat="41.709627292018084" lon="13.440218452511461"><ele>458.0</ele><time>2026-03-25T12:06:04Z</time></trkpt><trkpt lat="41.70944680695784" lon="13.44016299743837"><ele>458.66666666666663</ele><time>2026-03-25T12:06:05Z</time></trkpt><trkpt lat="41.709251220661784" lon="13.440142536060574"><ele>459.33333333333337</ele><time>2026-03-25T12:06:06Z</time></trkpt><trkpt lat="41.70904900692671" lon="13.440124308710349"><ele>460.0</ele><time>2026-03-25T12:06:07Z</time></trkpt><trkpt lat="41.708864883581754" lon="13.440120653893302"><ele>460.0</ele><time>2026-03-25T12:06:08Z</time></trkpt><trkpt lat="41.708698226071355" lon="13.440115956508325"><ele>460.0</ele><time>2026-03-25T12:06:09Z</time></trkpt><trkpt lat="41.70856189580241" lon="13.440112571963693"><ele>460.0</ele><time>2026-03-25T12:06:10Z</time></trkpt><trkpt lat="41.70843969139289" lon="13.440113161732294"><ele>460.0</ele><time>2026-03-25T12:06:11Z</time></trkpt><trkpt lat="41.70833588932926" lon="13.440134223960909"><ele>460.0</ele><time>2026-03-25T12:06:12Z</time></trkpt><trkpt lat="41.70824930261945" lon="13.440128140687698"><ele>460.0</ele><time>2026-03-25T12:06:13Z</time></trkpt><trkpt lat="41.70817298086319" lon="13.440116825607442"><ele>460.0</ele><time>2026-03-25T12:06:14Z</time></trkpt><trkpt lat="41.708065294268756" lon="13.44008673186901"><ele>460.0</ele><time>2026-03-25T12:06:16Z</time></trkpt><trkpt lat="41.70798723621126" lon="13.440062770078848"><ele>460.0</ele><time>2026-03-25T12:06:17Z</time></trkpt><trkpt lat="41.70789016764349" lon="13.44000291485568"><ele>460.0</ele><time>2026-03-25T12:06:18Z</time></trkpt><trkpt lat="41.70777255494318" lon="13.439900106219554"><ele>460.0</ele><time>2026-03-25T12:06:19Z</time></trkpt><trkpt lat="41.70762523537245" lon="13.439776567968202"><ele>460.0</ele><time>2026-03-25T12:06:20Z</time></trkpt><trkpt lat="41.70746647114287" lon="13.439647510148669"><ele>464.0</ele><time>2026-03-25T12:06:21Z</time></trkpt><trkpt lat="41.707273155911466" lon="13.439489677728279"><ele>468.0</ele><time>2026-03-25T12:06:22Z</time></trkpt><trkpt lat="41.70707108678581" lon="13.43934115778846"><ele>464.0</ele><time>2026-03-25T12:06:23Z</time></trkpt><trkpt lat="41.70684552221116" lon="13.439196596639219"><ele>460.0</ele><time>2026-03-25T12:06:24Z</time></trkpt><trkpt lat="41.706613067782435" lon="13.439051613821338"><ele>460.0</ele><time>2026-03-25T12:06:25Z</time></trkpt><trkpt lat="41.706379349542836" lon="13.43887542915072"><ele>460.0</ele><time>2026-03-25T12:06:26Z</time></trkpt><trkpt lat="41.70611623869074" lon="13.438739656296121"><ele>463.0</ele><time>2026-03-25T12:06:27Z</time></trkpt><trkpt lat="41.70586545282152" lon="13.438572371247714"><ele>466.0</ele><time>2026-03-25T12:06:28Z</time></trkpt><trkpt lat="41.705646549636064" lon="13.438425045230016"><ele>466.0</ele><time>2026-03-25T12:06:29Z</time></trkpt><trkpt lat="41.70544814732721" lon="13.438290258981619"><ele>466.0</ele><time>2026-03-25T12:06:30Z</time></trkpt><trkpt lat="41.705267792582816" lon="13.43816004870377"><ele>466.0</ele><time>2026-03-25T12:06:31Z</time></trkpt><trkpt lat="41.7050922525576" lon="13.438015120909155"><ele>469.5</ele><time>2026-03-25T12:06:32Z</time></trkpt><trkpt lat="41.70490653482086" lon="13.437859240172084"><ele>473.0</ele><time>2026-03-25T12:06:33Z</time></trkpt><trkpt lat="41.704707232513925" lon="13.437693306871909"><ele>473.0</ele><time>2026-03-25T12:06:34Z</time></trkpt><trkpt lat="41.70450519484893" lon="13.437521521277183"><ele>473.0</ele><time>2026-03-25T12:06:35Z</time></trkpt><trkpt lat="41.704308766279446" lon="13.437351530318352"><ele>471.5</ele><time>2026-03-25T12:06:36Z</time></trkpt><trkpt lat="41.704107466312955" lon="13.43718144358278"><ele>470.0</ele><time>2026-03-25T12:06:37Z</time></trkpt><trkpt lat="41.70390577571037" lon="13.43700985353656"><ele>471.0</ele><time>2026-03-25T12:06:38Z</time></trkpt><trkpt lat="41.70370393977897" lon="13.436838037155146"><ele>472.0</ele><time>2026-03-25T12:06:39Z</time></trkpt><trkpt lat="41.70349880292316" lon="13.436667433891706"><ele>472.0</ele><time>2026-03-25T12:06:40Z</time></trkpt><trkpt lat="41.70329738863987" lon="13.436501967685224"><ele>472.0</ele><time>2026-03-25T12:06:41Z</time></trkpt><trkpt lat="41.703104466535784" lon="13.436328558257292"><ele>473.5</ele><time>2026-03-25T12:06:42Z</time></trkpt><trkpt lat="41.70291594576383" lon="13.436144515525665"><ele>475.0</ele><time>2026-03-25T12:06:43Z</time></trkpt><trkpt lat="41.70273067957504" lon="13.435954537613037"><ele>475.0</ele><time>2026-03-25T12:06:44Z</time></trkpt><trkpt lat="41.70253659898398" lon="13.435778254992835"><ele>475.0</ele><time>2026-03-25T12:06:45Z</time></trkpt><trkpt lat="41.7023238826069" lon="13.435652484133554"><ele>475.0</ele><time>2026-03-25T12:06:46Z</time></trkpt><trkpt lat="41.70212625733204" lon="13.435548061873204"><ele>475.0</ele><time>2026-03-25T12:06:47Z</time></trkpt><trkpt lat="41.701941470159575" lon="13.435431853956462"><ele>475.0</ele><time>2026-03-25T12:06:48Z</time></trkpt><trkpt lat="41.70177070140928" lon="13.435276005193755"><ele>476.0</ele><time>2026-03-25T12:06:49Z</time></trkpt><trkpt lat="41.70161119579254" lon="13.435090314236025"><ele>477.0</ele><time>2026-03-25T12:06:50Z</time></trkpt><trkpt lat="41.701473885500704" lon="13.43488585750287"><ele>478.0</ele><time>2026-03-25T12:06:51Z</time></trkpt><trkpt lat="41.70135211223167" lon="13.434701992666984"><ele>478.6666666666667</ele><time>2026-03-25T12:06:52Z</time></trkpt><trkpt lat="41.70123237321708" lon="13.434538722605472"><ele>479.33333333333337</ele><time>2026-03-25T12:06:53Z</time></trkpt><trkpt lat="41.70112149871186" lon="13.434384789423587"><ele>480.0</ele><time>2026-03-25T12:06:54Z</time></trkpt><trkpt lat="41.701024361484784" lon="13.43422904451114"><ele>478.75</ele><time>2026-03-25T12:06:55Z</time></trkpt><trkpt lat="41.70094145298543" lon="13.434076297224705"><ele>477.5</ele><time>2026-03-25T12:06:56Z</time></trkpt><trkpt lat="41.70087083173165" lon="13.433943267667301"><ele>476.25</ele><time>2026-03-25T12:06:57Z</time></trkpt><trkpt lat="41.700806686828464" lon="13.433827014739663"><ele>475.0</ele><time>2026-03-25T12:06:58Z</time></trkpt><trkpt lat="41.700749719164776" lon="13.433713253069895"><ele>474.4</ele><time>2026-03-25T12:06:59Z</time></trkpt><trkpt lat="41.700696632493695" lon="13.433607752605623"><ele>473.8</ele><time>2026-03-25T12:07:00Z</time></trkpt><trkpt lat="41.7006504521536" lon="13.433511384700179"><ele>473.20000000000005</ele><time>2026-03-25T12:07:01Z</time></trkpt><trkpt lat="41.700622050949676" lon="13.43342400751186"><ele>472.6</ele><time>2026-03-25T12:07:02Z</time></trkpt><trkpt lat="41.700593734271564" lon="13.433321594729849"><ele>472.0</ele><time>2026-03-25T12:07:04Z</time></trkpt><trkpt lat="41.7006624001727" lon="13.433162419059054"><ele>472.0</ele><time>2026-03-25T12:07:07Z</time></trkpt><trkpt lat="41.700760426193796" lon="13.433085196077883"><ele>472.0</ele><time>2026-03-25T12:07:08Z</time></trkpt><trkpt lat="41.70084882267402" lon="13.432970703405708"><ele>472.0</ele><time>2026-03-25T12:07:09Z</time></trkpt><trkpt lat="41.7009157472632" lon="13.43281320090602"><ele>472.0</ele><time>2026-03-25T12:07:10Z</time></trkpt><trkpt lat="41.70094025200469" lon="13.432660639132308"><ele>471.75</ele><time>2026-03-25T12:07:11Z</time></trkpt><trkpt lat="41.700924729377675" lon="13.43247813927494"><ele>471.5</ele><time>2026-03-25T12:07:12Z</time></trkpt><trkpt lat="41.70085960248231" lon="13.432291568023977"><ele>471.25</ele><time>2026-03-25T12:07:13Z</time></trkpt><trkpt lat="41.70076443713384" lon="13.43212764319046"><ele>471.0</ele><time>2026-03-25T12:07:14Z</time></trkpt><trkpt lat="41.70064810766661" lon="13.431985994239529"><ele>471.0</ele><time>2026-03-25T12:07:15Z</time></trkpt><trkpt lat="41.70052403835684" lon="13.431837073968934"><ele>471.0</ele><time>2026-03-25T12:07:16Z</time></trkpt><trkpt lat="41.70040532989778" lon="13.431680442692526"><ele>471.0</ele><time>2026-03-25T12:07:17Z</time></trkpt><trkpt lat="41.700315294647574" lon="13.431535434752748"><ele>471.66666666666663</ele><time>2026-03-25T12:07:18Z</time></trkpt><trkpt lat="41.70023765156743" lon="13.431369913815422"><ele>472.3333333333333</ele><time>2026-03-25T12:07:19Z</time></trkpt><trkpt lat="41.70017075878446" lon="13.431185892588053"><ele>473.0</ele><time>2026-03-25T12:07:20Z</time></trkpt><trkpt lat="41.700120777168195" lon="13.430973438486289"><ele>473.66666666666663</ele><time>2026-03-25T12:07:21Z</time></trkpt><trkpt lat="41.70009487252289" lon="13.430747092179937"><ele>474.33333333333337</ele><time>2026-03-25T12:07:22Z</time></trkpt><trkpt lat="41.7000909994045" lon="13.430530862512143"><ele>475.0</ele><time>2026-03-25T12:07:23Z</time></trkpt><trkpt lat="41.700091096889125" lon="13.430344737210905"><ele>475.0</ele><time>2026-03-25T12:07:24Z</time></trkpt><trkpt lat="41.70009621238282" lon="13.430182972589671"><ele>475.0</ele><time>2026-03-25T12:07:25Z</time></trkpt><trkpt lat="41.70010331062854" lon="13.430045217667669"><ele>475.0</ele><time>2026-03-25T12:07:26Z</time></trkpt><trkpt lat="41.70011841124688" lon="13.429950445181197"><ele>475.0</ele><time>2026-03-25T12:07:27Z</time></trkpt><trkpt lat="41.700161066115875" lon="13.429835421407422"><ele>475.0</ele><time>2026-03-25T12:07:29Z</time></trkpt><trkpt lat="41.70018621490265" lon="13.429733614448267"><ele>475.00000000000006</ele><time>2026-03-25T12:07:32Z</time></trkpt><trkpt lat="41.70014086461444" lon="13.429619347310398"><ele>475.0</ele><time>2026-03-25T12:07:35Z</time></trkpt><trkpt lat="41.700120535753" lon="13.429485230723769"><ele>475.0</ele><time>2026-03-25T12:07:37Z</time></trkpt><trkpt lat="41.70011029623946" lon="13.429385249369606"><ele>475.0</ele><time>2026-03-25T12:07:38Z</time></trkpt><trkpt lat="41.70010064211018" lon="13.429285894464108"><ele>475.00000000000006</ele><time>2026-03-25T12:07:39Z</time></trkpt><trkpt lat="41.700091069800735" lon="13.429191565812026"><ele>475.0</ele><time>2026-03-25T12:07:40Z</time></trkpt><trkpt lat="41.70008331157212" lon="13.429079559727764"><ele>475.0</ele><time>2026-03-25T12:07:41Z</time></trkpt><trkpt lat="41.70007282260898" lon="13.428953831308974"><ele>475.0</ele><time>2026-03-25T12:07:42Z</time></trkpt><trkpt lat="41.700052817322835" lon="13.428807829879661"><ele>475.0</ele><time>2026-03-25T12:07:43Z</time></trkpt><trkpt lat="41.70002397213533" lon="13.428591378800949"><ele>475.0</ele><time>2026-03-25T12:07:44Z</time></trkpt><trkpt lat="41.700003289621364" lon="13.428362762543262"><ele>473.25</ele><time>2026-03-25T12:07:45Z</time></trkpt><trkpt lat="41.69998566594912" lon="13.428157622905376"><ele>471.5</ele><time>2026-03-25T12:07:46Z</time></trkpt><trkpt lat="41.699960825097634" lon="13.427970997939289"><ele>469.75</ele><time>2026-03-25T12:07:47Z</time></trkpt><trkpt lat="41.69993006721901" lon="13.427795324284018"><ele>468.0</ele><time>2026-03-25T12:07:48Z</time></trkpt><trkpt lat="41.69989016436492" lon="13.42763675495838"><ele>467.5</ele><time>2026-03-25T12:07:49Z</time></trkpt><trkpt lat="41.699836442945426" lon="13.427473004729546"><ele>467.0</ele><time>2026-03-25T12:07:50Z</time></trkpt><trkpt lat="41.69978082440345" lon="13.427307698485466"><ele>466.5</ele><time>2026-03-25T12:07:51Z</time></trkpt><trkpt lat="41.69974108925017" lon="13.427163647743479"><ele>466.0</ele><time>2026-03-25T12:07:52Z</time></trkpt><trkpt lat="41.699709301171886" lon="13.4270391791389"><ele>466.0</ele><time>2026-03-25T12:07:53Z</time></trkpt><trkpt lat="41.69966588419857" lon="13.426932513945289"><ele>466.0</ele><time>2026-03-25T12:07:54Z</time></trkpt><trkpt lat="41.69960468178444" lon="13.426842026690412"><ele>466.0</ele><time>2026-03-25T12:07:55Z</time></trkpt><trkpt lat="41.69955930889667" lon="13.426762759094437"><ele>466.0</ele><time>2026-03-25T12:07:56Z</time></trkpt><trkpt lat="41.69941620265331" lon="13.426797042260159"><ele>466.0</ele><time>2026-03-25T12:07:57Z</time></trkpt><trkpt lat="41.69928226005501" lon="13.426862285368099"><ele>465.25</ele><time>2026-03-25T12:07:58Z</time></trkpt><trkpt lat="41.69914459526543" lon="13.42693081356847"><ele>464.5</ele><time>2026-03-25T12:07:59Z</time></trkpt><trkpt lat="41.699001820272805" lon="13.42699723230791"><ele>463.75</ele><time>2026-03-25T12:08:00Z</time></trkpt><trkpt lat="41.698862980262454" lon="13.426991936434016"><ele>463.0</ele><time>2026-03-25T12:08:01Z</time></trkpt><trkpt lat="41.69871324132369" lon="13.426988489707949"><ele>462.33333333333337</ele><time>2026-03-25T12:08:02Z</time></trkpt><trkpt lat="41.698563071999615" lon="13.426989241693267"><ele>461.66666666666663</ele><time>2026-03-25T12:08:03Z</time></trkpt><trkpt lat="41.69839952854035" lon="13.427078471300382"><ele>461.0</ele><time>2026-03-25T12:08:04Z</time></trkpt><trkpt lat="41.69822415580774" lon="13.427175863680274"><ele>458.66666666666663</ele><time>2026-03-25T12:08:05Z</time></trkpt><trkpt lat="41.69805868669747" lon="13.427285475570875"><ele>456.33333333333337</ele><time>2026-03-25T12:08:06Z</time></trkpt><trkpt lat="41.69791646688823" lon="13.427445094059685"><ele>454.0</ele><time>2026-03-25T12:08:07Z</time></trkpt><trkpt lat="41.69775912438306" lon="13.427604161093821"><ele>453.0</ele><time>2026-03-25T12:08:08Z</time></trkpt><trkpt lat="41.69758838349878" lon="13.42773318107612"><ele>452.0</ele><time>2026-03-25T12:08:09Z</time></trkpt><trkpt lat="41.697390848169235" lon="13.427852562189598"><ele>451.0</ele><time>2026-03-25T12:08:10Z</time></trkpt><trkpt lat="41.69720338970018" lon="13.427955033445558"><ele>451.0</ele><time>2026-03-25T12:08:11Z</time></trkpt><trkpt lat="41.697033781724286" lon="13.428022509925002"><ele>451.0</ele><time>2026-03-25T12:08:12Z</time></trkpt><trkpt lat="41.69686251891324" lon="13.428069509267877"><ele>451.0</ele><time>2026-03-25T12:08:13Z</time></trkpt><trkpt lat="41.696679577250066" lon="13.428072071109552"><ele>449.6666666666667</ele><time>2026-03-25T12:08:14Z</time></trkpt><trkpt lat="41.696468282490414" lon="13.428054166967208"><ele>448.33333333333337</ele><time>2026-03-25T12:08:15Z</time></trkpt><trkpt lat="41.69624524905089" lon="13.428056769061314"><ele>447.0</ele><time>2026-03-25T12:08:16Z</time></trkpt><trkpt lat="41.696036444489565" lon="13.4280723269711"><ele>447.0</ele><time>2026-03-25T12:08:17Z</time></trkpt><trkpt lat="41.695845243476185" lon="13.428067572317085"><ele>447.0</ele><time>2026-03-25T12:08:18Z</time></trkpt><trkpt lat="41.69568439877768" lon="13.42806264057038"><ele>447.0</ele><time>2026-03-25T12:08:19Z</time></trkpt><trkpt lat="41.69552853328118" lon="13.428002086378989"><ele>447.0</ele><time>2026-03-25T12:08:20Z</time></trkpt><trkpt lat="41.695353209563734" lon="13.427929816597974"><ele>447.0</ele><time>2026-03-25T12:08:21Z</time></trkpt><trkpt lat="41.69517484647855" lon="13.427820336383917"><ele>447.0</ele><time>2026-03-25T12:08:22Z</time></trkpt><trkpt lat="41.69500595184509" lon="13.42770478449975"><ele>446.33333333333337</ele><time>2026-03-25T12:08:23Z</time></trkpt><trkpt lat="41.69483418814653" lon="13.427559384443658"><ele>445.6666666666667</ele><time>2026-03-25T12:08:24Z</time></trkpt><trkpt lat="41.69464728797279" lon="13.427407509453245"><ele>445.0</ele><time>2026-03-25T12:08:25Z</time></trkpt><trkpt lat="41.69444874526447" lon="13.427257019179516"><ele>448.0</ele><time>2026-03-25T12:08:26Z</time></trkpt><trkpt lat="41.69423356403581" lon="13.427098886951132"><ele>451.0</ele><time>2026-03-25T12:08:27Z</time></trkpt><trkpt lat="41.69402725701123" lon="13.426950909415755"><ele>451.0</ele><time>2026-03-25T12:08:28Z</time></trkpt><trkpt lat="41.6938543473605" lon="13.426836855991935"><ele>451.0</ele><time>2026-03-25T12:08:29Z</time></trkpt><trkpt lat="41.69369020234993" lon="13.42674999404979"><ele>451.0</ele><time>2026-03-25T12:08:30Z</time></trkpt><trkpt lat="41.69355509992286" lon="13.426698640133722"><ele>450.75</ele><time>2026-03-25T12:08:31Z</time></trkpt><trkpt lat="41.6934338516131" lon="13.426631962439407"><ele>450.5</ele><time>2026-03-25T12:08:32Z</time></trkpt><trkpt lat="41.69333583771242" lon="13.426515082717087"><ele>450.25</ele><time>2026-03-25T12:08:33Z</time></trkpt><trkpt lat="41.69325045815619" lon="13.426344898555195"><ele>450.0</ele><time>2026-03-25T12:08:34Z</time></trkpt><trkpt lat="41.6931601349856" lon="13.426149047747924"><ele>454.0</ele><time>2026-03-25T12:08:35Z</time></trkpt><trkpt lat="41.693072964253716" lon="13.425936006550728"><ele>458.0</ele><time>2026-03-25T12:08:36Z</time></trkpt><trkpt lat="41.69294772007025" lon="13.425710996209258"><ele>462.0</ele><time>2026-03-25T12:08:37Z</time></trkpt><trkpt lat="41.69279128082231" lon="13.425470265333503"><ele>463.66666666666663</ele><time>2026-03-25T12:08:38Z</time></trkpt><trkpt lat="41.69262921711103" lon="13.425243352596487"><ele>465.3333333333333</ele><time>2026-03-25T12:08:39Z</time></trkpt><trkpt lat="41.69248820452937" lon="13.425061402486968"><ele>467.0</ele><time>2026-03-25T12:08:40Z</time></trkpt><trkpt lat="41.692370909660845" lon="13.424895116877872"><ele>467.0</ele><time>2026-03-25T12:08:41Z</time></trkpt><trkpt lat="41.69225327896627" lon="13.424752724970425"><ele>467.0</ele><time>2026-03-25T12:08:42Z</time></trkpt><trkpt lat="41.69211888307429" lon="13.424626234982313"><ele>467.0</ele><time>2026-03-25T12:08:43Z</time></trkpt><trkpt lat="41.69196828307602" lon="13.424505203258377"><ele>470.3333333333333</ele><time>2026-03-25T12:08:44Z</time></trkpt><trkpt lat="41.69180980503433" lon="13.424402878587577"><ele>473.66666666666663</ele><time>2026-03-25T12:08:45Z</time></trkpt><trkpt lat="41.69164515941674" lon="13.424327258453005"><ele>477.0</ele><time>2026-03-25T12:08:46Z</time></trkpt><trkpt lat="41.69148966124401" lon="13.424255460491038"><ele>477.0</ele><time>2026-03-25T12:08:47Z</time></trkpt><trkpt lat="41.691341532819365" lon="13.424155901334895"><ele>477.0</ele><time>2026-03-25T12:08:48Z</time></trkpt><trkpt lat="41.69120788992438" lon="13.424038397988475"><ele>477.0</ele><time>2026-03-25T12:08:49Z</time></trkpt><trkpt lat="41.69108624274254" lon="13.423895776213936"><ele>478.0</ele><time>2026-03-25T12:08:50Z</time></trkpt><trkpt lat="41.69096168156669" lon="13.423721463845604"><ele>479.0</ele><time>2026-03-25T12:08:51Z</time></trkpt><trkpt lat="41.69081179455199" lon="13.423522640518968"><ele>480.0</ele><time>2026-03-25T12:08:52Z</time></trkpt><trkpt lat="41.69066984104393" lon="13.423363758012984"><ele>480.0</ele><time>2026-03-25T12:08:53Z</time></trkpt><trkpt lat="41.69053428399284" lon="13.42323345115027"><ele>480.0</ele><time>2026-03-25T12:08:54Z</time></trkpt><trkpt lat="41.69039823002564" lon="13.423136754553193"><ele>480.0</ele><time>2026-03-25T12:08:55Z</time></trkpt><trkpt lat="41.69027451170438" lon="13.42303976364276"><ele>479.25</ele><time>2026-03-25T12:08:56Z</time></trkpt><trkpt lat="41.690174266543345" lon="13.422918040477917"><ele>478.5</ele><time>2026-03-25T12:08:57Z</time></trkpt><trkpt lat="41.69009258192084" lon="13.42275001911232"><ele>477.75</ele><time>2026-03-25T12:08:58Z</time></trkpt><trkpt lat="41.690025772128486" lon="13.422572304174688"><ele>477.0</ele><time>2026-03-25T12:08:59Z</time></trkpt><trkpt lat="41.68993541312917" lon="13.42245657509842"><ele>477.0</ele><time>2026-03-25T12:09:00Z</time></trkpt><trkpt lat="41.689817167035564" lon="13.422379571531403"><ele>477.0</ele><time>2026-03-25T12:09:01Z</time></trkpt><trkpt lat="41.68968378561317" lon="13.422341924353644"><ele>477.0</ele><time>2026-03-25T12:09:02Z</time></trkpt><trkpt lat="41.689566248376536" lon="13.422318904380662"><ele>477.0</ele><time>2026-03-25T12:09:03Z</time></trkpt><trkpt lat="41.68946587628657" lon="13.422299556356824"><ele>476.40000000000003</ele><time>2026-03-25T12:09:04Z</time></trkpt><trkpt lat="41.68938360410517" lon="13.422282329085588"><ele>475.80000000000007</ele><time>2026-03-25T12:09:05Z</time></trkpt><trkpt lat="41.68928982926118" lon="13.422266036216"><ele>475.2</ele><time>2026-03-25T12:09:07Z</time></trkpt><trkpt lat="41.68918999748467" lon="13.422227059771572"><ele>474.6</ele><time>2026-03-25T12:09:16Z</time></trkpt><trkpt lat="41.68912163316081" lon="13.422206681478373"><ele>474.0</ele><time>2026-03-25T12:09:17Z</time></trkpt><trkpt lat="41.68900339854947" lon="13.422354710703098"><ele>474.0</ele><time>2026-03-25T12:09:18Z</time></trkpt><trkpt lat="41.68886183362411" lon="13.422373991781372"><ele>474.0</ele><time>2026-03-25T12:09:19Z</time></trkpt><trkpt lat="41.6887102971151" lon="13.42235422993799"><ele>474.0</ele><time>2026-03-25T12:09:20Z</time></trkpt><trkpt lat="41.68854052891219" lon="13.422344872985544"><ele>473.0</ele><time>2026-03-25T12:09:21Z</time></trkpt><trkpt lat="41.68836072312857" lon="13.422388397021502"><ele>472.0</ele><time>2026-03-25T12:09:22Z</time></trkpt><trkpt lat="41.68816519773865" lon="13.42248408514001"><ele>471.0</ele><time>2026-03-25T12:09:23Z</time></trkpt><trkpt lat="41.68794009428534" lon="13.42255892002026"><ele>471.0</ele><time>2026-03-25T12:09:24Z</time></trkpt><trkpt lat="41.68769382259078" lon="13.422639665007011"><ele>471.0</ele><time>2026-03-25T12:09:25Z</time></trkpt><trkpt lat="41.687466833018846" lon="13.422727307971002"><ele>471.0</ele><time>2026-03-25T12:09:26Z</time></trkpt><trkpt lat="41.68726169017984" lon="13.422762872322135"><ele>471.0</ele><time>2026-03-25T12:09:27Z</time></trkpt><trkpt lat="41.68706833088551" lon="13.422810503483305"><ele>471.0</ele><time>2026-03-25T12:09:28Z</time></trkpt><trkpt lat="41.68687006436432" lon="13.422848544097024"><ele>470.33333333333337</ele><time>2026-03-25T12:09:29Z</time></trkpt><trkpt lat="41.68666213760824" lon="13.422878959530012"><ele>469.6666666666667</ele><time>2026-03-25T12:09:30Z</time></trkpt><trkpt lat="41.68644103385334" lon="13.422862365881414"><ele>469.0</ele><time>2026-03-25T12:09:31Z</time></trkpt><trkpt lat="41.6862145091588" lon="13.422840446199624"><ele>467.0</ele><time>2026-03-25T12:09:32Z</time></trkpt><trkpt lat="41.68601247180015" lon="13.422831799099347"><ele>465.0</ele><time>2026-03-25T12:09:33Z</time></trkpt><trkpt lat="41.685827141204534" lon="13.422826939684189"><ele>463.0</ele><time>2026-03-25T12:09:34Z</time></trkpt><trkpt lat="41.68565433849099" lon="13.422798664146534"><ele>463.0</ele><time>2026-03-25T12:09:35Z</time></trkpt><trkpt lat="41.68550270119662" lon="13.422785107513329"><ele>463.0</ele><time>2026-03-25T12:09:36Z</time></trkpt><trkpt lat="41.685365146371474" lon="13.422760635584465"><ele>463.0</ele><time>2026-03-25T12:09:37Z</time></trkpt><trkpt lat="41.68523529480397" lon="13.42272115066907"><ele>463.0</ele><time>2026-03-25T12:09:38Z</time></trkpt><trkpt lat="41.68512326506996" lon="13.42261751359791"><ele>460.33333333333337</ele><time>2026-03-25T12:09:39Z</time></trkpt><trkpt lat="41.68504017542371" lon="13.422431117075453"><ele>457.66666666666663</ele><time>2026-03-25T12:09:40Z</time></trkpt><trkpt lat="41.68498668498367" lon="13.422186128897922"><ele>455.0</ele><time>2026-03-25T12:09:41Z</time></trkpt><trkpt lat="41.684944965031164" lon="13.421907991232578"><ele>454.3333333333333</ele><time>2026-03-25T12:09:42Z</time></trkpt><trkpt lat="41.6849656511385" lon="13.421667746037532"><ele>453.66666666666663</ele><time>2026-03-25T12:09:43Z</time></trkpt><trkpt lat="41.68497254182255" lon="13.421404809807976"><ele>453.0</ele><time>2026-03-25T12:09:44Z</time></trkpt><trkpt lat="41.68501356222069" lon="13.42114882717429"><ele>450.66666666666663</ele><time>2026-03-25T12:09:45Z</time></trkpt><trkpt lat="41.68503424792097" lon="13.420917048787025"><ele>448.3333333333333</ele><time>2026-03-25T12:09:46Z</time></trkpt><trkpt lat="41.685040946421715" lon="13.420659777786772"><ele>446.0</ele><time>2026-03-25T12:09:47Z</time></trkpt><trkpt lat="41.68503429165714" lon="13.420400523090034"><ele>445.3333333333333</ele><time>2026-03-25T12:09:48Z</time></trkpt><trkpt lat="41.68499299748886" lon="13.420145518606015"><ele>444.66666666666663</ele><time>2026-03-25T12:09:49Z</time></trkpt><trkpt lat="41.68494978732458" lon="13.419914767734197"><ele>444.0</ele><time>2026-03-25T12:09:50Z</time></trkpt><trkpt lat="41.684866998661995" lon="13.419696288548003"><ele>445.0</ele><time>2026-03-25T12:09:51Z</time></trkpt><trkpt lat="41.684734649714805" lon="13.41950135003868"><ele>446.0</ele><time>2026-03-25T12:09:52Z</time></trkpt><trkpt lat="41.68456177199674" lon="13.41935372120369"><ele>447.0</ele><time>2026-03-25T12:09:53Z</time></trkpt><trkpt lat="41.68437518991197" lon="13.41921583708708"><ele>443.33333333333337</ele><time>2026-03-25T12:09:54Z</time></trkpt><trkpt lat="41.684219063161244" lon="13.419084803130406"><ele>439.6666666666667</ele><time>2026-03-25T12:09:55Z</time></trkpt><trkpt lat="41.68410426804724" lon="13.418922180739651"><ele>436.0</ele><time>2026-03-25T12:09:56Z</time></trkpt><trkpt lat="41.684007425451334" lon="13.418759953812868"><ele>436.0</ele><time>2026-03-25T12:09:57Z</time></trkpt><trkpt lat="41.683928858877266" lon="13.418579533240612"><ele>436.0</ele><time>2026-03-25T12:09:58Z</time></trkpt><trkpt lat="41.683849642742814" lon="13.418379916580879"><ele>436.0</ele><time>2026-03-25T12:09:59Z</time></trkpt><trkpt lat="41.68380108125588" lon="13.41816490865688"><ele>435.33333333333337</ele><time>2026-03-25T12:10:00Z</time></trkpt><trkpt lat="41.68375415027584" lon="13.41797708794436"><ele>434.66666666666663</ele><time>2026-03-25T12:10:01Z</time></trkpt><trkpt lat="41.68368678351485" lon="13.417798960265634"><ele>434.0</ele><time>2026-03-25T12:10:02Z</time></trkpt><trkpt lat="41.6835630063073" lon="13.417649677388644"><ele>432.3333333333333</ele><time>2026-03-25T12:10:03Z</time></trkpt><trkpt lat="41.68339011665631" lon="13.417542965814915"><ele>430.66666666666663</ele><time>2026-03-25T12:10:04Z</time></trkpt><trkpt lat="41.6831850235121" lon="13.41748085385334"><ele>429.0</ele><time>2026-03-25T12:10:05Z</time></trkpt><trkpt lat="41.6829846953886" lon="13.417447928916884"><ele>429.0</ele><time>2026-03-25T12:10:06Z</time></trkpt><trkpt lat="41.68281872731677" lon="13.417402329236854"><ele>429.0</ele><time>2026-03-25T12:10:07Z</time></trkpt><trkpt lat="41.68266092458012" lon="13.417349877871102"><ele>429.0</ele><time>2026-03-25T12:10:08Z</time></trkpt><trkpt lat="41.6825374569671" lon="13.417245015765008"><ele>426.0</ele><time>2026-03-25T12:10:09Z</time></trkpt><trkpt lat="41.68241176892881" lon="13.41715830170104"><ele>423.0</ele><time>2026-03-25T12:10:10Z</time></trkpt><trkpt lat="41.68229513688146" lon="13.417078763733429"><ele>420.0</ele><time>2026-03-25T12:10:11Z</time></trkpt><trkpt lat="41.682182403132664" lon="13.41702052584219"><ele>417.0</ele><time>2026-03-25T12:10:12Z</time></trkpt><trkpt lat="41.68207977998124" lon="13.416953805422535"><ele>417.0</ele><time>2026-03-25T12:10:13Z</time></trkpt><trkpt lat="41.681993291836854" lon="13.416891310082768"><ele>417.0</ele><time>2026-03-25T12:10:14Z</time></trkpt><trkpt lat="41.68190379435145" lon="13.416831102254207"><ele>417.0</ele><time>2026-03-25T12:10:15Z</time></trkpt><trkpt lat="41.681798215654496" lon="13.416821860068989"><ele>417.0</ele><time>2026-03-25T12:10:16Z</time></trkpt><trkpt lat="41.68166567543323" lon="13.416593834720198"><ele>415.5</ele><time>2026-03-25T12:10:17Z</time></trkpt><trkpt lat="41.681457846747506" lon="13.416404720825456"><ele>414.0</ele><time>2026-03-25T12:10:18Z</time></trkpt><trkpt lat="41.68124179141824" lon="13.416177066419111"><ele>412.0</ele><time>2026-03-25T12:10:19Z</time></trkpt><trkpt lat="41.680991696984805" lon="13.415926057331259"><ele>410.0</ele><time>2026-03-25T12:10:20Z</time></trkpt><trkpt lat="41.68076305254439" lon="13.415695374789612"><ele>410.0</ele><time>2026-03-25T12:10:21Z</time></trkpt><trkpt lat="41.680556456555315" lon="13.415501816804417"><ele>410.0</ele><time>2026-03-25T12:10:22Z</time></trkpt><trkpt lat="41.68036113501075" lon="13.41532316658338"><ele>406.66666666666663</ele><time>2026-03-25T12:10:23Z</time></trkpt><trkpt lat="41.68021818230015" lon="13.415173053259704"><ele>403.33333333333337</ele><time>2026-03-25T12:10:24Z</time></trkpt><trkpt lat="41.680077033716884" lon="13.415034307640914"><ele>400.0</ele><time>2026-03-25T12:10:25Z</time></trkpt><trkpt lat="41.679940626731316" lon="13.414908306301472"><ele>400.0</ele><time>2026-03-25T12:10:26Z</time></trkpt><trkpt lat="41.67981567851216" lon="13.414782059378442"><ele>400.0</ele><time>2026-03-25T12:10:27Z</time></trkpt><trkpt lat="41.67972277889361" lon="13.414624429567217"><ele>400.0</ele><time>2026-03-25T12:10:28Z</time></trkpt><trkpt lat="41.6796280674898" lon="13.414454922926799"><ele>398.4</ele><time>2026-03-25T12:10:29Z</time></trkpt><trkpt lat="41.67955957766364" lon="13.414286899580032"><ele>396.8</ele><time>2026-03-25T12:10:30Z</time></trkpt><trkpt lat="41.67951373874662" lon="13.414152936035341"><ele>395.20000000000005</ele><time>2026-03-25T12:10:31Z</time></trkpt><trkpt lat="41.67947741973373" lon="13.414032796134617"><ele>393.6</ele><time>2026-03-25T12:10:32Z</time></trkpt><trkpt lat="41.679474632351564" lon="13.413911387245989"><ele>392.0</ele><time>2026-03-25T12:10:33Z</time></trkpt><trkpt lat="41.6795148291441" lon="13.413806894205706"><ele>392.0</ele><time>2026-03-25T12:10:34Z</time></trkpt><trkpt lat="41.679594999648444" lon="13.413733812712467"><ele>392.0</ele><time>2026-03-25T12:10:35Z</time></trkpt><trkpt lat="41.679708889941885" lon="13.413715446168371"><ele>392.0</ele><time>2026-03-25T12:10:36Z</time></trkpt><trkpt lat="41.67986427211491" lon="13.41377804123796"><ele>392.0</ele><time>2026-03-25T12:10:37Z</time></trkpt><trkpt lat="41.680052038708055" lon="13.413897655338877"><ele>392.0</ele><time>2026-03-25T12:10:38Z</time></trkpt><trkpt lat="41.680251082340874" lon="13.413999998339605"><ele>392.0</ele><time>2026-03-25T12:10:39Z</time></trkpt><trkpt lat="41.680453787357536" lon="13.414079098285322"><ele>392.0</ele><time>2026-03-25T12:10:40Z</time></trkpt><trkpt lat="41.6806403698137" lon="13.414132862311856"><ele>389.0</ele><time>2026-03-25T12:10:41Z</time></trkpt><trkpt lat="41.68081604551767" lon="13.414177530453777"><ele>386.0</ele><time>2026-03-25T12:10:42Z</time></trkpt><trkpt lat="41.68099791167026" lon="13.414198681246868"><ele>383.0</ele><time>2026-03-25T12:10:43Z</time></trkpt><trkpt lat="41.6811853978441" lon="13.414202087276559"><ele>381.33333333333337</ele><time>2026-03-25T12:10:44Z</time></trkpt><trkpt lat="41.68136977456832" lon="13.41420395689647"><ele>379.6666666666667</ele><time>2026-03-25T12:10:45Z</time></trkpt><trkpt lat="41.68154786472385" lon="13.414192093226724"><ele>378.0</ele><time>2026-03-25T12:10:46Z</time></trkpt><trkpt lat="41.681744413053764" lon="13.414123432619066"><ele>378.5</ele><time>2026-03-25T12:10:47Z</time></trkpt><trkpt lat="41.681962886122086" lon="13.414050667926558"><ele>379.0</ele><time>2026-03-25T12:10:48Z</time></trkpt><trkpt lat="41.682177985570846" lon="13.413935373852608"><ele>379.0</ele><time>2026-03-25T12:10:49Z</time></trkpt><trkpt lat="41.68238519307235" lon="13.413840344437263"><ele>379.0</ele><time>2026-03-25T12:10:50Z</time></trkpt><trkpt lat="41.682571293071796" lon="13.413758443127344"><ele>379.0</ele><time>2026-03-25T12:10:51Z</time></trkpt><trkpt lat="41.68274566923727" lon="13.41368359138004"><ele>375.66666666666663</ele><time>2026-03-25T12:10:52Z</time></trkpt><trkpt lat="41.68291639320435" lon="13.413621575753826"><ele>372.3333333333333</ele><time>2026-03-25T12:10:53Z</time></trkpt><trkpt lat="41.68307687225121" lon="13.413559865777152"><ele>369.0</ele><time>2026-03-25T12:10:54Z</time></trkpt><trkpt lat="41.68322419293848" lon="13.41349571117448"><ele>369.0</ele><time>2026-03-25T12:10:55Z</time></trkpt><trkpt lat="41.68335813879384" lon="13.413417292483347"><ele>369.0</ele><time>2026-03-25T12:10:56Z</time></trkpt><trkpt lat="41.683481502622804" lon="13.413312149714308"><ele>369.0</ele><time>2026-03-25T12:10:57Z</time></trkpt><trkpt lat="41.68359726988977" lon="13.413177329375086"><ele>369.0</ele><time>2026-03-25T12:10:58Z</time></trkpt><trkpt lat="41.683692811250005" lon="13.413023692570848"><ele>368.25</ele><time>2026-03-25T12:10:59Z</time></trkpt><trkpt lat="41.68375991852521" lon="13.41285918865748"><ele>367.5</ele><time>2026-03-25T12:11:00Z</time></trkpt><trkpt lat="41.68378472477409" lon="13.412692009469495"><ele>366.75</ele><time>2026-03-25T12:11:01Z</time></trkpt><trkpt lat="41.683770800040065" lon="13.412514444522154"><ele>366.0</ele><time>2026-03-25T12:11:02Z</time></trkpt><trkpt lat="41.68369812079511" lon="13.41231428590604"><ele>361.6666666666667</ele><time>2026-03-25T12:11:03Z</time></trkpt><trkpt lat="41.68360734700701" lon="13.412102110909132"><ele>357.33333333333337</ele><time>2026-03-25T12:11:04Z</time></trkpt><trkpt lat="41.68353301140041" lon="13.411869495072068"><ele>353.0</ele><time>2026-03-25T12:11:05Z</time></trkpt><trkpt lat="41.68348735033839" lon="13.411633786520309"><ele>351.6666666666667</ele><time>2026-03-25T12:11:06Z</time></trkpt><trkpt lat="41.683456806542075" lon="13.411400629623971"><ele>350.3333333333333</ele><time>2026-03-25T12:11:07Z</time></trkpt><trkpt lat="41.683422602267676" lon="13.411186193431087"><ele>349.0</ele><time>2026-03-25T12:11:08Z</time></trkpt><trkpt lat="41.68337345005571" lon="13.410993617788643"><ele>348.0</ele><time>2026-03-25T12:11:09Z</time></trkpt><trkpt lat="41.683301676724206" lon="13.410833357299504"><ele>347.0</ele><time>2026-03-25T12:11:10Z</time></trkpt><trkpt lat="41.683230036108526" lon="13.410684461039427"><ele>346.0</ele><time>2026-03-25T12:11:11Z</time></trkpt><trkpt lat="41.6831720087817" lon="13.410536732550861"><ele>345.0</ele><time>2026-03-25T12:11:12Z</time></trkpt><trkpt lat="41.683133230963456" lon="13.410364505420427"><ele>344.25</ele><time>2026-03-25T12:11:13Z</time></trkpt><trkpt lat="41.683124041490046" lon="13.41019908031531"><ele>343.5</ele><time>2026-03-25T12:11:14Z</time></trkpt><trkpt lat="41.683155828967394" lon="13.410018621551686"><ele>342.75</ele><time>2026-03-25T12:11:15Z</time></trkpt><trkpt lat="41.68323658225437" lon="13.409842469239058"><ele>342.0</ele><time>2026-03-25T12:11:16Z</time></trkpt><trkpt lat="41.6833642085144" lon="13.40968253628031"><ele>340.3333333333333</ele><time>2026-03-25T12:11:17Z</time></trkpt><trkpt lat="41.683501097558384" lon="13.409523462977404"><ele>338.66666666666663</ele><time>2026-03-25T12:11:18Z</time></trkpt><trkpt lat="41.683628188699686" lon="13.409359569696548"><ele>337.0</ele><time>2026-03-25T12:11:19Z</time></trkpt><trkpt lat="41.68374356518946" lon="13.409202580564303"><ele>337.0</ele><time>2026-03-25T12:11:20Z</time></trkpt><trkpt lat="41.683853038691154" lon="13.409060832725487"><ele>337.0</ele><time>2026-03-25T12:11:21Z</time></trkpt><trkpt lat="41.68395848416459" lon="13.408927605505015"><ele>337.0</ele><time>2026-03-25T12:11:22Z</time></trkpt><trkpt lat="41.68405917309654" lon="13.4088024663744"><ele>337.0</ele><time>2026-03-25T12:11:23Z</time></trkpt><trkpt lat="41.684153375783524" lon="13.408691597545424"><ele>332.40000000000003</ele><time>2026-03-25T12:11:24Z</time></trkpt><trkpt lat="41.684249835075725" lon="13.408606786240814"><ele>327.8</ele><time>2026-03-25T12:11:25Z</time></trkpt><trkpt lat="41.684351284127544" lon="13.408561370586197"><ele>323.2</ele><time>2026-03-25T12:11:26Z</time></trkpt><trkpt lat="41.68444912928314" lon="13.408537493703635"><ele>318.6</ele><time>2026-03-25T12:11:27Z</time></trkpt><trkpt lat="41.68453937313811" lon="13.408528366132394"><ele>314.0</ele><time>2026-03-25T12:11:28Z</time></trkpt><trkpt lat="41.6846080724932" lon="13.408473344477242"><ele>314.0</ele><time>2026-03-25T12:11:29Z</time></trkpt><trkpt lat="41.68464858795183" lon="13.408401170436992"><ele>314.0</ele><time>2026-03-25T12:11:30Z</time></trkpt><trkpt lat="41.68466183040345" lon="13.408307754674755"><ele>314.0</ele><time>2026-03-25T12:11:31Z</time></trkpt><trkpt lat="41.684619273084195" lon="13.40819798384423"><ele>314.0</ele><time>2026-03-25T12:11:32Z</time></trkpt><trkpt lat="41.684530028296265" lon="13.40815248244769"><ele>314.0</ele><time>2026-03-25T12:11:33Z</time></trkpt><trkpt lat="41.684429490496065" lon="13.408167762858312"><ele>314.0</ele><time>2026-03-25T12:11:34Z</time></trkpt><trkpt lat="41.68433625012905" lon="13.40824528278294"><ele>313.6666666666667</ele><time>2026-03-25T12:11:35Z</time></trkpt><trkpt lat="41.68425208341629" lon="13.408295637857147"><ele>313.33333333333337</ele><time>2026-03-25T12:11:36Z</time></trkpt><trkpt lat="41.68419046266277" lon="13.408335160811298"><ele>313.0</ele><time>2026-03-25T12:11:37Z</time></trkpt><trkpt lat="41.68409237603032" lon="13.408330140072922"><ele>312.6666666666667</ele><time>2026-03-25T12:11:39Z</time></trkpt><trkpt lat="41.684049516770045" lon="13.408227502239018"><ele>312.3333333333333</ele><time>2026-03-25T12:11:40Z</time></trkpt><trkpt lat="41.68407766603193" lon="13.40811150231431"><ele>312.0</ele><time>2026-03-25T12:11:41Z</time></trkpt><trkpt lat="41.68417293170356" lon="13.40801198751995"><ele>308.0</ele><time>2026-03-25T12:11:42Z</time></trkpt><trkpt lat="41.684335613420245" lon="13.407988376071069"><ele>304.0</ele><time>2026-03-25T12:11:43Z</time></trkpt><trkpt lat="41.68449446322381" lon="13.407956034711802"><ele>300.0</ele><time>2026-03-25T12:11:44Z</time></trkpt><trkpt lat="41.68464161814399" lon="13.407890946353174"><ele>300.0</ele><time>2026-03-25T12:11:45Z</time></trkpt><trkpt lat="41.68476361012352" lon="13.407867280170716"><ele>300.0</ele><time>2026-03-25T12:11:46Z</time></trkpt><trkpt lat="41.68488077252343" lon="13.407818390269892"><ele>300.0</ele><time>2026-03-25T12:11:47Z</time></trkpt><trkpt lat="41.68498953378237" lon="13.407806263937172"><ele>300.0</ele><time>2026-03-25T12:11:48Z</time></trkpt><trkpt lat="41.685084916074196" lon="13.407814334331997"><ele>300.0</ele><time>2026-03-25T12:11:49Z</time></trkpt><trkpt lat="41.68515389017592" lon="13.407772437372463"><ele>300.0</ele><time>2026-03-25T12:11:50Z</time></trkpt><trkpt lat="41.685221679798744" lon="13.407746055349676"><ele>300.0</ele><time>2026-03-25T12:11:51Z</time></trkpt><trkpt lat="41.68525506460711" lon="13.407627945240144"><ele>300.0</ele><time>2026-03-25T12:11:52Z</time></trkpt><trkpt lat="41.68524571737326" lon="13.407499669916472"><ele>300.0</ele><time>2026-03-25T12:11:53Z</time></trkpt><trkpt lat="41.685170150896205" lon="13.40740626762678"><ele>300.0</ele><time>2026-03-25T12:11:54Z</time></trkpt><trkpt lat="41.68505834094984" lon="13.407365653532505"><ele>300.0</ele><time>2026-03-25T12:11:55Z</time></trkpt><trkpt lat="41.68492490508916" lon="13.407372689627726"><ele>300.0</ele><time>2026-03-25T12:11:56Z</time></trkpt><trkpt lat="41.684812565359834" lon="13.407361417374219"><ele>300.0</ele><time>2026-03-25T12:11:57Z</time></trkpt><trkpt lat="41.684719063218935" lon="13.407356505837244"><ele>300.0</ele><time>2026-03-25T12:11:58Z</time></trkpt><trkpt lat="41.6846121788504" lon="13.407350561460612"><ele>300.0</ele><time>2026-03-25T12:11:59Z</time></trkpt><trkpt lat="41.68447915502625" lon="13.407361158930277"><ele>299.25</ele><time>2026-03-25T12:12:00Z</time></trkpt><trkpt lat="41.684339832603" lon="13.407334785308057"><ele>298.5</ele><time>2026-03-25T12:12:01Z</time></trkpt><trkpt lat="41.68420641166081" lon="13.407330827167506"><ele>297.75</ele><time>2026-03-25T12:12:02Z</time></trkpt><trkpt lat="41.68408452863995" lon="13.407330063191836"><ele>297.0</ele><time>2026-03-25T12:12:03Z</time></trkpt><trkpt lat="41.68396221124482" lon="13.407318077796544"><ele>297.0</ele><time>2026-03-25T12:12:04Z</time></trkpt><trkpt lat="41.6838361846107" lon="13.407292888363871"><ele>297.0</ele><time>2026-03-25T12:12:05Z</time></trkpt><trkpt lat="41.683710291282516" lon="13.407237127564324"><ele>297.0</ele><time>2026-03-25T12:12:06Z</time></trkpt><trkpt lat="41.683581582952016" lon="13.407137283669536"><ele>297.0</ele><time>2026-03-25T12:12:07Z</time></trkpt><trkpt lat="41.6834655287941" lon="13.407025392668942"><ele>293.5</ele><time>2026-03-25T12:12:08Z</time></trkpt><trkpt lat="41.683367971337745" lon="13.406899297357983"><ele>290.0</ele><time>2026-03-25T12:12:09Z</time></trkpt><trkpt lat="41.683312797866314" lon="13.406766941814366"><ele>286.5</ele><time>2026-03-25T12:12:10Z</time></trkpt><trkpt lat="41.683281811205916" lon="13.406587716493718"><ele>283.0</ele><time>2026-03-25T12:12:11Z</time></trkpt><trkpt lat="41.68326045139818" lon="13.4063713173753"><ele>280.0</ele><time>2026-03-25T12:12:12Z</time></trkpt><trkpt lat="41.683248884629194" lon="13.406138581955704"><ele>277.0</ele><time>2026-03-25T12:12:13Z</time></trkpt><trkpt lat="41.6832271141816" lon="13.405917921088472"><ele>274.0</ele><time>2026-03-25T12:12:14Z</time></trkpt><trkpt lat="41.68320408467011" lon="13.405689160455504"><ele>272.3333333333333</ele><time>2026-03-25T12:12:15Z</time></trkpt><trkpt lat="41.6831847838866" lon="13.405453537111374"><ele>270.6666666666667</ele><time>2026-03-25T12:12:16Z</time></trkpt><trkpt lat="41.68316523287447" lon="13.405215275338083"><ele>269.0</ele><time>2026-03-25T12:12:17Z</time></trkpt><trkpt lat="41.68314762819498" lon="13.404995893209701"><ele>269.0</ele><time>2026-03-25T12:12:18Z</time></trkpt><trkpt lat="41.68313203605202" lon="13.404784864044013"><ele>269.0</ele><time>2026-03-25T12:12:19Z</time></trkpt><trkpt lat="41.683123064071026" lon="13.404558231189124"><ele>269.0</ele><time>2026-03-25T12:12:20Z</time></trkpt><trkpt lat="41.6831259801173" lon="13.404320303896496"><ele>268.6666666666667</ele><time>2026-03-25T12:12:21Z</time></trkpt><trkpt lat="41.683137540733256" lon="13.404072913464883"><ele>268.3333333333333</ele><time>2026-03-25T12:12:22Z</time></trkpt><trkpt lat="41.68315188436887" lon="13.4038328074307"><ele>268.0</ele><time>2026-03-25T12:12:23Z</time></trkpt><trkpt lat="41.68315276569093" lon="13.403587601196566"><ele>266.66666666666663</ele><time>2026-03-25T12:12:24Z</time></trkpt><trkpt lat="41.68310798842178" lon="13.403335213711909"><ele>265.3333333333333</ele><time>2026-03-25T12:12:25Z</time></trkpt><trkpt lat="41.68304218339514" lon="13.403068852347605"><ele>264.0</ele><time>2026-03-25T12:12:26Z</time></trkpt><trkpt lat="41.68298929027824" lon="13.402801068380752"><ele>262.6666666666667</ele><time>2026-03-25T12:12:27Z</time></trkpt><trkpt lat="41.682947483097344" lon="13.402531724236237"><ele>261.33333333333337</ele><time>2026-03-25T12:12:28Z</time></trkpt><trkpt lat="41.68290931559045" lon="13.402272527843463"><ele>260.0</ele><time>2026-03-25T12:12:29Z</time></trkpt><trkpt lat="41.682869793068186" lon="13.402021225379436"><ele>259.33333333333337</ele><time>2026-03-25T12:12:30Z</time></trkpt><trkpt lat="41.68283015288493" lon="13.401774374418983"><ele>258.6666666666667</ele><time>2026-03-25T12:12:31Z</time></trkpt><trkpt lat="41.68279323268435" lon="13.401547164534712"><ele>258.0</ele><time>2026-03-25T12:12:32Z</time></trkpt><trkpt lat="41.682758286755735" lon="13.401339921753141"><ele>257.5</ele><time>2026-03-25T12:12:33Z</time></trkpt><trkpt lat="41.682729977398" lon="13.401146548328919"><ele>257.0</ele><time>2026-03-25T12:12:34Z</time></trkpt><trkpt lat="41.68270045020396" lon="13.400959470101393"><ele>256.5</ele><time>2026-03-25T12:12:35Z</time></trkpt><trkpt lat="41.68266323997794" lon="13.40077417960792"><ele>256.0</ele><time>2026-03-25T12:12:36Z</time></trkpt><trkpt lat="41.68259947242098" lon="13.400585533833734"><ele>255.25</ele><time>2026-03-25T12:12:37Z</time></trkpt><trkpt lat="41.68251517601524" lon="13.40040521373833"><ele>254.5</ele><time>2026-03-25T12:12:38Z</time></trkpt><trkpt lat="41.68242922604892" lon="13.40024455071986"><ele>253.75</ele><time>2026-03-25T12:12:39Z</time></trkpt><trkpt lat="41.68234914202127" lon="13.400095023099244"><ele>253.0</ele><time>2026-03-25T12:12:40Z</time></trkpt><trkpt lat="41.682277758092894" lon="13.399958154326614"><ele>253.0</ele><time>2026-03-25T12:12:41Z</time></trkpt><trkpt lat="41.682212801087644" lon="13.399832065064352"><ele>253.0</ele><time>2026-03-25T12:12:42Z</time></trkpt><trkpt lat="41.682154908116914" lon="13.399715763942197"><ele>253.0</ele><time>2026-03-25T12:12:43Z</time></trkpt><trkpt lat="41.68210340084664" lon="13.39960931505778"><ele>253.0</ele><time>2026-03-25T12:12:44Z</time></trkpt><trkpt lat="41.68205459755411" lon="13.399511945978928"><ele>253.0</ele><time>2026-03-25T12:12:45Z</time></trkpt><trkpt lat="41.68201218782628" lon="13.399428194477203"><ele>252.5</ele><time>2026-03-25T12:12:46Z</time></trkpt><trkpt lat="41.681975144740484" lon="13.39935448172854"><ele>252.0</ele><time>2026-03-25T12:12:47Z</time></trkpt><trkpt lat="41.68195161270235" lon="13.399240190674767"><ele>251.5</ele><time>2026-03-25T12:12:49Z</time></trkpt><trkpt lat="41.68213379250181" lon="13.399164108550401"><ele>251.0</ele><time>2026-03-25T12:12:52Z</time></trkpt><trkpt lat="41.68228492195293" lon="13.399178034638767"><ele>251.0</ele><time>2026-03-25T12:12:53Z</time></trkpt><trkpt lat="41.682474102097686" lon="13.39918193204914"><ele>251.0</ele><time>2026-03-25T12:12:54Z</time></trkpt><trkpt lat="41.68269521234589" lon="13.399223406460925"><ele>251.0</ele><time>2026-03-25T12:12:55Z</time></trkpt><trkpt lat="41.68291660449832" lon="13.39930755365915"><ele>251.5</ele><time>2026-03-25T12:12:56Z</time></trkpt><trkpt lat="41.68313094646971" lon="13.399350184356658"><ele>252.0</ele><time>2026-03-25T12:12:57Z</time></trkpt><trkpt lat="41.68338676864168" lon="13.399312576887684"><ele>253.0</ele><time>2026-03-25T12:12:58Z</time></trkpt><trkpt lat="41.68365290189723" lon="13.399260282633186"><ele>254.0</ele><time>2026-03-25T12:12:59Z</time></trkpt><trkpt lat="41.68387857737242" lon="13.39919913006261"><ele>254.0</ele><time>2026-03-25T12:13:00Z</time></trkpt><trkpt lat="41.68407718640965" lon="13.399150236590959"><ele>254.0</ele><time>2026-03-25T12:13:01Z</time></trkpt><trkpt lat="41.68426339360933" lon="13.399139469165533"><ele>254.0</ele><time>2026-03-25T12:13:02Z</time></trkpt><trkpt lat="41.68445400474654" lon="13.399147849972634"><ele>254.66666666666669</ele><time>2026-03-25T12:13:03Z</time></trkpt><trkpt lat="41.68464840480992" lon="13.399167749567285"><ele>255.33333333333331</ele><time>2026-03-25T12:13:04Z</time></trkpt><trkpt lat="41.68484180659948" lon="13.399169089073101"><ele>256.0</ele><time>2026-03-25T12:13:05Z</time></trkpt><trkpt lat="41.68504062718667" lon="13.39916678235138"><ele>256.0</ele><time>2026-03-25T12:13:06Z</time></trkpt><trkpt lat="41.6852299581634" lon="13.399176035980604"><ele>256.0</ele><time>2026-03-25T12:13:07Z</time></trkpt><trkpt lat="41.685407860768294" lon="13.399201785439205"><ele>256.0</ele><time>2026-03-25T12:13:08Z</time></trkpt><trkpt lat="41.6855811893794" lon="13.39921291471104"><ele>256.75</ele><time>2026-03-25T12:13:09Z</time></trkpt><trkpt lat="41.68574671240567" lon="13.399179299185205"><ele>257.5</ele><time>2026-03-25T12:13:10Z</time></trkpt><trkpt lat="41.685893028336906" lon="13.399135141888971"><ele>258.25</ele><time>2026-03-25T12:13:11Z</time></trkpt><trkpt lat="41.68602239338253" lon="13.399102753045105"><ele>259.0</ele><time>2026-03-25T12:13:12Z</time></trkpt><trkpt lat="41.68613478363208" lon="13.399087716034062"><ele>259.4</ele><time>2026-03-25T12:13:13Z</time></trkpt><trkpt lat="41.686238213557125" lon="13.399090221619836"><ele>259.79999999999995</ele><time>2026-03-25T12:13:14Z</time></trkpt><trkpt lat="41.68634856597749" lon="13.399120605236803"><ele>260.20000000000005</ele><time>2026-03-25T12:13:15Z</time></trkpt><trkpt lat="41.68644693397416" lon="13.399185482873959"><ele>260.6</ele><time>2026-03-25T12:13:16Z</time></trkpt><trkpt lat="41.686511741435744" lon="13.399260161581411"><ele>261.0</ele><time>2026-03-25T12:13:17Z</time></trkpt><trkpt lat="41.686577422618726" lon="13.399298537935104"><ele>261.0</ele><time>2026-03-25T12:13:18Z</time></trkpt><trkpt lat="41.68664497446607" lon="13.399290689923449"><ele>261.0</ele><time>2026-03-25T12:13:19Z</time></trkpt><trkpt lat="41.6867122211723" lon="13.39922542894633"><ele>261.0</ele><time>2026-03-25T12:13:20Z</time></trkpt><trkpt lat="41.68675515627872" lon="13.399100977555491"><ele>261.0</ele><time>2026-03-25T12:13:21Z</time></trkpt><trkpt lat="41.68679740704386" lon="13.399013042041386"><ele>261.0</ele><time>2026-03-25T12:13:22Z</time></trkpt><trkpt lat="41.686851031406874" lon="13.398874125711618"><ele>261.0</ele><time>2026-03-25T12:13:24Z</time></trkpt><trkpt lat="41.686793174465905" lon="13.398727736836314"><ele>260.5</ele><time>2026-03-25T12:13:25Z</time></trkpt><trkpt lat="41.686722858120206" lon="13.398575557202099"><ele>260.0</ele><time>2026-03-25T12:13:26Z</time></trkpt><trkpt lat="41.68666010315274" lon="13.398428142285475"><ele>259.5</ele><time>2026-03-25T12:13:27Z</time></trkpt><trkpt lat="41.68663082553532" lon="13.39828939083389"><ele>259.0</ele><time>2026-03-25T12:13:28Z</time></trkpt><trkpt lat="41.68662944563475" lon="13.398129071654143"><ele>259.0</ele><time>2026-03-25T12:13:29Z</time></trkpt><trkpt lat="41.68665692475095" lon="13.397942675392407"><ele>259.0</ele><time>2026-03-25T12:13:30Z</time></trkpt><trkpt lat="41.6866704661017" lon="13.397733786309342"><ele>259.0</ele><time>2026-03-25T12:13:31Z</time></trkpt><trkpt lat="41.686625243190164" lon="13.397531115177667"><ele>259.0</ele><time>2026-03-25T12:13:32Z</time></trkpt><trkpt lat="41.68651958671787" lon="13.397367904695471"><ele>259.0</ele><time>2026-03-25T12:13:33Z</time></trkpt><trkpt lat="41.686366426689894" lon="13.397245059597232"><ele>259.0</ele><time>2026-03-25T12:13:34Z</time></trkpt><trkpt lat="41.68618790736457" lon="13.397146259403986"><ele>258.3333333333333</ele><time>2026-03-25T12:13:35Z</time></trkpt><trkpt lat="41.686046872299144" lon="13.396984408354603"><ele>257.6666666666667</ele><time>2026-03-25T12:13:36Z</time></trkpt><trkpt lat="41.68590111361997" lon="13.396745378532161"><ele>257.0</ele><time>2026-03-25T12:13:37Z</time></trkpt><trkpt lat="41.68572348789985" lon="13.396468455304111"><ele>257.5</ele><time>2026-03-25T12:13:38Z</time></trkpt><trkpt lat="41.685531871503294" lon="13.396194027373781"><ele>258.0</ele><time>2026-03-25T12:13:39Z</time></trkpt><trkpt lat="41.68534667174245" lon="13.395979997749238"><ele>258.3333333333333</ele><time>2026-03-25T12:13:40Z</time></trkpt><trkpt lat="41.6851948674578" lon="13.3957674636815"><ele>258.66666666666663</ele><time>2026-03-25T12:13:41Z</time></trkpt><trkpt lat="41.68507145521752" lon="13.395537220998788"><ele>259.0</ele><time>2026-03-25T12:13:42Z</time></trkpt><trkpt lat="41.68495858074347" lon="13.39529700121148"><ele>259.0</ele><time>2026-03-25T12:13:43Z</time></trkpt><trkpt lat="41.68485290694923" lon="13.39508855205887"><ele>259.0</ele><time>2026-03-25T12:13:44Z</time></trkpt><trkpt lat="41.68474399611227" lon="13.394906127785577"><ele>259.0</ele><time>2026-03-25T12:13:45Z</time></trkpt><trkpt lat="41.68463999449559" lon="13.394715642487943"><ele>261.0</ele><time>2026-03-25T12:13:46Z</time></trkpt><trkpt lat="41.684549987051895" lon="13.394502763216959"><ele>263.0</ele><time>2026-03-25T12:13:47Z</time></trkpt><trkpt lat="41.68447232016729" lon="13.394274505273229"><ele>265.0</ele><time>2026-03-25T12:13:48Z</time></trkpt><trkpt lat="41.684393570806144" lon="13.39402300951674"><ele>260.66666666666663</ele><time>2026-03-25T12:13:49Z</time></trkpt><trkpt lat="41.6843271849943" lon="13.393788780762408"><ele>256.3333333333333</ele><time>2026-03-25T12:13:50Z</time></trkpt><trkpt lat="41.68428035432089" lon="13.393572409755585"><ele>252.0</ele><time>2026-03-25T12:13:51Z</time></trkpt><trkpt lat="41.68425919053317" lon="13.393367914089144"><ele>252.0</ele><time>2026-03-25T12:13:52Z</time></trkpt><trkpt lat="41.68426179111779" lon="13.393154067952166"><ele>252.0</ele><time>2026-03-25T12:13:53Z</time></trkpt><trkpt lat="41.684283495651755" lon="13.392914278764357"><ele>252.0</ele><time>2026-03-25T12:13:54Z</time></trkpt><trkpt lat="41.6843043957096" lon="13.392649025771771"><ele>250.5</ele><time>2026-03-25T12:13:55Z</time></trkpt><trkpt lat="41.684299502824466" lon="13.392355533239696"><ele>249.0</ele><time>2026-03-25T12:13:56Z</time></trkpt><trkpt lat="41.684253456786244" lon="13.392026031462718"><ele>248.0</ele><time>2026-03-25T12:13:57Z</time></trkpt><trkpt lat="41.68421198097211" lon="13.391730670301108"><ele>247.0</ele><time>2026-03-25T12:13:58Z</time></trkpt><trkpt lat="41.68419156159563" lon="13.391463135033984"><ele>246.0</ele><time>2026-03-25T12:13:59Z</time></trkpt><trkpt lat="41.68417835586193" lon="13.391212613675668"><ele>245.66666666666669</ele><time>2026-03-25T12:14:00Z</time></trkpt><trkpt lat="41.68417371078115" lon="13.390962807042794"><ele>245.33333333333334</ele><time>2026-03-25T12:14:01Z</time></trkpt><trkpt lat="41.68418857612527" lon="13.390705837266013"><ele>245.0</ele><time>2026-03-25T12:14:02Z</time></trkpt><trkpt lat="41.68420931118426" lon="13.390449480787481"><ele>245.0</ele><time>2026-03-25T12:14:03Z</time></trkpt><trkpt lat="41.684266062292345" lon="13.39022413363073"><ele>245.0</ele><time>2026-03-25T12:14:04Z</time></trkpt><trkpt lat="41.68429162649921" lon="13.389994073127145"><ele>245.0</ele><time>2026-03-25T12:14:05Z</time></trkpt><trkpt lat="41.684271374087274" lon="13.389750311220498"><ele>246.66666666666669</ele><time>2026-03-25T12:14:06Z</time></trkpt><trkpt lat="41.68419515716683" lon="13.389495408261556"><ele>248.33333333333331</ele><time>2026-03-25T12:14:07Z</time></trkpt><trkpt lat="41.68409606252545" lon="13.389224993476402"><ele>250.0</ele><time>2026-03-25T12:14:08Z</time></trkpt><trkpt lat="41.68402448560604" lon="13.388985314417681"><ele>251.0</ele><time>2026-03-25T12:14:09Z</time></trkpt><trkpt lat="41.68396323404279" lon="13.388770303503991"><ele>252.0</ele><time>2026-03-25T12:14:10Z</time></trkpt><trkpt lat="41.68389828709032" lon="13.388568206535098"><ele>253.0</ele><time>2026-03-25T12:14:11Z</time></trkpt><trkpt lat="41.68384910249458" lon="13.388348201898355"><ele>253.0</ele><time>2026-03-25T12:14:12Z</time></trkpt><trkpt lat="41.683835697537106" lon="13.38809988445563"><ele>253.0</ele><time>2026-03-25T12:14:13Z</time></trkpt><trkpt lat="41.683854508618225" lon="13.387825495629835"><ele>253.0</ele><time>2026-03-25T12:14:14Z</time></trkpt><trkpt lat="41.68387618624966" lon="13.387597975335556"><ele>251.66666666666666</ele><time>2026-03-25T12:14:15Z</time></trkpt><trkpt lat="41.683902041321616" lon="13.387394607220351"><ele>250.33333333333331</ele><time>2026-03-25T12:14:16Z</time></trkpt><trkpt lat="41.68394971501386" lon="13.387210547393384"><ele>249.0</ele><time>2026-03-25T12:14:17Z</time></trkpt><trkpt lat="41.684040842493204" lon="13.387030070399158"><ele>248.33333333333331</ele><time>2026-03-25T12:14:18Z</time></trkpt><trkpt lat="41.684166390781265" lon="13.386889229021806"><ele>247.66666666666666</ele><time>2026-03-25T12:14:19Z</time></trkpt><trkpt lat="41.68434436462523" lon="13.386798199056964"><ele>247.0</ele><time>2026-03-25T12:14:20Z</time></trkpt><trkpt lat="41.684562053198235" lon="13.38673001362283"><ele>247.0</ele><time>2026-03-25T12:14:21Z</time></trkpt><trkpt lat="41.68477429393367" lon="13.386665587228912"><ele>247.0</ele><time>2026-03-25T12:14:22Z</time></trkpt><trkpt lat="41.68494706335118" lon="13.386603969402968"><ele>247.0</ele><time>2026-03-25T12:14:23Z</time></trkpt><trkpt lat="41.6851045646229" lon="13.38653507853265"><ele>247.0</ele><time>2026-03-25T12:14:24Z</time></trkpt><trkpt lat="41.685250765070904" lon="13.3864562140306"><ele>247.0</ele><time>2026-03-25T12:14:25Z</time></trkpt><trkpt lat="41.68538450210153" lon="13.386383377859872"><ele>247.0</ele><time>2026-03-25T12:14:26Z</time></trkpt><trkpt lat="41.68550105137474" lon="13.386307126075152"><ele>247.0</ele><time>2026-03-25T12:14:27Z</time></trkpt><trkpt lat="41.68559899350328" lon="13.386217805226089"><ele>246.25</ele><time>2026-03-25T12:14:28Z</time></trkpt><trkpt lat="41.685675627656096" lon="13.386106279233802"><ele>245.5</ele><time>2026-03-25T12:14:29Z</time></trkpt><trkpt lat="41.68572743714315" lon="13.385964208932966"><ele>244.75</ele><time>2026-03-25T12:14:30Z</time></trkpt><trkpt lat="41.68574913355478" lon="13.385791807831799"><ele>244.0</ele><time>2026-03-25T12:14:31Z</time></trkpt><trkpt lat="41.68573729944992" lon="13.385585609686595"><ele>243.66666666666666</ele><time>2026-03-25T12:14:32Z</time></trkpt><trkpt lat="41.68570271462431" lon="13.385335433711301"><ele>243.33333333333331</ele><time>2026-03-25T12:14:33Z</time></trkpt><trkpt lat="41.68567353489879" lon="13.385059836366597"><ele>243.0</ele><time>2026-03-25T12:14:34Z</time></trkpt><trkpt lat="41.68565386646364" lon="13.384770999797997"><ele>243.66666666666669</ele><time>2026-03-25T12:14:35Z</time></trkpt><trkpt lat="41.68565569482919" lon="13.384471272953796"><ele>244.33333333333334</ele><time>2026-03-25T12:14:36Z</time></trkpt><trkpt lat="41.68567489108059" lon="13.384215032323713"><ele>245.0</ele><time>2026-03-25T12:14:37Z</time></trkpt><trkpt lat="41.68569927385542" lon="13.38396656489646"><ele>246.66666666666669</ele><time>2026-03-25T12:14:38Z</time></trkpt><trkpt lat="41.6856948940387" lon="13.383724891595289"><ele>248.33333333333331</ele><time>2026-03-25T12:14:39Z</time></trkpt><trkpt lat="41.6856720058904" lon="13.383504984362085"><ele>250.0</ele><time>2026-03-25T12:14:40Z</time></trkpt><trkpt lat="41.68561815477083" lon="13.383288935505755"><ele>250.0</ele><time>2026-03-25T12:14:41Z</time></trkpt><trkpt lat="41.68553090529425" lon="13.383082002647946"><ele>250.0</ele><time>2026-03-25T12:14:42Z</time></trkpt><trkpt lat="41.685434447001775" lon="13.382853781186173"><ele>250.0</ele><time>2026-03-25T12:14:43Z</time></trkpt><trkpt lat="41.68534017916374" lon="13.38258965882311"><ele>251.0</ele><time>2026-03-25T12:14:44Z</time></trkpt><trkpt lat="41.68526316338511" lon="13.382346282866273"><ele>252.0</ele><time>2026-03-25T12:14:45Z</time></trkpt><trkpt lat="41.68518930850203" lon="13.382132163482458"><ele>253.0</ele><time>2026-03-25T12:14:46Z</time></trkpt><trkpt lat="41.685113686752885" lon="13.38193344966592"><ele>250.0</ele><time>2026-03-25T12:14:47Z</time></trkpt><trkpt lat="41.68504802012799" lon="13.381727832876207"><ele>247.0</ele><time>2026-03-25T12:14:48Z</time></trkpt><trkpt lat="41.68499869164892" lon="13.381522609125197"><ele>244.0</ele><time>2026-03-25T12:14:49Z</time></trkpt><trkpt lat="41.68496518771231" lon="13.381330346095218"><ele>243.0</ele><time>2026-03-25T12:14:50Z</time></trkpt><trkpt lat="41.68493747958699" lon="13.381144455372961"><ele>242.0</ele><time>2026-03-25T12:14:51Z</time></trkpt><trkpt lat="41.68490647333651" lon="13.380948102761485"><ele>241.0</ele><time>2026-03-25T12:14:52Z</time></trkpt><trkpt lat="41.68487263849853" lon="13.380746593033919"><ele>240.0</ele><time>2026-03-25T12:14:53Z</time></trkpt><trkpt lat="41.684844414663615" lon="13.380562075520004"><ele>240.5</ele><time>2026-03-25T12:14:54Z</time></trkpt><trkpt lat="41.684818723891524" lon="13.380390943253985"><ele>241.0</ele><time>2026-03-25T12:14:55Z</time></trkpt><trkpt lat="41.68478839013298" lon="13.380216435686648"><ele>241.5</ele><time>2026-03-25T12:14:56Z</time></trkpt><trkpt lat="41.68472748371702" lon="13.380046629021976"><ele>242.0</ele><time>2026-03-25T12:14:57Z</time></trkpt><trkpt lat="41.6846312786727" lon="13.379890932590303"><ele>242.0</ele><time>2026-03-25T12:14:58Z</time></trkpt><trkpt lat="41.68451001658113" lon="13.379748531718738"><ele>242.0</ele><time>2026-03-25T12:14:59Z</time></trkpt><trkpt lat="41.68438672439263" lon="13.37960967267128"><ele>242.0</ele><time>2026-03-25T12:15:00Z</time></trkpt><trkpt lat="41.68429796277157" lon="13.379434618995363"><ele>244.33333333333334</ele><time>2026-03-25T12:15:01Z</time></trkpt><trkpt lat="41.68423804913544" lon="13.379212163983249"><ele>246.66666666666669</ele><time>2026-03-25T12:15:02Z</time></trkpt><trkpt lat="41.684188182057326" lon="13.378971959995642"><ele>249.0</ele><time>2026-03-25T12:15:03Z</time></trkpt><trkpt lat="41.684144745190686" lon="13.37872408524433"><ele>250.33333333333331</ele><time>2026-03-25T12:15:04Z</time></trkpt><trkpt lat="41.684117896440924" lon="13.37848104932396"><ele>251.66666666666666</ele><time>2026-03-25T12:15:05Z</time></trkpt><trkpt lat="41.68409862800265" lon="13.378234620679535"><ele>253.0</ele><time>2026-03-25T12:15:06Z</time></trkpt><trkpt lat="41.684083670034276" lon="13.377985763854053"><ele>253.33333333333331</ele><time>2026-03-25T12:15:07Z</time></trkpt><trkpt lat="41.684066421136734" lon="13.377736499936189"><ele>253.66666666666669</ele><time>2026-03-25T12:15:08Z</time></trkpt><trkpt lat="41.68404539928633" lon="13.377505088770933"><ele>254.0</ele><time>2026-03-25T12:15:09Z</time></trkpt><trkpt lat="41.684028976130136" lon="13.37730121143685"><ele>254.39999999999998</ele><time>2026-03-25T12:15:10Z</time></trkpt><trkpt lat="41.684009084545586" lon="13.3771195872376"><ele>254.79999999999998</ele><time>2026-03-25T12:15:11Z</time></trkpt><trkpt lat="41.6839937046613" lon="13.37695758712949"><ele>255.20000000000002</ele><time>2026-03-25T12:15:12Z</time></trkpt><trkpt lat="41.68398300056123" lon="13.376822702223462"><ele>255.60000000000002</ele><time>2026-03-25T12:15:13Z</time></trkpt><trkpt lat="41.683974422060885" lon="13.376709481506124"><ele>256.0</ele><time>2026-03-25T12:15:14Z</time></trkpt><trkpt lat="41.683929018853206" lon="13.376574297221167"><ele>256.0</ele><time>2026-03-25T12:15:16Z</time></trkpt><trkpt lat="41.68380007290529" lon="13.376569826717683"><ele>256.0</ele><time>2026-03-25T12:15:18Z</time></trkpt><trkpt lat="41.68370298507324" lon="13.376612335349316"><ele>256.0</ele><time>2026-03-25T12:15:19Z</time></trkpt><trkpt lat="41.6835819201444" lon="13.376640667683084"><ele>256.0</ele><time>2026-03-25T12:15:20Z</time></trkpt><trkpt lat="41.683424291826164" lon="13.376645307260448"><ele>255.33333333333331</ele><time>2026-03-25T12:15:21Z</time></trkpt><trkpt lat="41.683225349879876" lon="13.37669195118013"><ele>254.66666666666669</ele><time>2026-03-25T12:15:22Z</time></trkpt><trkpt lat="41.682994223679636" lon="13.376714745658496"><ele>254.0</ele><time>2026-03-25T12:15:23Z</time></trkpt><trkpt lat="41.682762577600506" lon="13.376740130859675"><ele>253.33333333333334</ele><time>2026-03-25T12:15:24Z</time></trkpt><trkpt lat="41.68255352720328" lon="13.376753552541619"><ele>252.66666666666669</ele><time>2026-03-25T12:15:25Z</time></trkpt><trkpt lat="41.68234190914711" lon="13.376764165648975"><ele>252.0</ele><time>2026-03-25T12:15:26Z</time></trkpt><trkpt lat="41.68213637978714" lon="13.376774732229144"><ele>250.66666666666669</ele><time>2026-03-25T12:15:27Z</time></trkpt><trkpt lat="41.68192647887199" lon="13.376777116133555"><ele>249.33333333333334</ele><time>2026-03-25T12:15:28Z</time></trkpt><trkpt lat="41.68171954279102" lon="13.376778749574596"><ele>248.0</ele><time>2026-03-25T12:15:29Z</time></trkpt><trkpt lat="41.68151202848657" lon="13.376784154554556"><ele>248.0</ele><time>2026-03-25T12:15:30Z</time></trkpt><trkpt lat="41.681310009547516" lon="13.376787437858239"><ele>248.0</ele><time>2026-03-25T12:15:31Z</time></trkpt><trkpt lat="41.68112427763562" lon="13.376785737769534"><ele>248.0</ele><time>2026-03-25T12:15:32Z</time></trkpt><trkpt lat="41.680945909218146" lon="13.37679232700547"><ele>248.0</ele><time>2026-03-25T12:15:33Z</time></trkpt><trkpt lat="41.68077862795417" lon="13.37679778090636"><ele>248.0</ele><time>2026-03-25T12:15:34Z</time></trkpt><trkpt lat="41.68062270097469" lon="13.376798063121875"><ele>248.0</ele><time>2026-03-25T12:15:35Z</time></trkpt><trkpt lat="41.68048160857076" lon="13.376795962660946"><ele>248.0</ele><time>2026-03-25T12:15:36Z</time></trkpt><trkpt lat="41.6803618772684" lon="13.37679637966369"><ele>248.0</ele><time>2026-03-25T12:15:37Z</time></trkpt><trkpt lat="41.68026689887835" lon="13.376795537257715"><ele>248.0</ele><time>2026-03-25T12:15:38Z</time></trkpt><trkpt lat="41.680188768318594" lon="13.37679352807661"><ele>248.0</ele><time>2026-03-25T12:15:39Z</time></trkpt><trkpt lat="41.68008554653027" lon="13.376765562972167"><ele>248.0</ele><time>2026-03-25T12:15:41Z</time></trkpt><trkpt lat="41.6800448643847" lon="13.376583451163386"><ele>247.33333333333334</ele><time>2026-03-25T12:15:42Z</time></trkpt><trkpt lat="41.679995483991526" lon="13.376376887163785"><ele>246.66666666666669</ele><time>2026-03-25T12:15:43Z</time></trkpt><trkpt lat="41.679925468198086" lon="13.376126515550663"><ele>246.0</ele><time>2026-03-25T12:15:44Z</time></trkpt><trkpt lat="41.679846667506226" lon="13.375839642269439"><ele>246.0</ele><time>2026-03-25T12:15:45Z</time></trkpt><trkpt lat="41.679776957980884" lon="13.375537162988262"><ele>246.0</ele><time>2026-03-25T12:15:46Z</time></trkpt><trkpt lat="41.67971213035003" lon="13.375269355813446"><ele>246.0</ele><time>2026-03-25T12:15:47Z</time></trkpt><trkpt lat="41.679652459778175" lon="13.375031777000311"><ele>246.0</ele><time>2026-03-25T12:15:48Z</time></trkpt><trkpt lat="41.679603687483265" lon="13.374816558944422"><ele>246.0</ele><time>2026-03-25T12:15:49Z</time></trkpt><trkpt lat="41.67956076539229" lon="13.374613816148774"><ele>246.0</ele><time>2026-03-25T12:15:50Z</time></trkpt><trkpt lat="41.67951749832959" lon="13.374423717041887"><ele>246.25</ele><time>2026-03-25T12:15:51Z</time></trkpt><trkpt lat="41.67947253961285" lon="13.374247687797215"><ele>246.5</ele><time>2026-03-25T12:15:52Z</time></trkpt><trkpt lat="41.67943035515854" lon="13.374083610292166"><ele>246.75</ele><time>2026-03-25T12:15:53Z</time></trkpt><trkpt lat="41.67939151226403" lon="13.373928875570135"><ele>247.0</ele><time>2026-03-25T12:15:54Z</time></trkpt><trkpt lat="41.679357415687164" lon="13.37379355693603"><ele>246.39999999999998</ele><time>2026-03-25T12:15:55Z</time></trkpt><trkpt lat="41.67932352867992" lon="13.373674686846401"><ele>245.79999999999998</ele><time>2026-03-25T12:15:56Z</time></trkpt><trkpt lat="41.67929500292799" lon="13.373579898111077"><ele>245.2</ele><time>2026-03-25T12:15:57Z</time></trkpt><trkpt lat="41.67926492425162" lon="13.373460596037052"><ele>244.6</ele><time>2026-03-25T12:15:59Z</time></trkpt><trkpt lat="41.67941187238009" lon="13.373363699025665"><ele>244.0</ele><time>2026-03-25T12:16:03Z</time></trkpt><trkpt lat="41.679548269591734" lon="13.373324914048665"><ele>244.0</ele><time>2026-03-25T12:16:04Z</time></trkpt><trkpt lat="41.67972027280748" lon="13.373288780071935"><ele>244.0</ele><time>2026-03-25T12:16:05Z</time></trkpt><trkpt lat="41.67986199985025" lon="13.373282862071388"><ele>244.0</ele><time>2026-03-25T12:16:06Z</time></trkpt><trkpt lat="41.67996576284492" lon="13.373257619207173"><ele>244.0</ele><time>2026-03-25T12:16:07Z</time></trkpt><trkpt lat="41.68005582709131" lon="13.3732360952387"><ele>244.0</ele><time>2026-03-25T12:16:08Z</time></trkpt><trkpt lat="41.68012892744399" lon="13.373223503563596"><ele>243.99999999999997</ele><time>2026-03-25T12:16:09Z</time></trkpt><trkpt lat="41.680196296725136" lon="13.373217902668005"><ele>243.99999999999997</ele><time>2026-03-25T12:16:10Z</time></trkpt><trkpt lat="41.680287709323146" lon="13.37320827175695"><ele>244.0</ele><time>2026-03-25T12:16:12Z</time></trkpt><trkpt lat="41.68035191262556" lon="13.373194163063024"><ele>244.0</ele><time>2026-03-25T12:16:15Z</time></trkpt><trkpt lat="41.680160072961506" lon="13.373641990286373"><ele>244.0</ele><time>2026-03-25T12:16:36Z</time></trkpt><trkpt lat="41.68020898143066" lon="13.373765619191781"><ele>244.0</ele><time>2026-03-25T12:16:37Z</time></trkpt><trkpt lat="41.68025323787037" lon="13.373877488881663"><ele>244.0</ele><time>2026-03-25T12:16:39Z</time></trkpt><trkpt lat="41.68051635725889" lon="13.373190395078305"><ele>244.5</ele><time>2026-03-25T12:16:41Z</time></trkpt><trkpt lat="41.68056517236079" lon="13.373243938440586"><ele>245.0</ele><time>2026-03-25T12:16:45Z</time></trkpt><trkpt lat="41.680557815396206" lon="13.373595401317267"><ele>245.5</ele><time>2026-03-25T12:16:47Z</time></trkpt><trkpt lat="41.68056290730995" lon="13.3734993705382"><ele>246.0</ele><time>2026-03-25T12:17:09Z</time></trkpt><trkpt lat="41.680546205992485" lon="13.373405811056735"><ele>246.00000000000003</ele><time>2026-03-25T12:17:15Z</time></trkpt><trkpt lat="41.68047828417396" lon="13.373418284343362"><ele>246.0</ele><time>2026-03-25T12:17:21Z</time></trkpt><trkpt lat="41.68054660530588" lon="13.37345223187242"><ele>246.00000000000003</ele><time>2026-03-25T13:19:19Z</time></trkpt><trkpt lat="41.680513492504666" lon="13.373529696471127"><ele>246.00000000000003</ele><time>2026-03-25T13:20:50Z</time></trkpt><trkpt lat="41.680478138030935" lon="13.373405534318332"><ele>246.0</ele><time>2026-03-25T13:23:08Z</time></trkpt><trkpt lat="41.68054890607956" lon="13.373417201601493"><ele>246.00000000000003</ele><time>2026-03-25T13:32:59Z</time></trkpt><trkpt lat="41.6805772311774" lon="13.373497674780069"><ele>246.00000000000003</ele><time>2026-03-25T13:33:07Z</time></trkpt><trkpt lat="41.68052964977635" lon="13.373434800608837"><ele>246.0</ele><time>2026-03-25T13:33:49Z</time></trkpt><trkpt lat="41.68046502004113" lon="13.373401993284501"><ele>246.0</ele><time>2026-03-25T13:33:57Z</time></trkpt></trkseg></trk></gpx>